GFSSE_con_mucape_000.txt.gz
CAPE
132 1036 1995 1475 1223 695 319 34 8 1 0 0 0 7 33 9 0 6 20 7 19 4 1 19 28 39 76 82 50 24 13 0 0 0 0 0 0 1 0 27 15 0 0
371 1187 1880 1541 1073 761 403 55 19 0 0 0 0 4 2 6 0 5 14 13 3 0 0 0 3 6 9 8 9 3 5 8 0 0 0 0 0 0 0 22 5 0 20
699 1189 1303 1527 1075 955 501 58 17 0 0 0 0 6 7 9 26 30 25 22 14 0 0 0 0 0 0 0 0 0 3 1 0 0 0 0 0 0 0 15 0 0 0
920 1147 1158 1690 1341 1032 365 61 22 0 0 0 0 4 11 22 28 18 29 12 1 0 0 0 0 0 0 0 0 0 0 0 0 0 0 0 0 0 0 16 10 0 0
907 1010 1238 1866 1797 1319 475 81 33 6 0 0 0 2 24 31 48 30 35 9 0 0 0 0 0 0 0 0 0 0 0 0 0 0 0 0 0 0 10 14 12 10 1
620 871 1570 1956 1880 1577 887 144 71 30 0 0 0 0 15 69 119 93 27 48 15 0 0 0 0 0 0 0 1 1 0 0 7 0 0 0 0 0 0 14 18 11 0
372 780 1733 1945 2022 1406 846 448 143 38 21 0 0 0 17 53 107 238 101 79 14 0 0 0 0 0 0 4 14 67 13 14 0 0 0 0 0 0 0 7 12 18 18
711 1264 1545 2011 1699 1291 1090 887 550 177 39 4 6 5 18 10 60 181 121 59 14 6 0 7 8 10 0 0 1 6 74 39 0 0 0 0 0 0 0 4 21 14 13
1199 1484 1587 1599 1343 1443 1379 1130 865 628 312 105 37 16 46 27 12 61 286 112 51 19 19 30 29 4 6 9 1 4 70 37 0 0 0 0 0 0 0 2 11 18 21
1371 1365 1385 1201 1138 961 1157 992 809 769 552 404 203 129 102 44 35 46 198 132 76 77 81 23 7 17 26 30 19 104 52 0 0 0 0 0 0 0 17 21 4 11 15
1348 1182 1222 1035 907 759 607 668 551 499 455 349 144 69 32 0 0 1 31 58 174 83 63 87 96 141 277 162 127 105 8 0 0 0 0 0 0 17 14 25 64 45 14
734 744 728 697 532 649 518 375 354 215 222 119 63 30 16 0 0 0 9 48 112 171 246 229 249 429 296 24 0 0 4 1 0 3 0 0 0 44 77 199 445 355 275
448 536 548 524 427 520 369 292 257 117 118 72 43 33 48 11 2 10 22 53 80 96 101 85 34 9 10 5 0 0 0 0 0 0 0 0 10 37 123 207 385 324 267
329 542 577 540 564 698 549 462 279 151 151 88 103 86 59 36 53 72 107 140 117 165 102 32 5 2 0 0 0 0 0 0 0 0 0 0 0 0 33 23 149 353 557
107 463 589 655 725 741 532 415 290 219 191 82 81 55 51 79 115 129 128 118 111 37 12 2 0 0 0 0 0 0 0 0 0 0 0 0 0 0 2 8 34 55 168
13 374 571 687 821 708 595 502 324 197 117 114 94 106 97 85 94 99 35 77 34 0 0 0 0 0 0 0 0 0 0 0 0 0 0 0 0 0 0 0 0 13 56
35 311 570 687 723 686 631 613 367 210 297 127 103 101 224 118 121 29 66 4 0 0 0 0 0 0 0 0 0 0 0 0 0 0 0 0 0 0 0 0 0 0 0
46 354 522 564 675 676 652 588 336 292 326 247 191 23 21 2 1 0 0 0 0 0 0 0 0 0 0 0 0 0 0 0 0 0 0 0 0 0 0 0 0 0 0
25 53 152 408 660 582 513 461 393 287 275 230 113 11 0 2 0 0 0 0 0 0 0 0 0 0 0 0 0 0 0 0 0 0 0 0 0 0 0 0 0 0 0
0 4 39 412 604 407 338 306 218 266 68 38 3 0 0 0 0 0 0 0 0 0 0 0 0 0 0 0 0 0 0 0 0 0 0 0 0 0 0 0 0 0 0
0 0 0 440 401 306 170 89 94 61 7 0 0 0 0 0 0 0 0 0 0 0 0 0 0 0 0 0 0 0 0 0 0 0 0 0 0 0 0 0 0 0 0
0 0 67 337 263 209 160 51 36 13 0 0 0 0 0 0 0 0 0 0 0 0 0 0 0 0 0 0 0 0 0 0 0 0 0 0 0 0 0 0 0 0 0
0 0 143 175 170 145 92 41 6 0 0 0 0 0 0 0 0 0 0 0 0 0 0 0 0 0 0 0 0 0 0 0 0 0 0 0 0 0 0 0 0 0 0
0 0 72 90 98 36 6 0 0 0 0 0 0 0 0 0 0 0 0 0 0 0 0 0 0 0 0 0 0 0 0 0 0 0 0 0 0 0 0 0 0 0 0
0 0 8 6 0 0 0 0 0 0 0 0 0 0 0 0 0 0 0 0 0 0 0 0 0 0 0 0 0 0 0 0 0 0 0 0 0 0 0 0 0 0 0
0 0 7 5 0 0 0 0 0 0 0 0 0 0 0 0 0 0 0 0 0 0 0 0 0 0 0 0 0 0 0 0 0 0 0 0 0 0 0 0 0 0 0

GFSSE_con_mucape_003.txt.gz
CAPE
41 317 1790 1365 873 558 121 12 0 0 0 0 0 20 13 17 15 4 1 8 7 0 0 9 26 24 43 72 45 21 8 0 0 0 0 0 0 8 9 0 8 7 0
62 482 2059 1533 916 547 141 25 0 0 0 0 2 25 16 0 0 0 11 8 0 0 0 0 0 0 0 4 6 3 2 1 0 0 0 0 0 0 3 30 7 0 26
306 1192 1593 1926 1269 583 263 51 4 0 0 0 0 2 9 10 24 23 31 22 0 0 0 0 0 0 0 0 0 0 1 5 0 0 0 0 0 0 0 20 13 1 10
826 1323 1256 1877 1152 849 437 67 27 0 0 0 0 11 19 33 39 22 25 3 0 0 0 0 0 0 0 0 0 0 0 2 0 4 0 0 0 0 7 14 19 14 6
1045 1253 1084 1740 1429 1175 476 94 34 3 0 0 0 12 31 23 43 48 10 0 0 0 0 0 0 0 0 0 0 0 0 0 4 0 0 0 0 0 6 11 20 12 19
995 1233 1464 1866 1804 1446 830 160 57 4 1 0 0 0 16 57 89 43 50 88 26 0 0 0 0 0 0 1 21 40 9 4 4 0 0 0 0 0 0 7 17 25 13
883 1074 1700 2174 2044 1632 957 384 98 23 1 0 0 0 10 42 61 113 128 47 20 0 0 0 0 0 1 0 4 26 88 124 5 0 0 0 0 0 0 6 19 19 12
644 1039 1891 2023 1992 1639 1103 709 385 51 9 0 0 0 14 7 46 137 106 73 20 3 1 0 8 12 18 7 8 6 79 96 3 0 0 0 0 0 0 1 5 17 13
676 1319 1721 1682 1642 1235 1025 843 585 308 175 20 24 9 11 24 6 58 218 106 66 38 21 35 62 16 7 26 45 60 127 102 10 0 0 0 0 0 24 23 15 14 24
1254 1398 1480 1585 1256 999 924 911 777 612 379 276 107 46 57 26 21 29 198 122 100 92 116 82 39 66 112 121 99 216 170 73 0 0 0 0 0 39 174 169 130 93 69
1410 1419 1311 1212 1116 926 916 703 685 675 447 341 125 47 12 0 0 0 20 44 112 176 111 146 213 261 377 263 190 158 39 0 0 0 0 0 5 105 219 299 276 220 187
1430 1442 1227 1147 900 695 594 528 397 361 318 197 70 15 2 0 0 0 0 35 120 182 227 194 262 184 23 0 0 0 0 0 0 0 0 0 21 82 32 122 344 224 208
1144 1295 1239 1064 830 620 526 406 412 210 211 105 32 5 9 0 0 0 2 19 34 59 109 72 6 0 0 0 0 0 0 0 0 0 0 0 0 0 0 2 49 239 387
415 946 943 807 689 505 442 266 281 181 131 61 20 16 20 3 10 22 57 50 69 103 49 3 0 0 0 0 0 0 0 0 0 0 0 0 0 0 0 0 0 12 223
181 459 760 723 543 582 526 476 435 218 161 90 69 64 20 10 46 81 83 112 29 9 0 0 0 0 0 0 0 0 0 0 0 0 0 0 0 0 0 0 0 10 0
0 172 627 763 680 715 759 646 497 315 239 96 47 33 49 52 65 72 12 3 1 0 0 0 0 0 0 0 0 0 0 0 0 0 0 0 0 0 0 0 0 0 0
0 11 495 793 859 856 821 691 566 377 200 51 96 95 83 123 136 1 1 1 0 0 0 0 0 0 0 0 0 0 0 0 0 0 0 0 0 0 0 0 0 0 0
0 54 424 866 968 1035 893 853 1074 581 257 207 202 104 103 32 18 0 0 0 0 0 0 0 0 0 0 0 0 0 0 0 0 0 0 0 0 0 0 0 0 0 0
0 63 617 937 1031 973 885 801 916 602 357 164 157 125 1 0 2 0 0 0 0 0 0 0 0 0 0 0 0 0 0 0 0 0 0 0 0 0 0 0 0 0 0
0 273 693 947 997 921 853 775 604 373 261 198 199 116 1 0 0 0 0 0 0 0 0 0 0 0 0 0 0 0 0 0 0 0 0 0 0 0 0 0 0 0 0
0 39 670 762 913 855 747 299 581 550 238 103 89 2 0 0 0 0 0 0 0 0 0 0 0 0 0 0 0 0 0 0 0 0 0 0 0 0 0 0 0 0 0
0 0 43 480 830 834 497 104 40 169 137 24 2 0 0 0 0 0 0 0 0 0 0 0 0 0 0 0 0 0 0 0 0 0 0 0 0 0 0 0 0 0 0
0 0 0 302 735 726 376 82 2 98 16 0 0 0 0 0 0 0 0 0 0 0 0 0 0 0 0 0 0 0 0 0 0 0 0 0 0 0 0 0 0 0 0
0 0 0 287 642 552 300 142 68 8 0 0 0 0 0 0 0 0 0 0 0 0 0 0 0 0 0 0 0 0 0 0 0 0 0 0 0 0 0 0 0 0 0
0 0 30 428 407 328 185 129 46 11 0 0 0 0 0 0 0 0 0 0 0 0 0 0 0 0 0 0 0 0 0 0 0 0 0 0 0 0 0 0 0 0 0
8 40 240 258 250 214 66 38 7 0 0 0 0 0 0 0 0 0 0 0 0 0 0 0 0 0 0 0 0 0 0 0 0 0 0 0 0 0 0 0 0 0 0

GFSSE_con_mucape_006.txt.gz
CAPE
22 318 1932 1098 939 457 200 18 0 0 0 0 0 20 32 61 44 26 4 0 1 0 0 0 16 19 59 87 68 32 24 1 0 0 0 0 0 1 17 14 0 2 3
37 437 1875 1570 1072 583 106 35 3 0 0 0 1 22 29 13 14 13 23 4 0 0 0 0 0 0 4 9 25 13 14 11 0 0 0 0 0 0 3 5 26 0 7
55 373 1510 1774 1330 653 138 52 12 0 0 0 2 18 14 13 23 18 23 15 6 0 0 0 0 0 0 0 0 0 0 2 4 2 0 0 0 0 0 11 18 9 6
273 893 1519 1900 1235 689 299 92 22 0 0 0 0 5 27 21 38 30 38 2 0 0 0 0 0 0 0 0 0 0 0 0 6 10 0 0 0 0 0 12 29 19 10
979 1344 1287 1986 1438 1042 446 123 70 9 0 0 4 13 25 24 51 27 0 0 0 0 0 0 0 0 0 0 0 2 1 0 0 0 0 0 0 0 0 12 34 34 20
1111 1337 1395 1746 1557 1545 816 213 112 27 1 0 0 4 22 42 51 49 45 61 32 0 0 0 0 0 0 0 2 5 42 19 12 0 0 0 0 0 0 0 10 9 25
1151 1275 1461 1936 1725 1540 929 389 132 53 0 0 0 0 13 40 49 117 76 31 9 0 0 0 0 1 2 3 2 2 29 124 18 2 0 0 0 0 0 0 2 9 13
1012 1217 1551 1909 1992 1677 1200 712 340 80 8 0 0 0 5 18 35 166 145 73 28 0 7 0 8 19 10 2 16 29 64 108 14 0 0 0 0 2 31 29 6 6 5
811 1212 1682 1846 1804 1590 1220 849 595 259 95 0 18 9 12 20 0 41 168 89 59 51 16 35 44 20 31 60 83 115 229 165 39 0 0 0 0 31 143 135 185 103 42
811 1276 1621 1732 1631 1337 859 839 659 463 350 182 125 29 23 15 8 12 156 103 63 40 68 61 96 141 169 181 190 177 147 40 0 0 0 0 3 190 353 372 415 393 355
1120 1280 1528 1587 1367 1116 754 706 712 581 357 262 60 20 4 0 0 0 0 2 22 67 68 108 215 219 41 5 10 0 0 0 0 0 0 0 14 160 152 141 244 350 361
1290 1987 1475 1920 1365 1071 865 733 548 493 340 200 57 10 0 0 0 0 0 0 21 22 18 39 26 5 0 0 0 0 0 0 0 0 0 0 0 0 0 0 7 100 35
1062 1537 2130 1987 1422 996 811 737 466 385 297 193 86 4 0 0 0 0 0 0 5 25 75 19 0 0 0 0 0 0 0 0 0 0 0 0 0 0 0 0 0 0 82
596 1138 1446 1637 1338 1036 702 550 495 294 240 148 38 0 2 0 0 5 14 1 16 43 9 0 0 0 0 0 0 0 0 0 0 0 0 0 0 0 0 0 7 10 0
175 333 1013 1382 1269 986 805 480 417 348 171 130 40 6 13 4 12 52 28 41 33 1 0 0 0 0 0 0 0 0 0 0 0 0 0 0 0 0 0 0 0 0 0
0 2 227 837 1105 857 665 544 471 423 205 164 108 82 17 124 55 58 60 1 2 1 0 0 0 0 0 0 0 0 0 0 0 0 0 0 0 0 0 0 0 0 0
0 0 68 408 904 841 729 856 677 479 340 216 162 103 102 90 51 3 0 0 0 0 0 0 0 0 0 0 0 0 0 0 0 0 0 0 0 0 0 0 0 0 0
0 0 20 309 772 907 884 1042 751 578 484 342 158 259 159 45 14 9 0 0 0 0 0 0 0 0 0 0 0 0 0 0 0 0 0 0 0 0 0 0 0 0 0
0 0 137 436 812 970 1063 983 569 568 481 435 252 135 71 0 0 0 0 0 0 0 0 0 0 0 0 0 0 0 0 0 0 0 0 0 0 0 0 0 0 0 0
0 0 330 595 951 1069 1120 992 838 546 384 360 166 89 67 2 0 0 0 0 0 0 0 0 0 0 0 0 0 0 0 0 0 0 0 0 0 0 0 0 0 0 0
0 42 513 832 1115 1198 1003 536 567 398 328 296 183 79 54 1 0 0 0 0 0 0 0 0 0 0 0 0 0 0 0 0 0 0 0 0 0 0 0 0 0 0 0
5 115 573 978 1154 1059 862 593 402 333 171 102 90 28 3 0 0 0 0 0 0 0 0 0 0 0 0 0 0 0 0 0 0 0 0 0 0 0 0 0 0 0 0
0 24 501 930 1108 921 760 619 175 76 29 69 14 1 0 0 0 0 0 0 0 0 0 0 0 0 0 0 0 0 0 0 0 0 0 0 0 0 0 0 0 0 0
0 0 23 517 911 759 527 635 204 1 2 17 2 0 0 0 0 0 0 0 0 0 0 0 0 0 0 0 0 0 0 0 0 0 0 0 0 0 0 0 0 0 0
0 0 0 6 396 288 338 436 170 2 1 11 0 0 0 0 0 0 0 0 0 0 0 0 0 0 0 0 0 0 0 0 0 0 0 0 0 0 0 0 0 0 0
0 0 0 0 207 434 563 199 49 0 11 2 0 0 0 0 0 0 0 0 0 0 0 0 0 0 0 0 0 0 0 0 0 0 0 0 0 0 0 0 0 0 0

GFSSE_con_mucape_009.txt.gz
CAPE
47 193 1816 1100 764 416 110 32 0 0 0 0 0 6 44 82 73 37 13 2 0 0 0 0 0 4 51 72 68 50 27 4 0 0 0 0 0 0 1 23 12 2 6
94 341 2027 1433 897 532 114 49 9 0 0 0 3 42 45 57 38 37 38 17 0 0 0 0 0 0 4 9 24 18 12 6 0 0 0 0 0 0 0 8 30 1 4
153 695 1351 1697 1356 719 164 69 24 0 0 0 19 18 3 3 16 19 23 1 0 0 0 0 0 0 0 0 0 0 0 0 0 0 0 0 0 0 2 0 24 11 0
358 756 1369 1865 1381 763 227 101 29 3 0 0 1 13 13 16 38 24 28 1 0 0 0 0 0 0 0 0 0 0 0 0 0 0 0 0 0 0 0 14 7 20 8
448 905 1412 1832 1582 1072 433 167 60 8 0 0 2 15 27 28 36 13 3 0 0 0 0 0 0 0 0 0 1 6 6 0 0 0 0 0 0 0 0 0 12 44 17
895 1299 1591 1812 1656 1368 929 270 141 36 0 0 0 18 23 37 41 37 18 46 28 0 0 0 0 0 0 0 1 7 16 38 16 1 0 0 0 0 0 0 0 0 6
986 1451 1542 1881 1771 1586 1076 475 204 91 15 0 0 3 17 39 59 82 41 23 8 0 0 0 5 9 7 5 4 4 0 57 8 4 0 1 0 4 45 31 5 7 16
1166 1483 1583 1723 1873 1680 1249 896 422 118 42 0 0 0 5 22 23 149 96 44 15 0 6 0 11 18 6 6 25 38 45 96 6 6 4 2 0 18 99 128 131 66 35
1283 1491 1603 1554 1595 1587 1296 929 649 231 85 11 0 0 2 18 0 134 140 63 40 35 16 34 53 51 90 120 127 133 106 65 26 12 0 0 0 49 153 257 275 354 284
1169 1511 1702 1876 1718 1538 1103 892 689 441 302 113 95 19 5 0 0 12 100 100 54 36 64 63 155 197 94 44 30 2 0 0 0 0 0 0 0 135 206 258 282 348 432
1049 1456 1506 1646 1761 1507 1141 725 632 483 349 196 78 10 0 0 0 0 0 0 21 53 64 87 40 0 0 0 0 0 0 0 0 0 0 0 2 68 47 6 0 62 222
1169 1251 1511 1781 1535 1384 981 870 657 449 361 229 69 28 0 0 0 0 0 0 7 0 0 1 0 0 0 0 0 0 0 0 0 0 0 0 0 0 0 0 0 0 13
1162 1276 1221 1741 1601 1147 1173 893 661 602 436 265 92 13 0 0 0 0 0 0 2 6 2 1 0 0 0 0 0 0 0 0 0 0 0 0 0 0 0 0 9 18 0
887 1321 1225 2007 2376 1526 1147 891 621 515 413 252 124 25 0 0 0 0 8 1 9 5 9 0 0 0 0 0 0 0 0 0 0 0 0 0 0 0 5 0 0 0 0
254 1019 1363 1314 1807 1612 1061 814 584 405 357 244 89 15 0 0 0 42 11 2 4 0 0 0 0 0 0 0 0 0 0 0 0 0 0 0 0 0 0 0 0 0 0
28 141 755 1321 1435 1550 1249 805 565 425 320 179 82 31 14 2 33 48 12 2 0 0 0 0 0 0 0 0 0 0 0 0 0 0 0 0 0 0 0 0 0 0 0
0 0 12 735 1179 1475 1185 942 499 451 414 209 151 147 36 57 68 19 0 0 0 0 0 0 0 0 0 0 0 0 0 0 0 0 0 0 0 0 0 0 0 0 0
0 0 0 159 815 1132 1134 798 709 683 478 425 258 205 79 63 12 5 2 0 0 0 0 0 0 0 0 0 0 0 0 0 0 0 0 0 0 0 0 0 0 0 0
0 0 0 273 657 850 1085 852 872 792 509 322 295 176 93 57 5 1 0 0 0 0 0 0 0 0 0 0 0 0 0 0 0 0 0 0 0 0 0 0 0 0 0
0 0 70 393 482 848 1053 1070 1085 936 426 274 215 200 68 36 0 0 0 0 0 0 0 0 0 0 0 0 0 0 0 0 0 0 0 0 0 0 0 0 0 0 0
0 0 295 295 485 943 1052 1001 734 416 425 337 305 204 84 17 1 0 0 0 0 0 0 0 0 0 0 0 0 0 0 0 0 0 0 0 0 0 0 0 0 0 0
0 4 417 387 630 995 1032 848 418 377 291 259 215 195 60 10 0 0 0 0 0 0 0 0 0 0 0 0 0 0 0 0 0 0 0 0 0 0 0 0 0 0 0
0 0 519 571 828 1094 1032 770 385 525 316 167 155 110 23 0 0 0 0 0 0 0 0 0 0 0 0 0 0 0 0 0 0 0 0 0 0 0 0 0 0 0 0
0 0 374 819 1058 995 886 821 352 318 71 5 11 30 0 0 0 0 0 0 0 0 0 0 0 0 0 0 0 0 0 0 0 0 0 0 0 0 0 0 0 0 0
0 0 294 876 1012 971 1037 778 448 320 130 3 27 3 0 0 0 0 0 0 0 0 0 0 0 0 0 0 0 0 0 0 0 0 0 0 0 0 0 0 0 0 0
0 0 15 645 897 982 989 546 445 360 11 1 0 0 0 0 0 0 0 0 0 0 0 0 0 0 0 0 0 0 0 0 0 0 0 0 0 0 0 0 0 0 0

GFSSE_con_mucape_012.txt.gz
CAPE
110 1079 1905 948 723 358 133 36 11 0 0 0 0 16 75 86 50 28 12 3 0 0 0 1 0 14 60 57 59 23 13 4 0 0 0 0 0 0 0 9 34 15 2
212 970 1994 1175 757 434 117 47 18 0 0 0 5 39 62 75 55 45 40 15 0 0 0 0 0 0 9 11 21 23 16 5 0 0 0 0 0 0 0 0 14 13 0
372 990 1350 1590 1204 670 164 69 31 1 0 0 20 4 0 1 7 24 18 0 0 0 0 0 0 0 0 3 0 0 0 0 0 0 0 0 0 0 0 0 1 4 0
504 1247 964 1806 1410 695 262 95 42 18 0 0 18 8 1 12 25 0 0 0 0 0 0 0 0 0 0 0 0 0 0 0 0 0 0 0 0 0 0 0 0 26 3
707 1224 1205 1925 1465 914 397 141 46 25 0 0 0 13 16 22 6 25 4 0 0 0 0 0 0 0 0 0 2 17 24 13 0 1 2 1 0 0 0 0 13 25 74
728 1228 1739 1808 1603 1248 801 226 89 15 0 0 0 11 21 34 42 0 0 7 0 0 0 0 0 2 4 3 4 1 16 21 10 10 4 3 0 0 4 3 0 0 25
757 1152 1673 2014 1766 1429 880 411 214 46 0 0 0 6 11 39 66 53 13 6 0 0 0 0 4 5 5 0 4 17 17 14 0 12 16 19 19 0 40 76 84 38 27
894 1228 1295 1787 1835 1569 1178 757 376 122 38 0 0 0 6 17 23 109 35 13 1 0 0 0 15 26 26 58 84 86 71 51 24 56 50 55 15 15 100 201 294 329 197
989 1293 1203 1483 1379 1438 1267 1009 677 186 98 10 0 0 23 6 7 167 130 50 20 34 17 33 66 121 156 154 112 35 3 1 5 19 5 15 0 60 168 220 384 392 504
1129 1260 1267 1174 999 1339 1151 954 749 504 235 116 106 69 26 0 0 88 141 83 34 31 48 92 132 15 0 0 0 0 0 0 0 0 0 0 1 129 159 177 121 61 208
1211 1307 1391 1270 1335 1592 1153 774 607 468 247 122 88 16 0 0 0 0 0 0 15 48 30 27 0 0 0 0 0 0 0 0 0 0 0 0 0 0 0 0 0 0 3
1279 1296 1506 1526 1684 1521 1053 886 470 208 240 144 67 51 0 0 0 0 0 0 0 0 0 0 0 0 0 0 0 0 0 0 0 0 0 0 0 0 0 0 0 5 0
1213 1468 1549 1624 1817 1717 1347 988 620 382 448 367 176 118 0 0 0 0 1 5 57 1 1 0 0 0 0 0 0 0 0 0 0 0 0 0 0 0 0 13 0 0 0
1130 1470 1606 1676 1721 1714 1563 1175 842 537 513 465 305 152 19 0 1 0 37 54 1 0 0 0 0 0 0 0 0 0 0 0 0 0 0 0 0 0 0 0 0 0 0
830 1279 1593 1606 1639 1666 1682 1342 936 686 586 514 376 183 54 38 76 47 0 0 0 0 0 0 0 0 0 0 0 0 0 0 0 0 0 0 0 0 0 0 0 0 0
419 741 1438 1709 1739 1606 1863 1523 1212 832 579 625 466 152 138 120 132 0 1 3 0 0 0 0 0 0 0 0 0 0 0 0 0 0 0 0 0 0 0 0 0 0 0
6 89 461 1371 1722 1573 2135 1702 1312 913 671 641 408 253 209 33 5 13 10 2 0 0 0 0 0 0 0 0 0 0 0 0 0 0 0 0 0 0 0 0 0 0 0
0 0 0 80 1176 1654 2083 1716 1376 967 753 563 466 279 71 2 19 2 0 0 0 0 0 0 0 0 0 0 0 0 0 0 0 0 0 0 0 0 0 0 0 0 0
0 0 0 0 201 1039 1501 1556 1311 952 636 417 367 223 130 48 10 4 0 0 0 0 0 0 0 0 0 0 0 0 0 0 0 0 0 0 0 0 0 0 0 0 0
0 0 0 48 270 793 1255 1445 929 780 687 484 325 129 48 115 42 0 0 0 0 0 0 0 0 0 0 0 0 0 0 0 0 0 0 0 0 0 0 0 0 0 0
0 0 0 277 693 1013 1161 703 830 931 779 558 232 173 123 110 4 0 0 0 0 0 0 0 0 0 0 0 0 0 0 0 0 0 0 0 0 0 0 0 0 0 0
0 0 106 567 821 878 577 642 735 871 684 451 233 192 119 114 6 0 0 0 0 0 0 0 0 0 0 0 0 0 0 0 0 0 0 0 0 0 0 0 0 0 0
0 4 254 649 722 612 429 550 572 706 484 406 270 153 152 83 9 0 0 0 0 0 0 0 0 0 0 0 0 0 0 0 0 0 0 0 0 0 0 0 0 0 0
0 3 354 606 456 474 381 442 769 666 478 350 277 175 319 81 3 0 0 0 0 0 0 0 0 0 0 0 0 0 0 0 0 0 0 0 0 0 0 0 0 0 0
0 10 376 411 315 237 543 703 849 566 457 326 358 158 67 32 0 0 0 0 0 0 0 0 0 0 0 0 0 0 0 0 0 0 0 0 0 0 0 0 0 0 0
0 8 241 195 230 563 690 820 913 575 351 228 198 31 14 2 0 0 0 0 0 0 0 0 0 0 0 0 0 0 0 0 0 0 0 0 0 0 0 0 0 0 0

GFSSE_con_mucape_015.txt.gz
CAPE
253 1142 1716 823 546 272 136 6 1 0 0 0 4 43 61 60 32 0 1 3 0 0 0 0 3 21 60 74 52 37 31 20 0 0 0 0 0 0 0 7 21 16 11
596 1426 1627 1068 557 360 107 2 0 0 0 0 0 12 59 52 41 33 24 7 0 0 0 0 0 0 4 3 3 14 21 8 0 0 0 0 0 0 1 0 12 9 0
925 1255 1052 1419 1010 508 126 25 1 0 0 16 10 3 7 5 16 15 4 0 0 0 0 0 0 0 0 0 0 0 0 0 0 0 0 0 0 0 0 0 0 9 0
821 1159 976 1605 1251 665 239 74 36 0 0 8 7 0 0 0 0 0 0 0 0 0 0 0 0 0 0 0 0 0 0 0 0 0 0 0 0 0 0 0 5 3 24
795 1098 1293 1723 1439 841 375 103 63 3 0 0 0 0 0 3 0 0 0 0 0 0 0 0 0 0 0 0 0 5 26 30 0 1 6 5 0 2 0 0 0 3 35
869 1116 1340 1768 1464 1123 552 126 59 29 0 0 0 6 7 5 7 3 0 0 0 0 0 0 1 4 1 1 2 1 0 0 0 13 9 12 3 0 2 14 8 0 0
754 1666 1411 1805 1572 1275 711 246 107 30 8 2 0 0 24 27 49 38 1 9 0 0 0 0 2 10 2 0 13 24 12 5 1 24 19 31 53 15 37 56 111 154 64
747 1167 1524 1580 1591 1404 1020 636 223 49 18 7 3 0 12 1 92 55 17 11 0 1 0 2 10 21 53 108 128 97 36 13 1 11 21 19 15 24 84 111 235 327 352
760 995 1730 1550 1379 1310 1162 1009 615 195 70 25 16 0 59 3 115 121 55 21 1 0 0 37 124 130 75 37 4 0 0 0 0 0 0 1 0 34 93 74 212 158 128
803 1024 1137 1465 1485 1079 987 987 721 476 307 91 81 114 55 14 78 173 212 71 13 14 43 77 0 0 0 0 0 0 0 0 0 0 0 0 0 1 28 29 9 3 5
928 1076 1072 1061 938 1171 1085 759 683 480 207 173 98 33 0 0 0 0 1 10 25 14 31 0 0 0 0 0 0 0 0 0 0 0 0 0 0 0 0 0 0 1 40
1036 1117 1221 1142 1062 1409 1232 857 484 181 60 5 20 10 2 0 0 0 0 6 0 3 0 0 0 0 0 0 0 0 0 0 0 0 0 0 0 0 0 13 4 0 11
976 1198 1311 1448 1399 1283 957 1106 575 362 349 172 94 75 0 0 0 0 0 0 0 0 0 0 0 0 0 0 0 0 0 0 0 0 0 0 0 7 16 0 0 4 0
845 1154 1425 1597 1697 1727 1494 1140 766 463 448 386 209 113 0 0 0 0 0 46 12 0 0 0 0 0 0 0 0 0 0 0 0 0 0 0 0 0 0 0 0 0 0
560 977 1367 1670 1800 1850 1641 1371 984 562 553 489 382 247 12 0 8 10 5 0 0 0 0 0 0 0 0 0 0 0 0 0 0 0 0 0 0 0 0 0 0 0 0
311 714 1106 1536 1808 2135 1876 1603 1224 803 656 564 543 354 25 53 103 0 0 0 0 0 0 0 0 0 0 0 0 0 0 0 0 0 0 0 0 0 0 0 0 0 0
12 276 658 1268 1582 1710 2074 1797 1474 1193 731 657 873 336 127 209 61 0 0 0 0 0 0 0 0 0 0 0 0 0 0 0 0 0 0 0 0 0 0 0 0 0 0
0 0 118 630 1348 1633 1833 1931 1668 1332 914 731 880 553 295 86 0 0 0 0 0 0 0 0 0 0 0 0 0 0 0 0 0 0 0 0 0 0 0 0 0 0 0
0 0 0 2 473 1380 1629 1967 1772 1352 881 846 728 604 208 62 2 3 1 0 0 0 0 0 0 0 0 0 0 0 0 0 0 0 0 0 0 0 0 0 0 0 0
0 0 0 0 1 471 1589 1840 1563 1443 995 986 570 328 184 45 34 22 0 0 0 0 0 0 0 0 0 0 0 0 0 0 0 0 0 0 0 0 0 0 0 0 0
0 0 0 0 77 253 1051 1827 1395 1170 1118 675 656 311 167 47 72 21 0 0 0 0 0 0 0 0 0 0 0 0 0 0 0 0 0 0 0 0 0 0 0 0 0
0 0 0 1 120 546 1488 1548 1098 1283 736 646 644 360 177 151 61 39 0 0 0 0 0 0 0 0 0 0 0 0 0 0 0 0 0 0 0 0 0 0 0 0 0
0 0 0 38 347 909 1296 918 871 741 457 720 707 447 229 198 87 44 1 0 0 0 0 0 0 0 0 0 0 0 0 0 0 0 0 0 0 0 0 0 0 0 0
0 0 1 130 525 961 1110 668 309 303 508 720 655 405 319 231 117 189 7 0 0 0 0 0 0 0 0 0 0 0 0 0 0 0 0 0 0 0 0 0 0 0 0
0 0 19 160 565 849 779 864 177 170 507 646 533 350 354 244 144 119 0 0 0 0 0 0 0 0 0 0 0 0 0 0 0 0 0 0 0 0 0 0 0 0 0
0 2 40 276 584 770 829 351 57 177 439 614 497 393 437 180 326 69 0 0 0 0 0 0 0 0 0 0 0 0 0 0 0 0 0 0 0 0 0 0 0 0 0

GFSSE_con_mucape_018.txt.gz
CAPE
854 1156 1538 719 470 240 101 32 0 0 0 1 86 120 72 38 18 10 0 0 0 0 0 6 13 25 74 93 75 56 33 17 0 0 0 0 0 0 0 7 11 15 10
973 1000 1383 923 456 298 76 35 0 0 0 0 6 35 93 58 39 43 8 0 0 0 0 2 1 0 6 2 1 7 2 0 0 0 0 0 0 0 0 0 0 4 2
966 1080 968 1114 872 399 88 34 0 0 1 22 42 47 44 46 49 8 0 0 0 0 0 2 0 0 0 0 0 0 0 0 0 0 0 0 0 0 0 0 3 0 1
1225 811 705 1289 1034 416 99 48 0 0 6 0 0 0 0 0 0 0 0 0 0 0 0 0 0 0 0 0 0 0 0 0 0 2 0 0 0 0 0 0 0 6 10
1080 723 957 1448 1130 670 173 73 2 0 2 21 0 2 0 0 0 0 0 0 0 0 0 0 0 0 0 0 0 0 0 0 4 10 8 0 0 0 0 0 0 0 0
1021 967 1367 1513 1278 962 435 101 45 0 0 0 0 0 0 0 4 2 0 3 0 0 0 6 6 3 0 0 0 0 0 0 0 1 1 3 0 24 22 4 1 24 1
1095 1170 1266 1676 1377 1117 497 185 72 6 0 0 0 27 39 13 24 0 0 0 0 0 0 2 13 4 0 2 11 6 2 1 0 3 15 18 31 51 53 33 141 203 219
1497 1353 1132 1436 1440 1212 802 565 257 61 26 10 0 0 27 10 102 54 4 0 0 0 0 1 0 16 77 68 43 10 2 0 0 1 3 0 8 26 51 20 169 166 157
1399 1412 1066 1002 1100 1075 892 787 448 200 110 78 73 37 37 96 496 111 40 0 5 0 1 82 57 10 5 0 0 0 0 0 0 0 0 0 0 0 21 32 23 10 10
801 1388 1266 1144 957 823 791 839 652 508 240 145 90 221 41 57 370 292 199 111 2 10 49 0 0 0 0 0 0 0 0 0 0 0 0 0 0 0 0 0 0 0 60
793 990 1292 1272 1097 885 743 623 612 513 289 120 155 47 13 0 47 90 30 19 37 17 0 0 0 0 0 0 0 0 0 0 0 0 0 0 0 0 0 4 10 13 37
737 878 996 1370 1296 874 947 528 370 196 41 19 22 0 0 0 0 0 0 21 12 0 0 0 0 0 0 0 0 0 0 0 0 0 0 0 0 0 27 5 21 10 2
797 881 940 907 954 1092 1070 746 344 133 15 0 4 0 0 0 0 0 0 0 0 0 0 0 0 0 0 0 0 0 0 0 0 0 0 0 11 25 10 23 2 0 1
806 950 1019 1160 1258 1285 1097 987 497 299 186 120 66 46 2 0 0 0 0 0 0 0 0 0 0 0 0 0 0 0 0 0 0 0 0 0 0 0 6 0 0 0 0
722 942 1118 1267 1488 1321 1171 1035 604 481 381 315 255 117 40 0 0 0 2 1 0 0 0 0 0 0 0 0 0 0 0 0 0 0 0 0 0 0 0 0 0 0 0
103 726 1212 1393 1640 1657 1441 1262 924 712 489 445 355 203 95 0 0 1 8 0 0 0 0 0 0 0 0 0 0 0 0 0 0 0 0 0 0 0 0 0 0 0 0
0 406 821 1428 1681 1561 1468 1692 1834 854 613 552 553 310 151 45 31 4 1 0 0 0 0 0 0 0 0 0 0 0 0 0 0 0 0 0 0 0 0 0 0 0 0
0 0 564 1076 1565 1725 1457 1743 1779 1084 865 694 547 453 535 138 84 47 0 0 0 0 0 0 0 0 0 0 0 0 0 0 0 0 0 0 0 0 0 0 0 0 0
0 0 70 846 1296 1539 1605 1362 1422 1488 1021 723 609 450 562 199 187 6 0 0 0 0 0 0 0 0 0 0 0 0 0 0 0 0 0 0 0 0 0 0 0 0 0
0 0 0 76 1053 1356 1587 1336 1677 1664 1271 787 599 517 396 377 113 21 0 0 0 0 0 0 0 0 0 0 0 0 0 0 0 0 0 0 0 0 0 0 0 0 0
0 0 0 0 0 691 1584 1378 1664 1497 1099 1385 1094 815 539 286 95 40 4 0 0 0 0 0 0 0 0 0 0 0 0 0 0 0 0 0 0 0 0 0 0 0 0
0 0 0 0 0 0 1051 1573 1648 1342 1131 1177 850 984 644 249 123 70 6 1 0 0 0 0 0 0 0 0 0 0 0 0 0 0 0 0 0 0 0 0 0 0 0
0 0 0 0 0 0 98 1479 1437 1249 989 781 825 995 554 277 154 128 77 33 0 0 0 0 0 0 0 0 0 0 0 0 0 0 0 0 0 0 0 0 0 0 0
0 0 0 0 0 0 1194 1558 1312 1155 854 739 644 626 554 323 224 174 84 7 1 0 0 0 0 0 0 0 0 0 0 0 0 0 0 0 0 0 0 0 0 0 0
0 0 0 0 0 445 1047 1312 1217 963 628 564 671 614 576 379 325 159 211 62 7 0 0 0 0 0 0 0 0 0 0 0 0 0 0 0 0 0 0 0 0 0 0
0 0 0 0 10 641 1136 1091 861 589 324 454 249 788 532 403 398 222 79 65 5 0 0 0 0 0 0 0 0 0 0 0 0 0 0 0 0 0 0 0 0 0 0

GFSSE_con_mucape_021.txt.gz
CAPE
685 936 1425 637 398 229 126 63 22 0 108 237 280 226 31 15 8 3 0 0 0 0 3 10 16 75 83 82 66 43 21 0 0 0 0 0 0 0 0 6 12 8 7
842 915 1298 862 455 255 130 42 0 0 0 19 161 124 40 27 23 1 0 0 0 0 2 7 4 5 13 5 7 0 0 0 0 0 0 0 0 0 0 0 0 1 0
921 879 801 1026 850 287 91 34 0 0 0 2 18 155 64 54 12 0 0 0 0 1 5 4 1 0 0 0 0 0 0 0 0 0 0 0 0 0 0 0 0 0 0
889 784 618 1148 852 257 81 32 0 45 0 15 46 28 24 30 5 1 0 0 0 0 1 0 0 0 0 0 0 0 0 0 0 11 0 0 0 0 0 0 0 2 3
821 695 744 1223 878 370 111 28 9 32 0 10 30 15 0 2 13 4 1 0 0 0 2 3 1 0 0 0 0 0 0 0 1 1 0 1 0 3 0 0 0 0 0
723 651 1112 1197 1028 717 424 75 38 37 0 0 4 41 17 8 9 0 0 0 0 0 4 4 2 0 0 0 0 0 0 0 8 5 2 13 4 35 14 3 0 33 42
925 838 1063 1395 1220 869 667 363 63 67 0 22 51 22 6 6 14 3 0 0 0 0 0 6 4 0 0 1 0 0 0 0 0 2 13 16 14 33 14 4 66 205 177
994 891 1025 1297 1270 944 699 559 224 121 99 19 41 59 34 45 26 23 0 0 1 0 1 1 1 34 52 15 0 0 0 0 0 0 0 0 3 2 3 4 60 41 20
1132 1068 1093 973 949 853 650 496 319 238 204 171 116 112 40 297 457 72 10 8 0 0 35 64 41 5 0 0 0 0 0 0 0 0 0 0 0 0 0 0 1 0 84
1302 1269 965 866 829 661 522 551 378 304 306 294 237 229 58 314 418 378 212 170 0 10 28 0 0 0 0 0 0 0 0 0 0 0 0 0 0 0 0 0 0 58 70
1471 1119 860 818 810 641 573 460 451 383 210 215 210 66 11 195 191 115 46 56 90 57 0 0 0 0 0 0 0 0 0 0 0 0 0 0 0 0 25 22 44 32 24
1362 1259 1115 875 785 660 687 494 303 216 82 40 52 37 4 2 111 86 25 38 105 50 0 0 0 0 0 0 0 0 0 0 0 0 0 0 0 31 35 29 23 18 25
737 1509 1308 1086 984 808 732 448 294 184 56 17 12 10 0 0 9 28 0 0 1 0 0 0 0 0 0 0 0 0 0 0 0 0 0 4 7 11 25 15 7 3 3
579 779 1168 1316 1133 917 866 641 381 158 12 0 1 0 0 0 0 0 0 0 0 0 0 0 0 0 0 0 0 0 0 0 0 0 0 0 0 8 2 0 0 0 0
685 767 824 1217 1244 994 1055 812 716 318 96 41 61 80 7 0 0 0 0 7 0 0 0 0 0 0 0 0 0 0 0 0 0 0 0 0 0 0 0 0 0 0 0
470 845 960 964 1096 1141 1168 886 729 552 384 352 299 232 146 46 0 0 4 11 0 0 0 0 0 0 0 0 0 0 0 0 0 0 0 0 0 0 0 0 0 0 0
6 829 1018 1176 1348 1283 1167 993 730 580 587 491 411 299 229 49 0 0 3 45 0 0 0 0 0 0 0 0 0 0 0 0 0 0 0 0 0 0 0 0 0 0 0
0 151 1067 1263 1480 1634 1628 1281 983 823 753 570 519 583 393 229 71 46 54 41 0 0 0 0 0 0 0 0 0 0 0 0 0 0 0 0 0 0 0 0 0 0 0
0 0 819 1345 1607 1681 1751 1583 1182 967 984 698 590 466 432 249 121 106 75 33 0 0 0 0 0 0 0 0 0 0 0 0 0 0 0 0 0 0 0 0 0 0 0
0 0 0 1146 1621 1783 1574 1385 1352 1535 1083 1089 672 650 565 325 138 160 128 10 0 0 0 0 0 0 0 0 0 0 0 0 0 0 0 0 0 0 0 0 0 0 0
0 0 0 135 1409 1760 1637 1536 1383 1067 1329 1581 709 787 582 396 202 278 97 31 5 0 0 0 0 0 0 0 0 0 0 0 0 0 0 0 0 0 0 0 0 0 0
0 0 0 0 940 1458 1520 1625 1271 1302 1479 863 1002 821 845 468 321 263 113 36 22 1 0 0 0 0 0 0 0 0 0 0 0 0 0 0 0 0 0 0 0 0 0
0 0 0 0 62 1212 1448 1340 1351 1234 1109 1128 774 725 662 554 610 258 117 20 7 1 0 0 0 0 0 0 0 0 0 0 0 0 0 0 0 0 0 0 0 0 0
0 0 0 0 0 146 1356 1169 1388 1113 1001 1122 831 684 688 692 726 405 117 56 5 3 0 0 0 0 0 0 0 0 0 0 0 0 0 0 0 0 0 0 0 0 0
0 0 0 0 0 0 910 1167 1278 1182 848 960 871 644 600 585 712 435 130 74 9 5 8 0 0 0 0 0 0 0 0 0 0 0 0 0 0 0 0 0 0 0 0
0 0 0 0 0 65 657 677 939 1118 915 765 821 583 546 421 762 352 176 129 8 17 17 0 0 0 0 0 0 0 0 0 0 0 0 0 0 0 0 0 0 0 0

GFSSE_con_mucape_024.txt.gz
CAPE
418 809 1266 529 344 285 215 190 407 636 612 562 356 116 20 7 4 1 0 0 0 1 4 10 109 107 75 81 68 25 7 0 0 0 0 0 0 0 0 1 11 9 1
582 806 1172 719 392 303 173 111 104 347 490 458 368 112 30 18 7 0 0 0 0 0 5 8 20 56 42 20 1 0 0 0 0 0 0 0 0 0 0 0 0 0 0
768 764 689 963 709 300 104 52 45 56 162 330 302 87 34 22 3 0 0 0 1 4 10 7 5 4 1 0 0 0 0 0 0 0 0 0 0 0 0 0 0 0 0
728 711 516 993 516 165 93 58 47 53 34 49 307 154 66 6 0 0 0 0 0 2 1 1 0 0 0 0 0 0 0 0 2 4 0 0 0 0 0 0 0 2 3
729 575 555 1012 686 164 98 50 126 67 105 151 91 69 28 2 1 0 0 0 0 0 1 0 0 0 0 0 0 0 0 0 12 0 0 0 0 9 1 0 0 0 0
666 548 887 1013 831 506 193 165 104 2 0 18 54 28 14 7 6 4 0 0 0 2 4 1 0 0 0 0 0 0 0 7 0 0 3 3 9 37 10 0 17 49 56
627 614 839 1145 736 419 273 349 281 59 20 20 29 3 5 10 6 3 0 0 1 4 5 8 0 0 0 0 0 0 0 0 0 0 1 21 31 35 12 2 115 69 61
593 764 812 1095 971 791 425 293 414 242 70 64 100 58 37 44 30 29 0 0 2 1 11 10 11 35 36 0 0 0 0 0 0 0 0 0 5 2 2 9 7 0 63
752 724 806 866 773 780 692 315 275 362 290 395 383 315 276 306 187 89 27 31 0 7 45 89 86 21 0 0 0 0 0 0 0 0 0 0 0 0 0 0 0 47 50
977 862 862 873 692 500 450 475 297 308 359 290 411 238 83 339 407 341 210 208 19 95 74 35 9 0 0 0 0 0 0 0 0 0 0 0 0 0 0 0 36 68 56
1109 1065 926 864 683 499 415 298 357 340 348 286 266 57 163 319 244 203 91 165 168 187 31 1 0 0 0 0 0 0 0 0 0 0 0 0 0 29 44 58 40 51 36
1245 1164 981 768 661 517 467 333 213 150 106 102 111 39 66 269 233 133 113 70 246 221 15 0 0 0 0 0 0 0 0 0 0 0 0 0 26 52 42 34 41 35 26
1375 1326 974 811 681 558 536 394 233 160 53 50 67 47 3 107 233 134 78 37 75 4 0 0 0 0 0 0 0 0 0 0 0 0 0 25 26 46 26 18 8 6 1
1465 1314 1071 1014 887 712 588 455 288 206 70 13 29 33 12 0 95 146 55 0 0 0 0 0 0 0 0 0 0 0 0 0 0 0 0 0 10 2 6 0 0 0 0
933 1339 1303 1230 1094 1033 778 679 367 191 75 0 0 0 0 0 0 37 0 0 0 0 0 0 0 0 0 0 0 0 0 0 0 0 0 0 0 0 0 0 0 0 0
532 732 1396 1459 1246 1223 917 764 611 545 356 0 0 0 0 8 2 17 0 18 0 0 0 0 0 0 0 0 0 0 0 0 0 0 0 0 0 0 0 0 0 0 0
0 404 775 1387 1402 1387 1013 888 864 770 467 151 59 70 80 66 64 0 0 27 0 0 0 0 0 0 0 0 0 0 0 0 0 0 0 0 0 0 0 0 0 0 0
0 0 474 886 1314 1455 1147 1083 1028 912 645 455 385 354 293 207 136 0 15 40 23 21 0 0 0 0 0 0 0 0 0 0 0 0 0 0 0 0 0 0 0 0 0
0 0 32 731 1003 1237 1201 1245 1120 1062 745 707 536 505 405 288 178 36 12 32 57 28 0 0 0 0 0 0 0 0 0 0 0 0 0 0 0 0 0 0 0 0 0
0 0 0 495 1061 1197 1187 1235 1128 1012 874 815 778 585 398 312 278 117 58 66 52 14 2 0 0 0 0 0 0 0 0 0 0 0 0 0 0 0 0 0 0 0 0
0 0 0 58 945 1310 1287 1175 1171 1143 942 1010 797 652 676 486 471 89 60 100 108 0 0 0 0 0 0 0 0 0 0 0 0 0 0 0 0 0 0 0 0 0 0
0 0 0 0 585 1343 1286 1232 1131 1215 1018 982 1087 749 949 792 946 665 139 180 60 0 0 0 0 0 0 0 0 0 0 0 0 0 0 0 0 0 0 0 0 0 0
0 0 0 0 24 1233 1410 1328 1121 958 887 979 1015 1012 666 684 582 930 591 249 81 0 0 0 0 0 0 0 0 0 0 0 0 0 0 0 0 0 0 0 0 0 0
0 0 0 0 0 757 1366 1286 1026 720 640 835 1031 918 571 509 681 649 249 333 126 0 0 4 0 0 0 0 0 0 0 0 0 0 0 0 0 0 0 0 0 0 0
0 0 0 0 0 0 1239 1170 1199 762 460 663 927 817 605 469 395 360 446 455 434 41 0 5 2 0 0 0 0 0 0 0 0 0 0 0 0 0 0 0 0 0 0
0 0 0 0 0 0 751 1099 952 778 593 645 821 689 675 493 432 405 610 595 372 124 10 15 1 2 0 0 0 0 0 0 0 0 0 0 0 0 0 0 0 0 0

GFSSE_con_mucape_027.txt.gz
CAPE
216 664 1355 615 622 483 566 737 680 962 986 505 244 93 22 1 0 0 0 0 0 0 4 90 60 66 55 62 54 9 0 0 0 0 0 0 0 0 1 0 0 3 0
432 709 1174 589 482 420 519 706 967 1132 1049 597 254 63 36 9 0 0 0 0 2 4 12 63 109 144 65 21 1 0 0 0 0 0 0 0 0 0 0 0 0 0 0
598 598 456 558 396 355 277 348 520 631 674 533 276 129 50 15 1 0 0 0 1 7 11 18 9 15 3 0 0 0 0 0 0 0 0 0 0 0 0 0 0 0 0
605 582 427 654 409 298 133 100 147 324 523 498 247 116 58 5 0 0 0 0 4 11 8 4 3 1 0 0 0 0 0 0 0 0 0 0 0 0 0 0 0 2 1
619 498 501 954 631 171 106 73 59 76 91 453 285 184 22 0 0 0 0 0 0 1 1 0 0 0 0 0 0 0 0 0 0 0 0 0 0 10 6 0 0 0 0
626 442 800 887 511 372 124 137 194 211 239 383 348 115 29 1 0 0 0 0 0 2 1 0 0 0 0 0 0 0 4 0 0 0 0 0 0 49 11 0 44 89 90
566 480 714 950 526 233 189 433 145 81 148 120 71 77 60 22 16 0 0 0 1 4 4 2 0 0 2 2 0 0 0 0 0 0 0 1 22 28 4 4 37 15 57
532 614 684 764 731 462 336 493 311 205 95 110 167 84 65 51 48 14 0 0 0 3 27 7 7 30 21 0 0 0 0 0 0 0 0 0 0 0 8 1 0 40 127
568 665 676 627 600 563 401 501 347 309 254 269 254 256 255 222 167 63 23 13 1 35 52 51 119 43 0 0 0 0 0 0 0 0 0 0 0 0 0 0 0 67 29
659 679 729 711 606 529 289 315 416 364 394 446 460 370 263 268 303 285 183 187 16 84 236 163 63 0 0 0 0 0 0 0 0 0 0 0 0 0 0 2 126 67 25
870 721 781 736 603 508 426 219 277 360 339 359 353 156 75 159 261 221 103 207 170 279 109 59 0 0 0 0 0 0 0 0 0 0 0 0 1 60 99 64 68 35 21
1045 794 778 773 684 445 359 254 157 174 213 166 203 66 127 322 310 211 136 171 312 340 109 0 0 0 0 0 0 0 0 0 0 0 0 0 43 54 51 43 34 30 20
1142 975 905 802 706 441 354 257 155 134 156 118 98 55 96 336 327 228 163 127 146 137 0 0 0 0 0 0 0 0 0 0 0 0 0 46 41 34 20 14 7 1 2
1243 1144 931 854 737 550 388 290 158 116 97 84 70 48 0 278 296 235 152 68 28 7 0 0 0 0 0 0 0 0 0 0 0 0 0 21 7 1 2 0 0 0 0
1209 1278 1196 1050 855 742 624 371 243 110 81 44 47 59 20 0 137 179 126 48 1 0 0 0 0 0 0 0 0 0 0 0 0 0 0 0 0 0 0 0 0 0 0
1194 1347 1334 1246 994 907 836 645 553 376 129 48 10 39 35 3 0 88 122 19 0 0 0 0 0 0 0 0 0 0 0 0 0 0 0 0 0 0 0 0 0 0 0
513 715 1275 1257 1112 1118 1044 1006 769 595 249 176 56 0 7 0 0 0 56 3 30 0 0 0 0 0 0 0 0 0 0 0 0 0 0 0 0 0 0 0 0 0 0
55 66 305 1153 1141 1244 1244 1138 1003 737 623 570 193 6 1 0 5 19 14 0 53 17 7 0 0 0 0 0 0 0 0 0 0 0 0 0 0 0 0 0 0 0 0
0 0 0 464 1293 1305 1345 1191 1140 951 812 809 521 149 117 174 179 152 68 0 34 16 30 3 0 0 0 0 0 0 0 0 0 0 0 0 0 0 0 0 0 0 0
0 0 0 129 866 1271 1200 1202 1108 1083 1031 880 694 442 396 403 275 210 137 46 27 18 33 6 0 0 0 0 0 0 0 0 0 0 0 0 0 0 0 0 0 0 0
0 0 0 10 475 921 1061 1008 937 869 1045 1100 815 696 614 559 317 254 276 69 43 48 48 0 0 0 0 0 0 0 0 0 0 0 0 0 0 0 0 0 0 0 0
0 0 0 0 132 775 915 952 808 733 814 1093 880 802 852 763 398 226 316 164 56 203 81 0 0 0 0 0 0 0 0 0 0 0 0 0 0 0 0 0 0 0 0
0 0 0 0 0 529 983 1009 893 824 725 835 930 958 903 833 432 537 401 315 402 98 128 0 0 0 0 0 0 0 0 0 0 0 0 0 0 0 0 0 0 0 0
0 0 0 0 0 0 982 1039 985 700 568 614 728 883 905 844 481 615 630 336 399 252 253 6 0 0 0 0 0 0 0 0 0 0 0 0 0 0 0 0 0 0 0
0 0 0 0 0 0 402 1058 783 726 524 512 570 787 808 819 592 470 433 391 415 274 276 124 3 0 0 0 0 0 0 0 0 0 0 0 0 0 0 0 0 0 0
0 0 0 0 0 0 8 983 1004 790 629 561 520 647 596 627 606 450 367 388 402 352 281 146 44 0 1 1 0 0 0 0 0 0 0 0 0 0 0 0 0 0 0

GFSSE_con_mucape_030.txt.gz
CAPE
52 484 1510 924 924 657 843 1068 1266 1412 1200 819 529 170 43 5 2 0 0 0 0 1 68 29 65 63 54 57 25 0 0 0 0 0 0 0 0 1 2 0 8 0 0
134 643 1381 1214 828 661 751 1046 1270 1312 1158 576 334 100 25 2 0 0 0 0 0 0 62 86 127 85 63 20 0 0 0 0 0 0 0 0 0 0 0 0 0 0 4
424 633 532 1202 952 763 1082 1024 1024 1026 1061 762 229 99 21 2 0 0 0 0 3 2 47 46 28 6 7 0 0 0 0 0 0 0 0 0 0 0 0 0 0 0 0
532 476 236 664 771 450 590 663 763 833 831 531 300 126 46 1 0 0 1 3 7 18 32 12 3 6 1 0 1 1 1 0 0 0 0 0 0 0 0 0 0 0 0
499 360 167 745 628 450 306 293 407 607 746 598 321 152 49 0 0 0 1 3 5 2 1 0 0 0 0 1 1 0 0 0 0 0 0 0 0 13 2 0 0 0 0
530 383 507 886 671 407 218 118 126 142 308 634 337 117 29 0 0 0 0 2 3 1 1 0 0 0 0 2 1 0 0 0 0 0 0 0 4 45 9 2 110 100 124
511 428 682 922 469 211 175 362 401 208 265 551 412 136 61 19 0 0 0 0 3 5 3 0 1 6 17 16 1 0 0 0 0 0 0 0 5 19 0 27 0 100 139
505 586 536 621 626 391 416 454 349 341 328 263 290 221 109 57 24 0 0 0 2 10 35 18 35 60 4 0 0 0 0 0 0 0 0 0 0 0 1 0 9 88 58
506 605 557 480 455 433 478 445 268 330 296 308 313 289 260 225 133 42 14 8 15 57 62 86 160 28 0 0 0 0 0 0 0 0 0 0 0 0 0 0 97 64 32
560 583 535 497 419 253 283 483 367 319 278 332 344 315 239 243 297 167 160 126 27 101 153 219 69 0 0 0 0 0 0 0 0 0 0 0 0 0 1 104 69 33 23
550 536 578 530 465 269 164 282 341 328 279 299 315 249 192 169 206 188 92 164 127 267 177 109 1 0 0 0 0 0 0 0 0 0 0 0 28 83 78 48 33 27 12
739 581 546 518 514 426 259 144 214 208 203 232 250 191 153 133 205 211 115 176 230 298 159 13 0 0 0 0 0 0 0 0 0 0 0 8 54 61 38 28 19 18 5
1163 810 625 958 591 528 379 213 110 176 183 160 195 178 38 209 238 262 153 182 142 163 4 0 0 0 0 0 0 0 0 0 0 0 4 48 33 25 15 10 1 0 0
1126 988 748 1151 1074 700 484 287 144 104 172 158 122 116 35 269 334 288 187 158 69 73 0 0 0 0 0 0 0 0 0 0 0 0 0 15 3 0 0 0 0 0 0
1441 1371 1191 1310 1415 934 600 379 207 97 96 136 124 86 68 179 331 311 186 120 22 15 0 0 0 0 0 0 0 0 0 0 0 0 0 0 0 0 0 0 0 0 0
1008 996 1060 1147 1606 1384 756 621 479 222 143 69 85 92 67 23 175 255 171 106 48 2 0 0 0 0 0 0 0 0 0 0 0 0 0 0 0 0 0 0 0 0 0
537 990 1146 1169 1156 1362 947 784 690 504 461 313 126 29 53 40 3 43 104 100 37 0 0 0 0 0 0 0 0 0 0 0 0 0 0 0 0 0 0 0 0 0 0
0 296 836 1133 1166 1257 1115 969 928 832 706 559 207 67 6 29 16 0 29 65 8 0 0 0 0 0 0 0 0 0 0 0 0 0 0 0 0 0 0 0 0 0 0
0 0 152 790 1012 1120 1126 1071 1014 899 833 732 471 394 321 8 5 0 0 6 8 1 24 0 0 0 0 0 0 0 0 0 0 0 0 0 0 0 0 0 0 0 0
0 0 0 1 875 1027 1045 1054 963 988 942 923 705 678 566 142 55 19 88 87 30 17 27 0 9 0 0 0 0 0 0 0 0 0 0 0 0 0 0 0 0 0 0
0 0 0 0 2 853 915 962 910 918 907 1044 1001 739 762 444 195 225 206 128 71 30 16 32 12 0 0 0 0 0 0 0 0 0 0 0 0 0 0 0 0 0 0
0 0 0 0 0 251 795 793 723 739 695 946 1019 963 925 692 412 397 270 103 94 35 64 49 174 0 0 0 0 0 0 0 0 0 0 0 0 0 0 0 0 0 0
0 0 0 0 0 29 549 740 769 812 753 724 735 878 1024 865 684 526 419 146 85 214 34 14 124 0 0 0 0 0 0 0 0 0 0 0 0 0 0 0 0 0 0
0 0 0 0 0 0 321 621 537 569 586 692 679 732 902 963 772 656 643 233 191 186 113 123 141 29 0 0 0 0 0 0 0 0 0 0 0 0 0 0 0 0 0
0 0 0 0 0 0 0 638 679 558 483 527 613 654 696 930 839 676 630 412 282 239 265 308 217 164 10 3 0 0 0 0 0 0 0 0 0 0 0 0 0 0 0
0 0 0 0 0 0 0 97 684 538 520 568 636 611 570 711 711 518 634 506 329 327 299 338 259 219 137 28 1 0 1 0 0 0 0 0 0 0 0 0 0 0 0

GFSSE_con_mucape_033.txt.gz
CAPE
60 1007 1480 1247 1485 1331 1292 1349 1662 1588 1558 1115 775 390 66 15 1 0 0 0 0 12 33 40 65 61 64 16 0 0 0 0 0 0 0 0 0 2 2 2 0 0 0
88 882 1264 1235 1013 941 1300 1790 1733 1631 1539 993 522 135 36 4 0 0 0 0 0 58 85 72 72 67 39 0 0 0 0 0 0 0 0 0 0 0 0 0 0 0 3
312 867 555 1228 1164 1104 1328 1355 1495 1388 1214 750 387 107 27 2 0 0 0 0 0 63 87 98 36 1 0 0 0 0 0 0 0 0 0 0 0 0 0 0 0 0 0
638 681 372 1081 1169 1296 1422 1506 1399 1206 845 824 322 80 28 0 0 0 0 0 0 36 25 10 5 2 0 0 1 3 0 0 0 0 0 0 0 3 0 0 0 0 0
642 384 224 882 842 634 850 895 1031 1051 866 619 334 112 29 0 0 0 3 6 6 22 6 1 1 0 1 3 6 4 0 0 0 0 0 0 8 17 2 1 7 0 0
533 262 422 885 764 684 679 541 666 765 934 698 451 129 9 0 1 1 3 2 0 0 0 0 0 0 0 2 6 0 0 0 0 0 0 0 31 31 6 50 41 95 174
504 342 307 957 719 485 417 398 484 364 602 756 361 109 20 0 1 1 1 1 3 1 0 1 8 27 23 5 0 0 0 0 0 0 1 8 4 11 15 0 132 154 128
537 500 416 727 605 493 406 481 453 352 267 730 542 163 62 5 1 0 1 9 13 19 16 39 61 31 0 0 0 0 0 0 0 0 0 0 0 0 0 0 81 49 13
609 625 547 436 372 417 554 516 463 589 706 650 562 437 216 173 47 0 11 21 36 103 88 99 83 0 0 0 0 0 0 0 0 0 0 0 0 0 0 42 54 30 10
738 622 527 470 384 220 337 339 274 397 370 402 345 257 189 175 179 101 77 70 63 133 139 187 11 0 0 0 0 0 0 0 0 0 0 0 0 0 57 62 47 28 17
657 681 575 507 427 221 321 235 233 266 242 240 209 167 115 139 160 115 55 91 125 256 224 95 0 0 0 0 0 0 0 0 0 0 0 0 99 102 49 26 17 10 9
665 826 523 573 484 254 189 281 234 187 210 211 210 237 203 220 253 182 83 113 168 245 177 11 0 0 0 0 0 0 0 0 0 0 0 38 61 44 18 4 1 0 0
1039 953 440 493 501 456 214 210 237 224 210 255 252 222 159 153 222 283 226 240 187 77 3 0 0 0 0 0 0 0 0 0 0 0 15 56 30 19 2 0 0 0 0
1426 1127 1168 852 722 449 469 255 157 172 189 194 207 188 128 160 217 288 244 236 169 68 0 0 0 0 0 0 0 0 0 0 0 0 0 5 3 0 0 0 0 0 0
1361 1386 1256 828 1272 907 533 461 303 129 168 176 149 138 113 146 226 225 202 156 111 9 0 0 0 0 0 0 0 0 0 0 0 0 0 0 0 0 0 0 0 0 0
915 853 1102 1329 1307 954 857 572 482 295 160 125 121 105 63 75 199 208 202 131 66 0 0 0 0 0 0 0 0 0 0 0 0 0 0 0 0 0 0 0 0 0 0
381 844 846 704 1360 1238 1006 1324 701 579 391 210 143 70 55 30 93 187 212 139 66 24 0 0 0 0 0 0 0 0 0 0 0 0 0 0 0 0 0 0 0 0 0
0 12 737 820 761 1006 1371 1377 1330 750 637 528 384 222 138 26 19 50 87 91 52 44 0 0 0 0 0 0 0 0 0 0 0 0 0 0 0 0 0 0 0 0 0
0 0 0 628 988 884 985 1413 1561 1293 734 705 667 587 330 80 34 19 1 19 40 41 0 0 0 0 0 0 0 0 0 0 0 0 0 0 0 0 0 0 0 0 0
0 0 0 0 548 1089 940 1013 847 1325 815 848 810 775 645 280 200 121 2 0 15 22 0 0 0 0 0 0 0 0 0 0 0 0 0 0 0 0 0 0 0 0 0
0 0 0 0 0 759 901 728 853 577 680 851 960 838 837 633 520 336 57 31 8 58 45 0 0 2 1 0 0 0 0 0 0 0 0 0 0 0 0 0 0 0 0
0 0 0 0 0 0 658 708 536 540 586 757 607 875 915 897 713 588 154 64 96 107 42 2 4 5 2 0 0 0 0 0 0 0 0 0 0 0 0 0 0 0 0
0 0 0 0 0 0 41 734 448 406 348 366 649 647 812 960 839 748 458 147 150 146 35 10 4 30 51 0 0 0 0 0 0 0 0 0 0 0 0 0 0 0 0
0 0 0 0 0 0 3 420 433 144 196 282 392 479 676 787 870 818 719 404 239 215 83 56 36 10 22 13 0 0 0 0 0 0 0 0 0 0 0 0 0 0 0
0 0 0 0 0 0 0 220 572 444 499 564 356 393 547 649 726 782 766 633 537 384 178 92 67 60 76 81 6 0 0 0 0 0 0 0 0 0 0 0 0 0 0
0 0 0 0 0 0 0 0 280 500 479 491 391 431 473 525 618 655 695 686 688 598 278 224 153 134 229 161 57 10 5 4 0 0 0 0 0 0 0 0 0 0 0

GFSSE_con_mucape_036.txt.gz
CAPE
580 1139 1789 1960 1527 1467 1493 1561 1646 1749 1678 1181 1007 558 262 34 1 0 0 2 0 0 10 65 57 43 37 10 0 0 0 0 0 0 0 0 1 4 5 0 0 1 0
600 903 1432 1701 1870 1915 1857 2036 1876 1863 1700 1202 674 215 34 7 0 0 0 0 1 50 40 71 68 42 0 0 0 0 0 0 0 0 0 0 0 0 0 0 0 2 2
753 594 336 1530 1636 1887 2044 1956 1916 1811 1547 881 448 123 21 4 0 0 0 0 64 196 93 70 21 0 0 0 0 0 0 0 0 0 0 0 0 0 0 0 0 0 1
684 548 354 1085 959 1285 1793 1752 1750 1467 1360 767 349 49 1 0 0 0 0 0 64 50 23 11 3 0 0 0 1 1 0 0 0 0 1 10 9 0 0 0 0 0 0
737 601 522 939 935 1363 1481 1650 1533 1362 1117 763 435 69 0 0 0 1 1 1 21 9 5 2 0 1 0 3 3 1 0 0 0 0 7 25 30 6 3 93 38 10 11
679 519 490 933 903 1259 1000 1278 1406 1177 894 604 360 54 0 0 0 2 4 0 0 0 0 0 0 0 0 7 3 0 0 0 0 1 7 10 32 2 17 1 153 233 187
533 379 350 876 863 738 648 646 904 1047 1017 658 269 53 0 0 1 2 1 0 0 0 0 0 3 7 4 0 0 0 0 0 5 4 17 13 22 13 1 127 175 148 121
573 390 308 604 758 570 506 531 589 578 953 899 511 92 8 0 2 1 2 4 2 2 5 22 53 1 0 0 0 0 0 0 4 12 3 0 0 0 0 83 39 6 15
668 448 306 353 290 398 477 474 496 423 513 924 544 375 189 61 12 1 24 32 49 59 65 101 5 0 0 0 0 0 0 0 0 0 0 0 0 0 0 115 38 26 18
816 550 388 333 230 172 189 429 349 550 834 767 481 335 198 135 97 40 99 80 116 157 170 92 0 0 0 0 0 0 0 0 0 0 0 0 0 1 100 52 38 23 8
872 700 473 299 173 140 182 169 185 240 252 265 234 163 93 73 45 23 18 84 159 178 241 26 0 0 0 0 0 0 0 0 0 0 0 40 118 77 44 21 11 7 1
832 743 600 362 185 162 146 195 95 91 159 173 166 145 106 95 89 39 24 66 198 268 213 5 0 0 0 0 0 0 0 0 0 0 0 88 36 24 8 2 2 0 0
1165 706 572 429 300 240 155 194 173 101 126 146 135 112 107 123 198 196 121 117 94 68 88 0 0 0 0 0 0 0 0 0 0 0 24 85 32 11 0 0 0 0 0
1057 657 967 584 418 365 302 208 209 147 134 134 135 130 182 230 243 233 221 129 92 83 37 0 0 0 0 0 0 0 0 0 0 0 12 16 2 0 0 0 0 0 0
697 1054 653 485 462 331 382 507 309 248 157 114 153 149 153 197 268 264 235 191 153 90 8 0 0 0 0 0 0 0 0 0 0 0 7 0 0 0 0 0 0 0 0
1016 901 682 615 535 403 839 749 700 479 240 163 126 142 167 146 200 236 219 256 175 139 20 0 0 0 0 0 0 0 0 0 0 0 0 0 0 0 0 0 0 0 0
203 751 1092 945 813 628 608 582 657 874 573 302 187 124 120 102 127 195 279 296 224 155 41 0 0 0 0 0 0 0 0 0 0 0 0 0 0 0 0 0 0 0 0
57 55 46 578 1034 870 763 938 724 854 875 742 439 223 130 84 73 149 233 306 290 146 23 0 0 0 0 0 0 0 0 0 0 0 0 0 0 0 0 0 0 0 0
8 0 0 0 469 894 979 1026 1016 835 1027 1081 851 517 331 287 154 65 135 188 187 126 0 0 0 0 0 0 0 0 0 0 0 0 0 0 0 0 0 0 0 0 0
0 0 0 0 0 296 957 1228 963 1113 647 1078 1071 875 577 496 387 126 49 81 117 83 0 0 0 0 0 0 0 0 0 0 0 0 0 0 0 0 0 0 0 0 0
0 0 0 0 0 0 200 932 1058 1238 986 990 1109 1038 855 606 528 403 172 122 82 48 0 0 0 13 0 0 0 0 0 0 0 0 0 0 0 0 0 0 0 0 0
0 0 0 0 0 0 0 229 750 868 822 746 482 1031 911 741 566 518 450 307 179 54 22 11 60 46 0 0 0 0 0 0 0 0 0 0 0 0 0 0 0 0 0
0 0 0 0 0 0 0 0 396 770 821 711 565 476 629 862 621 501 466 483 267 125 80 67 110 46 7 0 0 0 0 0 0 0 0 0 0 0 0 0 0 0 0
0 0 0 0 0 0 0 0 0 351 379 365 367 567 519 596 670 658 400 532 457 209 117 71 156 46 5 1 0 2 0 0 0 0 0 0 0 0 0 0 0 0 0
0 0 0 0 0 0 0 0 0 20 26 49 216 529 539 458 755 474 333 364 470 515 240 98 232 67 30 16 15 37 17 3 1 0 0 0 0 0 0 0 0 0 0
0 0 0 0 0 0 0 0 0 0 57 77 382 781 773 663 511 611 296 245 385 496 518 210 253 157 85 40 55 47 41 45 11 2 0 0 0 0 0 0 0 0 0

GFSSE_con_mucape_039.txt.gz
CAPE
990 1034 2365 1927 1319 1745 1476 1756 1597 1631 1509 1167 965 632 341 40 4 5 2 2 0 0 49 45 45 20 10 0 0 0 0 0 0 3 2 0 3 3 0 0 10 2 0
1149 874 2158 1945 1663 1667 1821 2014 1943 1711 1668 1294 714 381 45 1 0 0 0 0 34 34 73 62 33 0 0 0 0 0 0 0 0 0 0 0 0 0 0 0 0 0 0
977 602 559 1996 1970 2152 2178 1896 1962 1818 1567 928 461 153 13 0 0 0 0 32 123 71 90 34 1 0 0 0 0 0 0 0 0 0 0 1 0 0 0 0 0 0 0
757 445 480 1487 1652 2108 2046 2148 1858 1585 1235 696 233 16 0 0 0 0 0 53 67 63 40 16 0 0 0 1 2 1 0 0 0 0 4 10 3 0 7 20 0 0 0
611 351 645 1162 1320 1883 1975 1809 1638 1658 1177 621 227 0 0 0 0 0 2 30 18 12 9 4 0 0 0 2 3 0 0 0 0 2 15 28 23 2 37 102 42 78 5
577 475 445 715 797 1081 1335 1654 1486 1115 824 354 124 2 0 0 2 4 8 1 0 0 0 0 0 0 0 5 0 0 0 0 0 10 25 22 21 18 2 157 234 278 210
490 552 375 853 1010 864 960 1225 1507 1299 878 441 150 3 0 1 3 3 0 0 0 0 0 0 1 3 2 0 0 0 0 0 7 9 15 18 3 1 7 220 80 90 84
419 455 338 502 552 688 578 575 948 1042 1046 576 274 39 0 0 1 1 0 0 0 0 0 21 8 0 0 0 0 0 0 0 12 9 1 0 0 0 1 34 7 10 14
478 319 299 247 269 375 428 401 494 458 889 826 377 186 72 27 6 0 1 5 9 17 45 79 0 0 0 0 0 0 0 0 0 0 0 0 0 0 52 53 39 16 12
650 350 295 277 207 134 123 321 339 271 363 751 375 232 84 23 33 35 71 48 124 101 122 9 0 0 0 0 0 0 0 0 0 0 0 0 0 3 73 45 29 18 4
769 532 345 242 164 92 86 129 159 270 511 386 202 114 21 2 0 0 7 82 126 151 191 0 0 0 0 0 0 0 0 0 0 0 0 145 85 95 27 10 8 7 3
742 673 426 213 136 89 100 157 88 123 176 210 215 156 64 20 4 0 0 41 136 283 154 0 0 0 0 0 0 0 0 0 0 0 7 120 31 15 3 0 0 0 0
1050 702 554 387 156 90 90 161 73 69 89 130 134 151 86 41 61 20 41 0 76 90 89 0 0 0 0 0 0 0 0 0 0 0 10 69 18 2 0 0 0 0 0
815 1248 698 493 348 194 156 147 158 97 84 106 106 80 53 95 153 72 51 27 2 128 92 8 0 0 0 0 0 0 0 0 0 2 1 15 11 0 0 0 0 0 0
798 628 1044 671 517 364 279 233 226 206 114 91 90 104 85 150 244 174 109 97 59 39 41 2 0 0 0 0 0 0 0 0 0 0 1 0 0 0 0 0 0 0 0
675 784 670 1269 562 608 371 515 667 445 332 139 100 116 79 106 168 325 214 247 187 112 54 6 0 0 0 0 0 0 0 0 0 0 0 0 0 0 0 0 0 0 0
507 805 938 863 809 771 722 448 553 990 626 426 200 104 95 88 104 106 161 230 219 179 97 19 0 0 0 0 0 0 0 0 0 0 0 0 0 0 0 0 0 0 0
0 0 308 842 962 972 914 926 1196 796 1018 806 539 326 151 110 103 114 177 278 177 466 160 55 0 0 0 0 0 0 0 0 0 0 0 0 0 0 0 0 0 0 0
0 0 0 0 238 837 1044 950 1143 1003 1116 1189 985 751 475 254 123 108 172 280 226 208 142 86 0 0 0 0 0 0 0 0 0 0 0 0 0 0 0 0 0 0 0
0 0 0 0 0 5 405 771 923 1399 1256 1038 1180 1236 878 652 456 293 162 169 264 303 102 55 0 0 0 0 0 0 0 0 0 0 0 0 0 0 0 0 0 0 0
0 0 0 0 0 0 0 190 1021 924 654 1332 1156 1118 1213 1016 723 591 405 218 222 236 185 42 0 0 0 0 0 0 0 0 0 0 0 0 0 0 0 0 0 0 0
0 0 0 0 0 0 0 0 399 944 546 785 928 974 862 1251 1112 911 671 458 256 245 196 53 18 0 0 0 4 0 0 0 0 0 0 0 0 0 0 0 0 0 0
0 0 0 0 0 0 0 0 0 310 983 904 644 912 798 820 1276 919 863 707 507 324 256 129 65 33 26 12 53 1 0 0 0 0 0 0 0 0 0 0 0 0 0
0 0 0 0 0 0 0 0 0 0 204 719 657 905 868 691 819 1012 834 732 622 404 272 206 88 78 52 57 68 19 2 0 0 0 0 0 0 0 0 0 0 0 0
0 0 0 0 0 0 0 0 0 0 0 168 303 288 336 775 536 618 841 948 597 440 340 192 139 112 89 74 150 43 9 1 3 0 0 0 0 0 0 0 0 0 0
0 0 0 0 0 0 0 0 0 0 0 0 100 132 214 486 846 419 647 684 780 439 340 268 206 148 161 105 157 57 26 13 16 29 4 0 0 6 0 0 0 0 0

GFSSE_con_mucape_042.txt.gz
CAPE
663 1163 2102 1963 2497 2379 2180 1854 1995 1904 1695 1180 835 561 218 59 2 1 0 0 6 31 74 44 21 2 0 0 0 0 0 5 1 13 18 4 1 0 0 4 19 2 3
717 1171 2166 1965 2069 2193 2300 2147 1924 1578 1531 1212 767 265 15 2 0 0 0 1 14 52 63 23 0 0 0 0 0 0 0 0 0 0 0 0 0 0 0 0 0 1 0
742 768 1211 1986 2070 2122 2331 2039 1908 1554 1690 1212 491 103 0 0 0 0 4 88 68 76 50 2 0 0 0 0 0 0 0 0 0 0 7 0 0 0 0 0 0 0 0
587 526 836 1980 2181 2297 2263 1997 1851 1720 1349 712 195 21 0 0 0 0 81 73 138 51 17 0 0 0 2 3 1 0 0 0 0 2 12 13 0 45 120 2 0 0 0
499 371 747 1506 2098 2137 2203 2022 1850 1502 979 552 63 0 0 0 0 4 65 23 21 14 15 0 0 2 3 4 0 0 0 0 1 4 9 8 22 4 132 205 172 191 256
276 493 761 1064 1658 1864 1725 1715 1712 1163 637 356 34 0 0 0 2 18 12 2 0 0 0 0 0 0 2 0 0 0 0 0 7 7 10 26 0 5 133 192 187 179 203
445 424 239 1018 1240 1050 1189 1449 1267 811 789 318 57 0 0 1 5 10 1 0 0 0 0 0 2 3 0 0 0 0 0 0 0 3 0 0 0 1 104 94 107 108 43
572 416 178 710 834 833 807 933 1266 1064 826 453 116 0 0 2 1 1 1 0 0 0 3 17 2 0 0 0 0 0 0 0 1 0 0 0 0 0 20 12 5 4 8
372 287 151 133 237 449 415 472 655 1104 983 594 248 86 58 12 1 0 0 0 0 10 44 10 0 0 0 0 0 0 0 0 0 0 0 0 0 0 50 27 10 5 0
270 279 148 138 104 75 99 141 148 144 792 456 206 89 18 0 0 3 27 45 59 49 108 0 0 0 0 0 0 0 0 0 0 0 0 0 0 42 65 23 7 3 2
391 259 161 151 117 68 63 74 132 126 160 203 121 29 2 0 0 0 0 24 103 217 109 0 0 0 0 0 0 0 0 0 0 0 0 96 88 82 22 12 3 5 2
588 361 240 166 86 37 31 61 54 113 127 210 105 45 13 0 0 0 0 45 107 211 97 0 0 0 0 0 0 0 0 0 0 0 8 133 49 24 5 0 0 0 1
632 554 282 134 90 53 77 93 52 103 90 164 127 80 43 13 7 0 0 1 56 96 40 0 0 0 0 0 0 0 0 0 0 0 11 80 13 4 0 0 0 0 2
505 590 487 357 121 63 62 102 54 38 53 67 118 138 91 26 21 20 19 2 25 73 69 18 0 0 0 0 0 0 0 0 0 0 0 0 14 0 0 0 0 0 1
589 395 377 426 352 130 93 55 58 44 0 27 45 50 63 26 52 47 25 29 16 56 42 60 0 0 0 0 0 0 0 0 0 0 0 0 0 0 0 0 0 0 0
537 618 363 401 363 392 188 189 120 136 103 102 37 45 48 35 91 62 54 49 41 32 24 22 8 0 0 0 0 0 0 0 0 0 0 0 0 0 0 0 0 0 0
411 674 627 432 478 477 455 219 368 475 269 263 153 25 22 22 58 109 71 81 67 46 52 30 8 0 0 0 0 0 0 0 0 0 0 0 0 0 0 0 0 0 0
81 267 735 736 659 612 514 568 273 605 699 525 330 201 100 36 21 50 80 70 116 100 62 61 14 0 0 0 0 0 0 0 0 0 0 0 0 0 0 0 0 0 0
0 0 32 134 717 784 735 699 718 465 492 836 872 742 305 218 132 46 41 54 127 121 88 100 109 13 0 0 0 0 0 0 0 0 0 0 0 0 0 0 0 0 0
0 0 0 0 0 55 711 854 798 729 541 489 858 935 631 445 351 218 109 73 136 112 117 76 67 48 2 0 0 0 0 0 0 0 0 0 0 0 0 0 0 0 0
0 0 0 0 0 0 0 17 863 855 651 533 407 524 935 795 555 427 249 210 91 142 144 121 67 55 0 0 0 0 0 0 0 0 0 0 0 0 0 0 0 0 0
0 0 0 0 0 0 0 0 0 750 678 504 397 338 387 749 817 708 457 280 231 116 193 208 88 81 56 7 0 1 0 0 0 0 0 0 0 0 0 0 0 0 0
0 0 0 0 0 0 0 0 0 0 445 592 418 308 389 418 510 846 736 515 359 254 174 167 170 146 109 40 14 16 7 1 24 1 0 0 0 0 0 0 0 0 0
0 0 0 0 0 0 0 0 0 0 0 85 496 502 464 396 386 488 704 797 852 461 202 168 187 197 169 120 54 38 42 17 40 10 1 5 8 0 0 0 0 0 0
0 0 0 0 0 0 0 0 0 0 0 0 0 237 540 587 704 699 578 773 617 746 623 270 271 206 194 194 144 90 62 44 80 44 21 6 0 6 6 0 0 0 0
0 0 0 0 0 0 0 0 0 0 0 0 0 0 73 81 166 580 614 470 432 723 817 638 691 306 193 149 140 178 119 97 104 94 60 31 7 11 4 0 0 0 0

GFSSE_con_mucape_045.txt.gz
CAPE
905 1453 2129 2227 2105 2129 2135 2063 2128 1844 1534 983 726 465 199 16 0 0 0 0 49 92 25 7 6 6 5 1 0 0 1 15 7 10 0 0 0 2 9 0 7 1 7
902 1322 2120 2523 2430 2414 2368 2169 1985 1732 1446 1377 640 275 42 0 0 0 0 3 51 65 4 1 3 2 1 0 0 0 0 0 0 0 0 0 0 0 0 0 1 0 0
1008 1531 1649 2291 2455 2480 2306 2083 1814 1781 1670 1292 441 46 0 0 0 0 89 28 103 41 1 1 0 1 1 0 0 0 0 0 0 2 0 0 3 24 0 0 0 0 0
906 1000 1297 2068 2327 2435 2207 1900 1678 1676 1290 872 163 13 0 0 0 114 88 149 81 20 0 0 0 2 2 0 0 0 0 0 2 4 0 2 0 60 19 25 24 0 0
529 682 1168 2179 2348 2335 2076 1835 1808 1387 977 429 18 0 0 0 1 196 113 92 18 13 0 0 1 3 2 0 0 0 0 0 11 5 11 1 0 86 196 180 180 263 82
584 686 1379 1906 2170 2091 1943 1807 1604 1065 606 152 2 0 0 0 11 51 27 5 5 2 0 0 1 3 0 0 0 0 0 1 2 5 0 0 0 115 178 157 137 210 191
487 337 437 1575 1850 1811 1746 1676 1151 1117 593 102 0 0 0 1 9 9 5 0 0 0 0 0 2 1 0 0 0 0 0 0 0 0 0 0 0 72 111 98 64 38 17
482 337 442 1016 1028 1113 1233 1238 955 1146 818 179 21 0 2 3 4 3 1 0 0 0 2 1 0 0 0 0 0 0 0 0 0 0 0 0 0 16 17 11 2 0 2
478 399 222 354 452 599 533 831 869 827 868 344 67 39 22 4 2 2 0 0 0 3 38 0 0 0 0 0 0 0 0 0 0 0 0 0 0 25 38 13 8 7 4
363 218 99 89 85 68 106 240 361 663 616 376 99 67 22 10 27 25 50 41 57 74 48 0 0 0 0 0 0 0 0 0 0 0 0 0 0 92 35 18 8 2 2
327 230 118 70 46 51 62 82 100 127 346 174 73 28 12 0 5 10 0 74 140 193 22 0 0 0 0 0 0 0 0 0 0 0 0 54 130 88 23 12 4 1 1
354 264 193 110 64 55 61 68 65 61 242 121 67 42 15 0 0 0 0 35 172 196 64 0 0 0 0 0 0 0 0 0 0 0 71 280 132 42 10 0 0 0 0
513 340 243 186 107 57 44 39 0 48 36 137 89 50 18 2 3 0 11 25 48 123 48 8 0 0 0 0 0 0 0 0 0 5 56 156 29 8 0 0 0 0 0
607 487 355 207 106 58 31 54 35 50 25 138 110 53 44 13 9 12 9 10 29 76 47 21 6 0 0 0 0 0 0 0 0 1 29 57 26 1 0 0 0 0 0
659 549 441 353 134 74 39 27 0 12 46 64 98 80 60 21 9 15 25 15 19 55 64 38 18 0 0 0 0 0 0 0 0 0 0 0 0 0 0 0 0 0 1
598 377 432 412 331 214 24 0 0 22 26 41 9 48 84 50 0 3 35 36 35 43 50 76 60 16 0 0 0 0 0 0 0 0 0 0 0 0 0 0 0 0 2
560 469 492 274 399 330 326 83 66 158 65 92 97 73 0 0 0 16 20 49 42 38 30 25 25 13 4 0 0 0 0 0 0 0 0 0 0 0 0 0 0 0 3
384 508 641 529 407 306 403 370 158 195 350 193 125 224 162 41 19 43 75 102 78 19 59 51 23 22 28 1 0 0 0 0 0 0 0 0 0 0 0 0 0 0 0
0 285 727 661 723 608 419 471 447 345 387 566 400 255 263 231 172 58 39 107 109 118 102 99 56 45 26 19 0 0 0 0 0 0 0 0 0 0 0 0 0 0 0
0 0 0 6 716 666 699 664 592 604 492 447 683 702 503 230 327 277 197 104 52 103 132 127 101 47 35 33 33 0 0 0 0 0 0 0 0 0 0 0 0 0 0
0 0 0 0 0 0 107 743 766 715 681 526 342 446 625 559 278 363 341 288 156 106 168 171 146 92 75 53 61 14 0 0 0 0 0 0 0 0 0 0 0 0 0
0 0 0 0 0 0 0 0 0 627 746 780 631 497 346 243 310 421 259 401 345 213 154 195 206 188 130 102 106 62 3 0 0 0 0 0 5 0 0 0 0 0 0
0 0 0 0 0 0 0 0 0 0 140 392 510 552 473 358 229 205 253 251 431 443 278 204 234 218 168 141 137 99 21 3 2 11 7 18 47 6 1 6 9 0 0
0 0 0 0 0 0 0 0 0 0 0 0 191 468 490 404 282 287 217 201 318 393 552 344 265 255 269 193 140 94 70 41 35 10 21 31 57 30 19 22 18 0 0
0 0 0 0 0 0 0 0 0 0 0 0 0 0 4 248 473 505 421 315 303 396 372 597 558 451 185 205 213 152 75 75 53 51 49 45 53 52 55 30 7 0 2
0 0 0 0 0 0 0 0 0 0 0 0 0 0 0 0 0 213 423 507 584 349 420 536 531 544 494 308 222 245 197 195 139 65 61 62 60 74 80 62 32 17 16

GFSSE_con_mucape_048.txt.gz
CAPE
981 1723 2443 2149 1847 1806 1953 1768 1841 1811 1454 914 591 323 74 5 0 0 0 67 114 23 5 8 10 10 4 4 0 0 0 0 0 0 0 0 4 12 4 7 0 1 1
1154 1607 2341 2465 2071 2110 2306 2149 1950 1691 1491 1154 600 281 34 0 0 0 0 72 50 4 3 5 6 4 1 0 0 0 0 0 0 0 0 0 0 0 1 0 0 0 0
1147 1482 2034 2420 2436 2433 2219 1823 1852 1775 1547 1060 233 33 0 0 0 57 6 96 17 4 1 0 1 0 0 0 0 0 0 0 0 0 0 7 14 0 0 0 0 0 0
1057 1485 1901 2450 2499 2298 2179 1907 1907 1813 1209 499 99 0 0 0 91 308 103 148 23 0 0 0 1 1 0 0 0 0 0 0 0 0 0 0 27 20 21 39 0 0 94
969 1322 1784 2311 2473 2332 1984 1882 1942 1571 671 206 2 0 0 0 422 349 285 60 6 0 0 0 2 0 0 0 0 0 0 0 1 0 0 0 26 135 186 255 193 127 252
695 1004 1746 2161 2296 2129 1844 1883 1548 1127 377 75 0 0 0 6 231 96 63 19 7 1 0 0 2 0 0 0 0 0 0 0 0 0 0 0 5 161 150 138 183 164 142
501 827 1562 2217 2215 1963 1835 1754 1370 1233 385 25 0 0 0 21 82 26 4 3 0 0 0 1 1 0 0 0 0 0 0 0 0 0 0 0 9 121 94 27 40 41 2
584 778 755 1580 1845 1804 1698 1377 1287 1123 552 54 11 0 4 9 23 39 20 0 0 0 1 1 0 0 0 0 0 0 0 0 0 0 0 0 6 11 3 10 0 0 2
375 305 420 520 887 913 1049 979 1031 996 582 196 71 37 14 6 9 25 20 0 0 2 22 0 0 0 0 0 0 0 0 0 0 0 0 0 2 32 28 14 5 3 2
401 385 233 273 222 203 381 547 543 759 446 178 101 71 27 13 22 38 73 74 64 116 64 0 0 0 0 0 0 0 0 0 0 0 0 0 2 90 37 19 2 5 1
407 188 170 85 58 67 144 311 428 401 304 123 77 33 9 2 18 28 15 61 128 194 52 0 0 0 0 0 0 0 0 0 0 0 0 0 224 141 25 12 6 1 1
328 201 135 106 78 52 62 82 78 330 234 77 50 30 12 3 13 29 22 56 124 187 75 3 0 0 0 0 0 0 0 0 0 0 0 185 264 120 15 1 2 0 0
394 261 182 110 61 56 57 46 45 41 268 112 63 35 28 0 5 12 16 45 96 130 60 15 0 0 0 0 0 0 0 0 0 6 119 321 180 48 1 0 0 0 0
500 369 251 152 54 36 30 33 31 31 23 137 67 40 28 8 0 8 7 33 73 82 63 33 14 0 0 0 0 0 0 0 0 13 112 130 149 31 3 0 0 1 0
642 493 327 220 109 74 37 17 0 0 0 21 84 34 16 19 6 4 14 15 16 41 51 35 27 12 0 0 0 0 0 0 0 1 43 45 75 39 0 0 0 2 0
725 582 426 242 198 50 16 24 21 0 0 0 11 47 24 34 20 0 1 18 24 5 20 18 20 25 7 0 0 0 0 0 0 1 17 5 25 47 0 0 0 1 1
557 504 529 431 290 153 72 43 0 0 0 0 18 17 36 63 86 19 0 0 19 23 25 18 30 41 37 22 18 0 0 0 0 0 6 3 0 0 0 0 0 0 0
578 553 377 315 456 376 269 104 19 37 6 7 73 87 138 133 67 17 0 0 0 31 56 24 20 38 39 13 28 24 6 0 0 0 0 0 0 0 0 0 0 0 0
377 518 469 550 499 399 351 331 237 111 129 276 167 142 110 175 171 62 32 9 7 55 84 43 42 70 69 18 16 24 9 0 0 0 0 0 0 0 0 0 0 0 0
0 0 270 543 626 579 564 406 385 421 360 195 320 428 230 189 224 142 162 217 135 74 84 86 95 108 130 105 35 24 3 18 0 0 0 0 0 0 0 0 0 0 0
0 0 0 0 0 225 543 575 539 527 471 481 347 378 525 495 364 193 153 218 227 186 184 149 132 135 144 162 100 31 29 0 8 0 0 0 0 0 0 0 10 0 0
0 0 0 0 0 0 0 0 282 567 659 655 663 492 332 251 262 310 205 128 193 217 165 233 195 163 200 189 149 84 66 2 18 57 12 0 1 1 8 25 37 1 0
0 0 0 0 0 0 0 0 0 0 6 204 242 338 396 415 437 329 203 134 143 186 188 116 259 252 218 211 257 138 35 3 6 11 18 8 16 19 30 38 44 20 2
0 0 0 0 0 0 0 0 0 0 0 0 0 0 39 224 230 279 275 191 135 86 103 201 288 291 272 183 190 218 156 64 34 6 7 34 36 30 34 38 43 46 46
0 0 0 0 0 0 0 0 0 0 0 0 0 0 0 0 0 0 60 286 250 104 88 140 204 207 218 290 357 135 20 79 147 117 22 39 62 64 32 12 17 28 49
0 0 0 0 0 0 0 0 0 0 0 0 0 0 0 0 0 0 0 14 161 220 182 100 80 79 141 192 218 285 362 158 165 158 130 54 51 28 65 43 36 22 33

GFSSE_con_mucape_051.txt.gz
CAPE
562 1668 2395 1946 1704 1573 1532 1521 1567 1571 1274 795 435 174 49 5 0 0 129 146 21 1 3 12 11 10 1 7 4 1 0 0 0 0 0 3 7 2 2 0 0 0 33
1081 1825 2207 2098 1831 1860 2080 1924 1902 1666 1423 924 472 170 15 0 0 0 87 16 1 1 2 5 5 3 0 0 1 0 0 0 0 0 0 0 0 0 0 0 0 0 86
1240 1710 1848 2152 2213 2419 2300 1775 1831 1672 1284 790 233 55 0 0 0 0 132 10 2 1 0 2 0 0 0 0 0 0 0 0 0 0 0 2 0 0 0 0 0 0 0
1273 1710 1877 2333 2464 2219 2014 1657 1802 1372 773 290 68 0 0 0 149 1 214 11 1 0 0 0 0 0 0 0 0 0 0 0 0 0 0 0 2 4 14 0 0 114 187
1224 1690 1949 2446 2386 2246 1913 1859 1757 1128 500 173 0 0 0 276 430 217 240 16 0 0 0 0 0 0 0 0 0 0 0 0 0 0 0 0 61 120 248 171 68 214 364
1337 1617 2091 2341 2323 2168 2066 2042 1791 815 342 71 3 0 4 402 515 433 113 15 0 0 0 0 0 0 0 0 0 0 0 0 0 0 0 21 66 156 182 175 163 128 88
1213 1497 1787 2325 2313 2085 1943 1814 1457 885 213 27 0 0 40 263 115 142 74 3 0 0 0 0 0 0 0 0 0 0 0 0 0 0 0 0 64 80 71 60 58 40 19
906 1257 1525 2031 2052 1899 1883 1722 1423 965 274 45 8 0 4 116 90 92 63 24 0 0 0 1 0 0 0 0 0 0 0 0 0 0 0 0 65 22 0 6 0 0 0
563 748 1097 1424 1438 1435 1347 1435 1226 946 448 212 80 36 44 31 69 68 63 44 13 2 1 0 0 0 0 0 0 0 0 0 0 0 0 0 9 8 12 3 3 1 1
598 642 521 648 953 732 726 758 736 658 386 230 96 57 25 23 45 62 70 70 42 50 43 3 0 0 0 0 0 0 0 0 0 0 0 0 0 126 30 8 6 4 2
566 451 345 465 656 322 319 433 416 338 180 109 68 28 7 4 18 32 18 31 96 154 72 8 0 0 0 0 0 0 0 0 0 0 0 0 13 168 29 9 2 1 1
524 386 223 342 252 103 160 291 207 291 82 59 32 15 0 0 9 18 15 37 107 167 95 23 3 0 0 0 0 0 0 0 0 0 0 0 236 215 34 0 0 0 0
501 235 180 140 129 77 93 138 199 290 173 69 36 20 15 1 4 13 15 51 63 96 78 30 6 0 0 0 0 0 0 0 0 0 12 156 407 144 30 1 0 0 0
438 267 200 133 82 76 62 65 48 43 233 128 63 18 12 7 0 0 4 18 49 82 89 40 22 1 0 0 0 0 0 0 0 0 63 226 325 154 46 2 0 0 0
571 404 303 165 126 93 70 52 46 34 33 127 71 38 10 3 0 0 0 0 18 61 69 41 22 20 10 0 0 0 0 0 0 0 49 151 145 176 80 0 0 0 0
679 580 426 307 202 88 60 37 35 32 6 0 68 60 20 0 0 0 0 0 0 13 20 27 17 6 10 1 0 0 0 0 0 0 11 67 62 140 100 1 1 2 0
801 716 603 444 299 226 97 64 29 31 14 0 0 0 26 0 0 17 0 0 0 11 14 16 0 0 0 9 7 0 1 0 0 0 0 17 45 42 79 18 10 3 0
754 781 724 585 478 355 220 132 80 36 14 0 0 0 3 41 46 19 41 28 0 0 0 18 28 4 0 0 19 1 0 3 1 0 0 1 21 22 5 87 94 9 7
405 522 531 504 533 466 351 282 213 119 57 54 19 43 66 32 44 103 99 69 17 7 0 0 23 36 17 4 26 59 31 15 3 0 0 0 0 7 0 0 17 29 18
207 340 546 518 456 414 442 413 360 241 180 144 164 227 187 161 147 99 146 155 96 112 125 59 19 30 24 76 73 70 80 16 11 0 0 4 3 0 0 0 0 0 0
0 0 1 128 340 518 568 491 426 319 359 384 378 324 233 392 374 242 238 215 178 94 114 155 152 131 124 119 131 98 95 56 0 11 25 22 57 49 2 0 7 18 8
0 0 0 0 0 0 48 318 484 573 503 465 509 533 499 372 332 309 244 173 155 115 104 128 183 166 157 152 111 101 26 0 0 21 35 46 27 53 17 17 29 40 51
0 0 0 0 0 0 0 0 0 0 78 212 298 521 558 544 551 425 319 283 166 141 117 126 167 202 179 130 171 98 34 2 0 0 1 0 3 18 17 28 30 36 40
0 0 0 0 0 0 0 0 0 0 0 0 0 0 0 0 0 19 109 183 225 223 150 101 67 64 120 146 165 226 123 87 55 6 0 1 6 43 33 38 32 28 21
0 0 0 0 0 0 0 0 0 0 0 0 0 0 0 0 0 0 0 0 0 153 213 76 52 53 77 132 44 95 142 119 113 35 31 2 24 53 42 38 27 31 21
0 0 0 0 0 0 0 0 0 0 0 0 0 0 0 0 0 0 0 0 1 1 114 169 121 95 82 66 62 101 103 47 64 67 58 39 14 8 22 30 9 0 6

GFSSE_con_mucape_054.txt.gz
CAPE
257 1438 2229 1795 1706 1685 1614 1513 1434 1418 1187 617 347 165 66 0 0 178 135 28 0 1 12 12 8 8 1 1 0 0 0 0 0 0 1 6 0 1 0 0 0 5 137
616 1673 2177 2018 1618 1732 1865 1899 1878 1545 1122 253 341 136 1 0 0 175 3 1 0 0 7 11 9 5 0 1 0 0 0 0 0 0 0 0 0 0 0 0 0 22 127
1302 1650 1844 2109 2113 2185 2145 1716 1706 1484 1142 691 256 61 0 0 0 212 6 2 1 0 1 2 2 1 0 2 1 0 0 0 0 0 0 0 0 0 0 0 0 0 34
1375 1601 1622 2169 2318 2407 2159 1694 1600 1216 735 280 83 1 0 0 0 270 20 2 0 0 0 0 0 0 0 0 0 0 0 0 0 0 0 0 0 26 0 0 131 252 64
1271 1665 1680 2121 2447 2241 1929 1856 1527 878 451 138 0 0 0 307 64 382 80 0 0 0 0 1 0 0 0 0 0 0 0 0 0 0 0 4 76 202 225 110 165 217 412
1374 1704 2037 2349 2327 2142 2044 1933 1446 733 336 53 0 0 433 469 302 322 90 0 0 0 0 1 1 0 0 0 0 0 0 0 0 0 0 47 96 232 218 187 145 132 123
1328 1712 2012 2351 2315 2137 2070 1902 1403 669 210 29 0 0 473 533 506 226 86 0 0 0 0 0 0 0 0 0 0 0 0 0 0 0 0 17 72 123 98 56 28 19 6
1218 1690 1903 2109 2122 1948 1980 1708 1327 870 150 31 8 4 305 282 292 176 86 29 0 0 0 0 0 0 0 0 0 0 0 0 0 0 0 0 9 0 2 1 3 2 1
1257 1348 1570 1603 1657 1567 1616 1450 1213 872 458 107 56 41 107 140 164 128 96 57 29 0 1 0 0 0 0 0 0 0 0 0 0 0 0 0 0 1 6 4 4 1 1
1041 1049 1164 1177 1253 1101 1309 1143 898 649 431 231 78 62 45 26 49 114 74 65 53 46 45 21 0 0 0 0 0 0 0 0 0 0 0 0 0 117 13 3 3 2 0
584 571 686 735 860 741 664 832 466 302 165 92 51 24 16 11 23 32 26 39 84 114 78 25 9 0 0 0 0 0 0 0 0 0 0 0 0 221 70 1 0 0 0
523 565 495 362 639 469 428 525 475 146 70 50 31 12 0 0 16 26 22 22 62 136 77 22 8 1 0 0 0 0 0 0 0 0 0 0 10 339 85 0 0 0 0
654 520 348 401 597 398 227 253 135 135 77 57 47 16 13 1 1 11 8 21 36 64 76 29 5 0 0 0 0 0 0 0 0 0 0 34 75 362 69 17 0 0 0
583 456 304 344 370 263 105 161 181 212 144 82 58 37 10 9 0 0 0 4 21 27 49 36 13 6 0 0 0 0 0 0 0 0 0 35 241 253 92 24 0 0 0
652 426 254 223 186 139 80 76 85 79 167 152 79 54 18 0 0 0 0 0 0 13 30 31 12 4 8 0 0 0 0 0 0 0 0 36 192 281 137 76 0 0 0
597 516 356 266 169 110 92 64 45 43 42 53 78 49 0 0 0 0 0 0 0 0 1 11 1 0 0 0 0 0 0 0 0 0 0 0 116 129 232 82 17 3 6
652 624 548 418 297 196 110 63 46 29 35 22 14 53 39 0 0 0 0 0 0 0 0 0 0 10 0 0 0 0 0 0 0 0 0 0 11 60 111 92 44 27 10
790 758 702 618 507 386 274 113 61 34 9 22 8 0 0 0 0 4 11 28 32 3 0 0 0 2 27 19 0 0 0 2 3 9 2 0 0 3 37 144 184 84 34
702 821 831 744 658 524 412 312 207 149 122 77 51 36 0 0 12 17 30 53 59 40 23 42 40 20 12 27 33 22 27 40 67 62 45 24 12 12 7 17 25 72 116
364 409 531 626 574 569 500 404 352 307 281 176 117 94 55 29 33 80 104 107 109 143 131 98 107 115 115 93 50 46 61 73 64 53 49 36 29 33 19 37 13 0 0
11 387 341 506 539 440 441 435 468 446 413 355 272 220 207 219 204 229 280 274 205 205 192 173 142 115 105 122 84 28 38 61 35 66 144 121 88 65 64 46 42 10 0
0 0 0 94 189 268 426 553 586 494 459 419 379 370 383 439 421 311 257 319 283 166 169 129 127 92 68 92 95 69 63 0 0 0 0 0 1 20 28 22 16 7 8
0 0 0 0 0 6 48 143 192 224 279 349 456 527 555 559 569 547 495 445 406 253 153 151 106 123 64 43 89 82 32 9 4 1 1 0 7 0 4 36 18 29 17
0 0 0 0 0 0 0 0 0 0 0 0 0 0 0 0 0 0 1 11 70 127 174 215 215 150 97 50 11 17 33 43 38 22 20 12 7 0 1 1 11 32 16
0 0 0 0 0 0 0 0 0 0 0 0 0 0 0 0 0 0 0 0 0 0 0 13 156 130 80 48 38 46 115 23 6 48 22 9 6 6 2 5 2 5 32
0 0 0 0 0 0 0 0 0 0 0 0 0 0 0 0 0 0 0 0 0 1 3 1 21 135 135 93 80 105 37 22 21 22 15 20 5 8 3 8 5 4 4

GFSSE_con_mucape_057.txt.gz
CAPE
339 1528 2420 2261 1848 1848 1784 1596 1226 1148 586 600 327 187 0 44 185 215 121 0 0 9 12 6 8 8 11 0 0 0 0 0 0 0 0 3 0 0 0 0 3 65 4
491 1499 2235 2224 1958 1953 2065 1992 1762 1431 1109 584 303 100 0 78 336 6 0 1 1 7 14 12 7 12 6 0 0 0 2 6 3 0 0 0 0 0 0 0 1 112 12
1026 1502 1456 2008 2061 2134 2139 1890 1773 1402 1136 635 242 25 0 60 283 2 5 1 0 2 9 8 7 8 6 2 1 1 1 0 0 0 0 0 1 0 0 1 131 0 141
1243 1398 1336 2075 2149 2294 2191 1834 1696 1188 688 284 94 0 0 40 408 86 6 0 0 0 0 0 1 3 2 0 0 0 0 0 0 0 2 2 4 28 0 138 261 186 0
1332 1417 1570 2075 2402 2302 2023 1834 1436 832 423 135 2 0 3 45 463 159 5 0 0 0 0 0 0 1 0 0 0 0 0 0 0 0 70 143 164 202 192 189 110 255 221
1362 1385 1626 2258 2290 2166 2060 1907 1290 646 269 42 0 0 513 163 569 276 5 0 0 1 0 0 1 0 0 0 0 0 0 0 0 0 56 110 182 206 158 94 97 79 124
1319 1431 1568 2358 2294 2118 2016 1729 1281 573 201 4 0 159 751 380 652 240 20 0 0 0 1 0 0 0 0 0 0 0 0 0 0 0 0 124 129 69 12 9 6 1 0
1210 1668 1679 1935 2048 1982 1942 1516 1180 782 131 16 25 531 752 867 509 125 55 21 0 0 3 1 0 0 0 0 0 0 0 0 0 0 0 28 37 0 1 5 6 4 2
1330 1719 1699 1624 1523 1703 1551 1341 1106 801 383 82 59 334 521 444 273 157 104 50 23 7 27 26 0 0 0 0 0 0 0 0 0 0 0 0 0 8 0 0 1 1 0
1441 1496 1609 1567 1296 1367 1421 994 807 659 386 171 70 64 38 45 136 147 51 74 39 30 32 13 0 0 0 0 0 0 0 0 0 0 0 0 0 96 6 0 0 0 0
982 1151 1206 1284 1245 1162 1288 899 478 337 188 70 51 24 17 29 43 52 29 30 59 66 51 15 0 0 0 0 0 0 0 0 0 0 0 0 0 154 44 0 0 0 0
861 806 726 792 890 805 845 962 536 209 126 54 37 22 9 9 25 26 20 17 50 102 67 17 6 0 0 0 0 0 0 0 0 0 0 0 0 86 77 3 0 0 0
565 469 455 384 567 553 545 652 401 144 80 54 46 16 0 0 5 22 16 25 44 42 83 28 3 0 0 0 0 0 0 0 0 0 0 0 32 181 76 20 2 0 0
431 507 573 336 525 619 341 321 270 204 78 71 67 48 11 0 0 0 0 7 24 39 57 46 12 0 0 0 0 0 0 0 0 0 0 0 46 244 117 25 9 0 0
678 680 467 334 494 542 379 240 169 265 188 109 92 72 37 0 0 0 0 0 2 13 19 28 12 0 0 0 0 0 0 0 0 0 0 0 7 287 295 82 56 2 0
737 647 472 325 380 397 284 133 118 132 139 150 110 66 43 12 0 0 0 0 0 0 0 3 0 0 0 0 0 0 0 0 0 0 0 0 0 79 211 153 86 19 11
683 671 442 330 279 231 172 118 99 75 63 47 41 57 48 35 0 0 0 0 0 0 0 0 0 0 0 0 0 0 0 0 0 0 0 0 0 0 62 189 121 65 24
723 717 609 517 436 324 213 146 109 70 31 34 32 0 14 21 0 0 0 0 0 0 0 0 0 0 0 0 0 0 8 8 13 23 42 45 22 0 0 71 222 188 111
649 725 710 702 643 559 459 361 245 150 104 72 49 34 25 8 0 0 0 15 28 25 17 9 10 14 30 31 37 42 37 46 53 48 52 55 39 29 14 4 27 126 262
369 697 814 810 766 701 598 505 397 340 253 181 153 86 47 46 44 0 0 63 67 48 52 95 134 136 88 91 55 42 56 59 54 56 98 121 119 85 59 20 17 20 3
115 350 348 524 608 662 630 588 467 397 331 322 308 246 174 143 141 149 157 177 183 208 198 143 125 87 75 53 47 20 0 0 0 40 8 0 28 63 57 28 6 0 0
0 0 303 339 438 583 513 472 453 433 436 430 405 394 351 305 283 292 349 350 255 253 291 241 165 137 90 110 57 39 4 0 0 0 0 0 0 0 0 0 0 2 15
0 0 0 2 84 345 445 411 435 497 540 523 408 396 387 370 369 375 428 415 390 345 314 340 295 146 104 82 115 49 16 4 2 2 3 2 3 2 0 0 0 0 0
0 0 0 0 0 0 0 7 38 66 45 3 0 0 0 0 13 23 19 7 284 59 78 258 155 175 157 85 57 4 8 7 22 31 10 6 11 2 7 1 1 1 3
0 0 0 0 0 0 0 0 0 0 0 0 0 0 0 0 0 0 0 0 0 1 4 5 4 106 20 100 144 26 9 35 23 32 18 9 0 9 2 3 0 4 4
0 0 0 0 0 0 0 0 0 0 0 0 0 0 0 0 0 0 0 0 0 1 1 2 3 3 4 98 86 51 30 36 16 24 22 18 0 1 1 1 0 1 0

GFSSE_con_mucape_060.txt.gz
CAPE
971 1399 2315 2093 1710 1610 1510 1446 1240 921 851 464 292 25 89 136 249 187 0 0 4 23 5 11 97 14 3 0 0 0 0 0 0 0 0 0 0 0 0 2 126 17 4
680 1321 2353 2415 2111 2074 1870 1716 1417 1151 1016 459 249 1 391 458 83 0 1 1 12 19 19 16 22 13 6 2 5 8 8 5 1 0 0 0 0 0 0 0 18 44 29
615 1233 1609 2405 2385 2173 2012 1592 1441 1188 748 430 133 0 302 241 7 11 1 0 4 11 11 14 18 8 9 4 0 0 0 0 0 0 0 35 9 0 105 253 2 115 172
787 1015 1212 2322 2334 2285 2031 1610 1566 946 562 247 73 0 93 472 107 36 0 0 1 2 3 7 8 6 1 0 0 0 0 0 0 1 28 51 24 24 188 158 308 6 0
963 842 1199 1966 2314 2367 1962 1717 1239 725 355 132 6 0 36 611 284 35 0 0 0 2 1 2 3 0 0 0 0 0 0 0 0 16 105 155 246 177 136 126 122 193 205
1025 891 1390 1910 2380 2255 2073 1824 1013 561 215 45 0 0 106 531 441 77 0 0 1 1 3 2 1 0 0 0 0 0 0 0 0 6 22 61 70 51 37 5 1 3 20
974 963 1334 2396 2351 2237 2085 1611 1168 425 152 0 41 514 669 666 473 84 0 0 2 2 0 2 2 0 0 0 0 0 0 0 0 0 1 7 12 0 0 0 4 0 0
946 1028 1487 1954 2056 2099 1807 1469 1175 518 104 0 249 1321 835 1051 388 124 54 7 0 23 1 0 0 0 0 0 0 37 0 0 0 0 0 0 0 1 0 1 0 0 0
1087 1042 1230 1412 1445 1656 1444 1262 1075 722 258 48 514 767 982 747 516 157 90 52 10 28 31 5 0 0 0 0 0 17 0 0 0 0 0 0 2 9 0 0 0 0 0
1376 1281 1262 1464 1111 1054 1308 912 789 618 344 187 190 82 54 105 148 176 80 80 41 42 41 5 0 0 0 0 0 0 0 0 0 0 0 0 0 80 0 0 0 0 0
1447 1523 1271 1094 957 1071 1211 722 424 345 184 63 50 20 32 35 55 46 41 38 58 46 33 7 0 0 0 0 0 0 0 0 0 0 0 0 0 61 56 1 0 0 0
1058 1263 1341 1207 1045 1023 1074 871 438 272 240 119 54 13 0 0 5 8 28 16 45 75 46 6 0 0 0 0 0 0 0 0 0 0 0 0 0 13 199 35 5 0 0
791 1046 1086 1223 999 968 886 996 549 324 321 261 87 49 9 0 0 0 2 7 31 21 47 21 9 0 0 0 0 0 0 0 0 0 0 0 0 30 172 99 10 0 0
999 1055 973 877 881 838 782 986 590 380 333 338 187 73 42 20 0 0 0 0 3 3 8 27 13 6 0 0 0 0 0 0 0 0 0 0 0 69 233 96 16 0 0
817 756 913 853 677 881 905 776 754 535 425 358 329 160 74 52 30 0 0 0 0 0 0 0 6 0 0 0 0 0 0 0 0 0 0 0 0 25 418 298 87 22 0
772 1033 1087 888 757 955 916 837 693 530 511 495 408 317 130 79 56 24 0 0 0 0 0 0 18 20 10 0 0 0 0 0 0 0 0 0 0 0 145 374 210 121 19
781 747 899 804 738 798 791 708 533 423 391 411 406 363 225 100 63 35 19 0 0 0 0 0 0 2 16 17 17 0 0 0 0 0 0 0 0 0 1 212 304 180 52
801 676 669 518 592 617 534 510 412 368 312 293 287 299 281 130 66 59 37 20 0 0 0 1 4 22 36 31 39 52 29 5 4 3 19 32 41 26 1 10 212 283 191
859 772 670 613 566 633 614 554 523 445 384 308 301 261 161 80 47 70 95 84 68 57 50 54 61 60 126 133 109 62 51 48 58 42 55 53 68 69 57 43 11 71 259
538 826 734 672 704 760 762 684 670 590 508 396 325 229 141 117 106 162 201 192 146 149 159 159 127 170 175 174 74 49 58 83 97 64 68 49 27 9 20 70 41 21 6
171 459 711 768 769 798 827 708 624 743 676 635 513 345 225 176 151 163 238 267 297 288 246 207 230 181 175 159 59 72 134 53 30 26 26 7 0 0 0 0 0 0 0
0 0 290 500 773 929 1117 1033 917 847 707 638 542 410 364 335 287 279 336 406 390 341 312 281 279 183 122 135 91 78 32 2 10 0 0 0 0 0 0 0 0 0 0
0 0 0 174 355 515 780 591 509 483 432 442 536 546 347 352 352 337 331 320 323 348 353 418 298 213 235 179 132 94 74 19 17 10 0 0 0 0 1 4 0 2 2
0 0 0 0 0 75 373 484 451 333 356 112 383 263 72 22 28 32 42 43 102 100 407 275 182 202 176 124 54 150 118 67 32 18 7 0 0 0 2 5 2 1 2
0 0 0 0 0 0 0 0 0 0 0 0 0 0 0 0 0 0 0 0 0 0 0 3 2 3 7 6 19 7 7 22 11 19 16 18 11 3 5 2 3 2 2
0 0 0 0 0 0 0 0 0 0 0 0 0 0 0 0 0 0 0 0 0 0 0 1 2 4 4 7 28 25 12 34 10 2 17 9 22 12 0 0 0 0 0

GFSSE_con_mucape_063.txt.gz
CAPE
1209 1418 2286 1878 1463 1581 1536 1296 1054 872 675 256 70 55 16 274 181 0 0 2 7 11 201 161 17 7 3 2 3 2 0 0 0 0 0 0 0 0 0 55 33 4 8
1054 1209 2227 2179 1794 1845 1637 1133 1206 917 804 412 26 303 502 123 1 0 1 11 24 11 53 60 17 13 9 6 4 2 7 1 0 0 0 0 0 120 224 16 306 34 102
1052 1250 1528 2336 2252 1994 1838 1311 1258 881 620 289 7 333 166 37 35 0 1 11 21 24 88 131 18 8 3 1 0 0 0 0 0 1 17 19 0 177 250 51 43 92 33
1072 1405 1193 2466 2296 2058 1808 1307 1200 826 401 161 3 110 390 147 55 1 0 3 6 11 14 16 5 2 1 1 0 0 0 0 0 18 31 29 100 166 212 297 4 71 68
921 979 1813 2449 2468 2149 1831 1448 1068 601 278 100 3 21 614 343 93 0 0 2 2 2 6 8 3 4 0 0 0 0 0 0 0 14 96 124 71 70 11 3 41 44 102
749 884 1619 2265 2374 2172 1926 1681 887 417 125 30 0 93 502 531 89 0 0 3 4 5 6 5 4 2 0 0 1 0 0 0 0 3 10 56 8 7 2 1 1 0 0
617 1271 1058 2230 2291 2045 1959 1521 959 289 74 0 98 303 350 658 105 0 0 2 2 4 6 5 2 0 0 0 0 0 0 0 0 0 0 2 0 0 1 2 1 0 0
702 1040 1079 1937 2023 1867 1676 1375 963 288 7 63 385 957 628 672 214 46 0 0 2 1 0 0 0 0 0 0 0 0 0 0 0 0 0 0 0 0 0 0 0 0 0
732 930 967 1153 1336 1524 1313 1180 932 429 49 121 894 1275 1270 650 417 101 53 19 18 37 15 0 0 0 0 0 24 0 0 0 0 0 0 0 25 0 0 0 0 0 0
712 1061 730 1140 1016 1004 1026 822 647 414 158 401 359 217 151 149 290 176 93 66 30 46 29 4 0 0 0 0 0 0 0 0 0 0 0 0 0 28 0 0 0 0 0
737 1108 1281 1226 802 854 787 465 345 209 81 37 43 25 24 45 59 22 46 54 51 38 25 3 0 0 0 0 0 0 0 0 0 0 0 0 0 3 54 13 0 0 0
1161 1151 1137 1076 1054 911 1035 439 319 185 98 42 0 4 0 0 7 10 25 15 36 51 32 5 0 0 0 0 0 0 0 0 0 0 0 0 0 0 51 100 33 0 0
936 1258 1419 1053 879 1109 1016 665 520 328 371 338 121 32 0 0 0 0 0 0 6 20 14 2 0 0 0 0 0 0 0 0 0 0 0 0 0 2 145 32 32 0 0
856 1060 1062 1069 998 912 1127 990 610 345 279 353 252 92 34 12 1 0 0 0 0 0 0 10 9 0 0 0 0 0 0 0 0 0 0 0 0 0 166 67 9 0 0
820 818 650 821 855 711 769 1066 624 381 292 263 328 234 89 55 48 16 0 0 0 0 0 0 0 0 0 0 0 0 0 0 0 0 0 0 0 0 34 373 137 47 0
902 872 751 627 692 423 875 802 681 423 357 264 255 277 202 72 52 33 0 0 0 0 0 0 0 15 13 1 0 0 0 0 0 0 0 0 0 0 0 186 377 138 80
968 980 1049 1250 1108 731 801 722 639 381 295 296 256 245 215 112 64 37 9 0 0 0 0 0 0 0 17 20 19 16 4 1 0 0 0 0 0 0 0 0 88 153 118
955 1071 1130 910 741 615 745 884 533 315 254 253 282 319 330 201 98 102 50 41 43 39 11 10 4 25 39 35 36 31 25 26 30 35 42 28 0 0 0 0 3 78 121
860 1007 1011 983 778 726 567 554 520 462 422 356 370 385 366 326 193 193 219 183 154 175 153 132 116 129 129 124 127 142 145 154 135 113 98 121 82 23 0 0 0 35 179
796 957 1058 1061 841 764 780 760 873 710 607 503 471 449 396 314 264 264 276 276 278 299 342 585 410 316 279 294 271 147 197 171 180 201 123 38 45 81 6 0 0 0 4
187 877 1073 1095 989 887 934 990 993 1044 976 833 670 594 482 428 404 415 434 381 589 364 395 532 273 466 230 391 212 198 165 151 151 75 11 0 6 1 0 0 0 0 0
93 213 800 1028 1058 1003 1016 962 1075 1077 1103 1019 1091 789 629 547 486 447 444 390 564 537 523 549 644 266 249 310 137 155 68 2 0 55 1 0 0 0 0 0 0 0 0
65 74 106 620 788 1022 1056 1205 1116 902 851 877 876 806 747 641 597 610 531 1055 835 873 772 550 440 394 237 228 343 58 69 33 26 10 8 0 0 0 0 0 1 3 5
30 11 0 1 143 592 764 906 775 522 674 717 500 574 382 331 334 209 104 100 171 104 102 109 136 115 283 45 31 20 46 56 61 23 24 3 0 0 0 0 0 7 5
3 0 0 0 0 0 40 275 331 391 349 242 59 51 0 0 0 0 0 0 0 0 0 0 1 4 9 4 23 19 7 21 14 25 32 16 41 8 0 0 0 0 0
0 0 0 0 0 0 0 2 23 27 5 0 0 0 0 0 0 0 0 0 0 0 0 0 2 4 4 5 4 12 19 23 9 9 16 10 40 48 27 7 0 0 0

GFSSE_con_mucape_066.txt.gz
CAPE
1146 1470 2106 2037 1411 1577 1585 1158 1005 903 158 129 48 24 395 35 0 0 7 3 168 315 66 11 14 11 8 5 3 0 0 0 0 0 0 15 188 116 183 123 198 18 57
1084 1362 2042 2086 1881 1858 1545 1077 1011 1114 867 132 383 472 68 2 0 5 16 15 3 228 62 12 10 13 5 2 2 1 0 0 0 0 11 34 224 340 21 203 302 51 2
945 1215 1732 2082 2079 1804 1620 1265 1329 825 547 181 481 129 51 7 0 1 17 17 7 221 97 30 14 7 2 0 0 0 0 9 15 19 11 17 16 407 177 0 180 66 155
1153 1043 1371 2255 2059 1830 1713 1430 1212 525 179 12 409 170 203 7 0 3 6 13 7 30 39 8 12 6 3 0 0 0 0 8 21 36 17 10 8 11 154 149 153 233 191
1078 922 1648 2222 2091 1933 1708 1444 793 293 116 7 261 781 311 13 0 1 4 6 10 14 4 11 6 2 1 0 0 0 0 2 1 15 1 0 5 6 10 5 2 4 38
897 1409 1947 2152 2096 1891 1687 1468 585 213 52 3 215 724 424 40 0 1 3 5 8 10 8 4 1 0 0 0 0 0 0 0 0 1 0 0 0 1 3 0 0 0 0
1365 1424 1883 2230 2069 1785 1725 1281 801 125 0 0 177 570 574 83 0 0 3 2 2 2 2 1 0 0 0 0 0 0 0 0 0 0 0 0 0 0 0 0 0 0 0
1249 1056 1586 1969 1908 1745 1559 1119 718 221 42 273 747 726 724 144 30 0 1 2 0 0 0 0 0 0 0 4 11 0 0 0 0 0 0 0 9 0 0 0 0 0 0
1063 974 1200 1294 1477 1446 1186 922 614 187 264 856 1068 1034 902 527 196 53 0 9 27 0 0 0 0 0 0 2 14 0 0 0 0 0 0 0 41 5 0 0 0 0 0
880 767 873 1049 1081 982 627 564 321 122 396 500 443 562 162 155 196 130 68 44 38 35 14 0 0 0 0 0 0 0 0 0 0 0 0 0 1 37 0 0 0 0 0
1051 745 1148 1026 862 824 459 294 140 47 32 112 57 54 30 35 26 10 39 43 58 42 13 4 0 0 0 0 0 0 0 0 0 0 0 0 0 2 52 16 23 0 0
1018 859 955 872 759 791 511 213 59 13 0 0 28 2 8 20 28 37 30 37 62 62 28 8 0 0 0 0 0 0 0 0 0 0 0 0 0 0 21 27 3 5 0
1120 953 1299 733 649 909 601 338 247 106 112 27 16 0 0 0 0 1 0 1 13 32 7 4 1 0 0 0 0 0 0 0 0 0 0 0 0 0 13 41 0 0 0
1126 1126 987 756 733 972 951 486 355 235 166 222 112 24 1 0 0 0 0 0 0 0 0 4 0 0 0 0 0 0 0 0 0 0 0 0 0 0 36 49 21 0 0
860 1070 947 946 779 738 759 782 485 248 142 257 226 101 33 14 6 0 0 0 0 0 0 0 0 0 0 0 0 0 0 0 0 0 0 0 0 0 0 214 204 47 0
796 819 869 863 778 752 715 768 651 312 281 191 266 182 120 53 34 18 0 0 0 0 0 0 0 0 0 0 0 0 0 0 0 0 0 0 0 0 0 0 310 366 135
921 764 595 577 527 585 681 574 610 519 365 277 223 231 157 74 37 25 0 0 0 0 0 0 0 0 0 0 0 0 0 0 0 0 0 0 0 0 0 0 0 49 76
906 793 764 835 737 718 804 674 594 500 266 244 224 216 199 143 50 28 3 0 0 0 0 0 0 0 0 0 0 0 0 4 4 0 0 2 0 0 0 0 0 0 54
813 1015 994 915 739 732 656 717 628 454 255 159 181 239 295 249 146 79 143 70 68 88 71 42 30 49 32 5 5 170 5 59 53 38 32 47 42 32 26 10 0 0 64
760 1024 1044 1031 840 732 555 593 469 454 355 311 314 330 327 325 278 196 201 233 233 373 428 361 209 207 448 244 379 154 35 31 66 46 52 68 50 6 9 6 7 0 0
682 925 953 1027 865 728 725 683 649 591 580 448 452 461 442 387 290 263 305 303 490 732 486 476 398 289 151 115 51 31 39 54 67 69 65 29 0 0 0 0 0 0 0
168 781 995 1119 971 869 858 878 795 813 811 755 699 668 577 533 487 405 394 374 609 298 699 512 491 252 133 105 64 49 15 12 6 0 26 18 5 10 9 0 0 0 0
36 59 746 1111 1081 1014 1023 953 839 844 872 884 803 847 799 670 593 516 530 854 633 450 931 625 430 246 165 127 91 57 47 24 16 2 27 21 4 0 0 0 0 1 9
0 21 61 676 1024 1135 1072 1075 1101 991 964 899 742 801 682 560 589 473 388 281 220 95 72 53 23 15 20 18 36 78 67 81 53 6 8 10 9 1 3 0 3 3 2
0 0 32 40 523 714 986 1100 1119 1071 593 542 590 607 650 345 128 0 0 0 0 0 0 0 0 0 0 0 0 3 20 20 25 26 15 1 6 32 18 14 6 4 4
0 0 9 14 0 17 399 765 762 473 435 436 383 218 22 0 0 0 0 0 0 0 0 0 0 0 0 0 0 3 5 15 10 24 15 15 28 31 31 21 8 15 3

GFSSE_con_mucape_069.txt.gz
CAPE
773 1603 2166 1874 1367 1429 1269 1042 759 490 285 14 327 306 1 0 2 19 127 347 437 52 20 11 11 6 4 0 0 0 0 0 0 43 171 341 265 225 95 144 97 0 1
943 1486 2086 1960 1713 1566 1273 1031 1014 936 572 463 394 31 1 0 8 15 6 325 290 53 12 7 9 3 0 0 0 6 8 2 0 33 61 121 358 57 42 55 163 125 375
1064 1358 1775 2075 1824 1540 1258 912 1133 623 483 791 277 35 0 2 17 16 7 165 163 24 13 10 6 2 0 0 0 7 26 31 1 0 0 0 10 21 218 257 360 221 308
1090 1201 1585 1985 1846 1665 1502 1083 895 230 249 725 553 64 1 3 9 14 8 7 24 17 8 12 7 0 0 0 0 3 6 13 66 39 0 0 41 8 88 51 63 133 42
1016 1293 1798 1873 1814 1617 1468 991 377 141 74 876 846 433 0 1 5 8 12 10 28 12 7 7 1 0 0 0 0 0 0 92 21 0 0 0 0 4 8 0 0 0 2
1015 1428 1790 1789 1623 1691 1551 1039 253 97 15 687 924 445 1 0 2 4 5 10 19 16 8 3 0 0 0 0 0 0 0 0 0 0 0 0 0 1 0 0 0 0 0
1247 1476 1643 1818 1809 1738 1443 949 510 107 7 626 952 342 28 0 1 4 6 7 8 8 4 1 0 0 0 0 0 0 0 0 0 0 0 0 0 0 0 0 0 0 0
1417 1545 1631 1679 1693 1389 1252 856 499 163 170 577 1164 580 99 0 0 1 2 4 4 3 1 0 0 0 24 36 0 0 0 0 0 0 0 0 22 3 7 0 0 0 0
1387 1497 1479 1367 1264 1156 923 699 279 428 764 886 1032 784 355 162 21 0 7 0 0 0 0 0 0 0 1 30 1 0 0 0 0 0 0 5 26 12 5 0 0 0 0
1125 1263 1266 1249 1087 645 372 269 99 491 526 918 835 509 203 102 105 56 32 59 26 11 9 7 7 0 0 0 0 0 0 0 0 0 0 0 38 16 2 0 0 0 0
955 1017 1036 1034 841 405 203 33 12 153 159 240 483 91 50 27 12 0 0 26 50 29 14 5 0 0 0 0 0 0 0 0 0 0 0 0 0 0 13 0 0 0 0
831 1011 951 871 773 374 226 32 0 0 73 61 75 57 21 13 3 0 13 11 40 33 16 9 0 0 0 0 0 0 0 0 0 0 0 0 0 0 0 3 0 0 0
833 1049 1093 877 831 499 186 70 18 2 0 2 14 0 1 6 25 21 0 1 0 0 0 0 0 0 0 0 0 0 0 0 0 0 0 0 0 0 0 111 0 0 0
799 1058 1098 739 863 714 336 204 213 75 87 33 24 0 0 0 9 0 0 0 0 0 0 0 0 0 0 0 0 0 0 0 0 0 0 0 0 0 0 52 15 0 0
981 1118 1233 728 921 1002 705 459 275 199 146 143 114 43 3 1 0 0 0 0 0 0 0 0 0 0 0 0 0 0 0 0 0 0 0 0 0 0 0 13 150 77 4
872 904 1063 834 872 1068 961 623 427 203 108 215 242 150 108 53 20 0 0 0 0 0 0 0 0 0 0 0 0 0 0 0 0 0 0 0 0 0 0 0 6 179 180
766 886 977 935 900 883 828 846 678 333 211 254 271 210 193 131 65 17 0 0 0 0 0 0 0 0 0 0 0 0 0 0 0 0 0 0 0 0 0 18 0 5 89
819 930 1092 957 894 762 772 694 738 649 469 429 255 281 234 165 88 26 1 0 0 0 0 0 0 0 0 0 0 0 2 9 6 10 12 6 26 38 17 19 10 6 23
811 894 804 819 603 679 911 656 616 578 577 388 332 263 233 230 164 44 43 6 0 16 24 14 15 5 7 4 101 8 15 16 14 20 27 48 69 82 33 8 17 6 31
927 900 748 864 819 638 646 746 693 648 420 292 248 255 308 321 286 189 127 185 173 130 75 329 278 66 109 143 124 23 13 20 20 12 24 62 71 84 46 23 18 25 0
861 889 1001 994 876 778 699 702 638 550 477 296 314 306 357 379 354 339 259 233 223 394 268 314 139 476 62 23 20 25 16 13 18 20 33 43 74 48 13 14 36 0 0
630 813 896 981 936 888 800 691 642 523 557 505 433 468 625 555 492 352 349 327 320 387 726 330 236 162 123 53 33 34 17 0 4 27 9 1 49 58 25 16 0 0 0
562 900 1012 1056 945 968 863 757 797 735 772 771 706 668 655 660 567 515 487 537 838 537 524 337 389 354 169 67 28 43 37 14 2 5 19 26 24 17 13 10 1 0 0
9 693 960 1181 1007 1066 968 863 863 850 788 812 841 901 920 876 631 592 492 418 432 342 197 117 56 27 26 1 0 2 62 68 38 15 0 0 5 9 10 11 17 13 14
0 0 20 907 1132 1111 1035 1004 880 752 827 766 859 868 875 748 630 690 615 571 336 9 0 0 0 0 0 0 0 0 0 0 1 14 6 0 0 12 32 33 4 3 8
0 0 0 10 737 940 879 1060 920 803 777 773 691 710 739 687 603 239 0 0 0 0 0 0 0 0 0 0 0 0 0 0 0 4 17 16 2 3 42 27 21 27 4

GFSSE_con_mucape_072.txt.gz
CAPE
756 1355 1915 1663 1200 1093 848 541 463 218 46 391 218 0 0 108 368 469 346 469 486 122 29 8 5 0 1 7 7 1 2 99 198 261 281 353 226 81 42 0 34 83 11
1104 1465 1973 1772 1459 1278 1238 848 503 624 416 540 6 0 0 6 123 425 383 233 124 10 11 2 2 4 6 14 9 10 0 2 14 24 67 145 170 301 182 252 550 250 177
1337 1449 1488 1740 1635 1367 1070 647 340 494 528 346 4 0 5 10 23 372 432 247 25 13 8 2 0 0 0 1 14 22 4 0 0 0 2 2 26 231 186 201 179 89 103
1306 1377 1409 1638 1597 1240 1022 741 307 601 724 442 3 1 8 9 7 16 255 85 16 8 4 1 0 0 0 0 3 0 74 197 161 13 0 0 0 9 3 5 8 12 10
1262 1412 1530 1686 1572 1404 1131 739 283 611 801 518 11 4 4 13 13 12 5 11 6 3 3 1 0 0 0 0 0 23 97 16 0 0 0 0 0 2 0 0 0 1 6
1181 1449 1494 1553 1548 1406 1366 720 167 797 555 435 12 1 3 5 10 12 11 14 12 6 2 1 0 0 0 0 0 0 0 3 0 0 0 0 0 0 0 0 0 0 0
1317 1509 1419 1531 1495 1359 1052 730 476 495 927 592 85 2 4 6 6 11 10 7 6 7 3 0 0 0 0 0 0 0 0 0 0 0 0 0 0 9 0 0 0 0 0
1369 1424 1225 1280 1408 1309 1045 712 499 412 1113 950 409 2 1 5 6 8 8 9 9 7 6 0 0 40 42 16 0 0 0 0 0 0 0 0 22 22 7 0 0 0 0
1441 1367 1264 1167 1109 1044 794 587 328 342 940 1229 800 364 61 30 9 4 7 7 6 2 18 18 1 15 45 23 0 0 0 0 0 0 0 0 26 13 12 0 0 0 0
1335 1335 1238 1074 901 488 288 221 480 757 828 970 688 315 70 24 37 59 78 53 17 7 8 10 7 0 0 0 0 0 0 0 0 0 0 0 31 5 0 0 0 0 0
1293 1182 1075 971 680 248 55 35 365 401 608 638 484 103 41 4 0 0 0 30 42 19 8 7 6 0 0 0 0 0 0 0 0 0 0 0 0 4 3 0 0 0 0
899 1064 1004 898 545 196 44 2 241 257 364 549 444 73 18 4 0 0 0 2 40 34 20 3 0 0 0 0 0 0 0 0 0 0 0 0 0 0 16 7 0 0 0
529 890 909 829 514 299 88 6 13 188 213 403 328 77 18 7 9 9 5 0 0 0 0 0 0 0 0 0 0 0 0 0 0 0 0 0 0 0 0 39 0 0 0
443 710 764 835 607 412 287 80 27 0 77 92 117 41 17 2 18 17 3 0 0 0 0 0 0 0 0 0 0 0 0 0 0 0 0 0 0 0 0 59 52 0 0
568 691 776 783 692 511 332 177 178 121 13 29 2 0 0 5 25 7 0 0 0 0 0 0 0 0 0 0 0 0 0 0 0 0 0 0 0 0 0 0 69 124 23
712 929 801 675 792 691 605 396 397 219 162 159 139 99 29 23 3 0 0 0 0 0 0 0 0 0 0 0 0 0 0 0 0 0 0 0 0 0 0 0 0 34 162
843 953 915 753 679 830 905 614 436 224 158 179 239 178 145 146 60 40 0 0 0 0 0 0 0 0 0 0 0 0 0 0 0 0 0 0 0 3 7 20 15 11 46
772 767 926 866 755 928 1012 868 599 397 209 268 290 288 195 227 118 80 16 0 0 0 0 0 0 0 0 0 0 0 0 4 7 9 11 11 18 15 21 18 38 73 62
860 801 875 899 789 894 1054 862 774 650 404 333 357 365 274 248 198 134 60 27 15 3 5 0 6 0 2 2 9 5 8 60 26 117 20 19 45 50 44 35 20 26 59
949 1018 1035 812 823 911 831 788 602 548 654 528 493 353 327 290 276 268 138 74 48 33 76 65 17 139 56 50 150 83 14 3 2 1 2 15 37 61 65 47 49 14 44
857 938 844 811 875 715 704 683 636 612 623 412 487 380 333 312 348 355 246 166 237 215 123 182 236 139 92 54 19 16 6 4 4 0 10 8 8 25 67 55 19 23 19
873 909 911 789 851 876 801 593 625 668 614 596 304 294 303 394 403 385 387 307 281 284 240 524 307 241 136 54 20 24 3 0 0 0 0 5 2 21 24 37 24 8 6
642 840 857 902 936 907 816 662 746 719 560 453 365 355 483 469 561 629 570 402 464 682 516 441 331 214 149 56 41 32 23 9 0 0 10 1 7 23 22 23 11 1 0
69 700 828 888 914 910 881 843 749 667 577 644 589 500 703 588 523 566 560 504 743 421 390 287 220 113 42 35 18 39 4 50 34 10 0 0 0 2 6 10 14 9 21
0 366 773 844 767 853 1021 813 695 665 541 481 503 455 677 657 554 607 598 596 543 435 411 455 339 30 0 0 0 0 0 0 0 16 2 1 0 0 8 13 15 16 32
0 0 153 555 698 965 1002 757 622 499 504 422 462 595 523 413 368 472 478 606 621 453 64 0 0 0 0 0 0 0 0 0 0 0 3 5 0 0 2 17 33 24 19

GFSSE_con_mucape_075.txt.gz
CAPE
699 1049 1503 1424 1139 821 531 312 206 65 460 41 4 266 571 813 844 590 402 229 227 50 6 0 9 26 17 13 13 152 201 217 229 201 214 210 64 41 193 250 228 1 0
877 1116 1508 1624 1292 887 662 481 195 275 498 74 0 19 371 572 556 415 282 107 38 7 4 6 16 50 15 57 7 7 48 0 5 0 48 115 261 323 229 198 407 10 7
1064 1161 1141 1574 1456 1275 762 459 126 335 455 10 0 0 135 452 479 466 328 49 12 4 3 9 14 52 52 22 5 41 0 0 0 0 3 0 3 112 121 52 92 82 31
1179 1176 1004 1426 1314 956 678 365 605 366 12 0 0 2 10 283 480 428 240 19 6 4 2 1 0 1 2 0 24 248 93 62 0 0 0 0 0 11 2 3 6 21 10
1184 1183 1068 1386 1228 1030 724 376 673 437 29 1 5 40 18 9 361 287 92 3 5 4 1 0 0 0 0 17 344 172 77 0 0 0 0 0 0 0 0 0 0 1 5
1143 1258 1234 1384 1196 1198 1059 672 629 391 73 1 5 13 24 6 9 8 10 2 5 3 1 0 0 0 0 43 54 80 22 0 0 0 0 0 0 0 0 0 0 0 1
1085 1164 1050 1338 1204 913 856 740 824 982 175 3 4 6 13 14 11 10 3 1 4 1 0 0 0 0 0 0 0 19 12 0 0 0 0 0 2 4 0 0 0 0 0
1175 1165 1056 1159 1256 980 758 677 688 1078 685 29 5 8 9 12 14 6 8 5 5 1 0 0 0 0 0 0 0 0 0 0 0 0 0 0 24 21 0 0 0 0 0
1225 1154 1041 926 967 958 795 612 507 920 1071 542 99 33 10 13 12 11 4 10 22 24 5 0 8 25 19 0 0 0 0 0 0 0 0 0 2 3 0 0 0 0 0
964 1000 1019 912 820 546 345 343 283 532 928 643 285 55 29 2 28 53 77 86 38 29 27 16 7 0 0 0 0 0 0 0 0 0 0 0 0 0 0 0 0 0 0
527 704 949 869 588 223 84 110 412 482 731 535 199 14 0 0 4 21 0 14 34 20 14 15 9 0 0 0 0 0 0 0 0 0 0 0 0 0 0 0 0 0 0
877 1153 1063 797 462 179 37 169 340 372 457 569 108 19 0 0 0 0 0 0 39 26 11 0 0 0 0 0 0 0 0 0 0 0 0 0 0 0 0 3 0 0 0
388 905 1104 794 460 241 49 149 319 380 379 537 327 29 10 0 0 0 0 0 0 0 0 0 0 0 0 0 0 0 0 0 0 0 0 0 0 0 0 0 0 0 0
436 248 474 696 498 320 141 30 293 283 383 567 437 103 16 9 4 6 1 0 0 0 0 0 0 0 0 0 0 0 0 0 0 0 0 0 0 0 0 0 101 0 0
131 115 266 407 424 372 287 179 25 222 243 382 333 160 53 45 24 25 19 0 0 0 0 0 0 0 0 0 0 0 0 0 0 0 0 0 0 0 0 0 76 114 62
133 114 363 524 556 363 253 292 167 174 74 83 119 104 73 4 17 33 15 0 0 0 0 0 0 0 0 0 0 0 0 0 0 0 0 0 0 1 9 18 16 53 185
347 383 524 560 654 483 253 240 312 331 260 179 131 89 65 67 71 20 0 0 0 0 0 0 0 0 0 0 0 0 0 0 0 0 2 8 12 8 27 29 39 26 39
655 833 712 706 643 573 471 217 290 438 263 243 239 234 204 163 202 99 66 1 0 0 0 0 0 0 0 0 0 0 0 3 3 9 11 9 13 19 19 37 42 104 144
695 748 799 763 616 609 510 526 679 437 339 244 252 302 302 199 243 191 121 45 23 17 11 11 8 7 6 0 3 2 4 7 4 10 10 10 22 30 45 73 70 61 81
835 758 748 738 696 593 617 816 677 589 564 373 343 371 356 304 242 252 205 130 70 43 36 42 64 23 17 10 16 16 13 8 6 0 0 6 19 23 44 63 77 69 55
809 631 696 587 672 410 485 713 581 568 638 572 590 521 339 434 276 312 313 245 122 122 96 146 133 204 144 87 60 11 1 0 0 0 0 0 0 10 13 56 75 61 27
577 681 791 685 677 644 661 588 587 621 359 517 592 364 376 343 380 347 368 349 223 262 304 398 312 214 275 182 53 15 3 0 0 0 0 0 0 1 18 17 33 41 36
337 594 628 650 771 777 585 635 621 434 476 585 658 536 284 331 399 389 366 414 393 425 395 426 417 404 194 110 62 19 10 1 0 0 0 0 0 0 7 13 18 9 8
14 333 627 681 716 690 682 693 638 415 389 380 547 561 279 366 372 467 578 464 489 560 504 530 609 434 258 101 95 80 54 13 18 0 0 0 0 0 2 12 9 10 10
0 0 419 588 677 757 728 729 601 551 541 349 198 217 202 309 436 436 376 313 297 266 274 240 275 194 244 317 18 0 0 0 0 9 1 0 0 0 0 0 4 2 8
0 0 0 432 625 743 777 661 628 412 336 277 183 140 143 192 212 207 166 142 112 121 167 177 263 162 0 0 0 0 0 0 0 0 0 0 0 0 1 1 3 4 9

GFSSE_con_mucape_078.txt.gz
CAPE
426 779 1305 1231 1067 484 219 131 87 192 224 281 580 854 950 1038 798 616 377 173 37 1 10 11 9 19 138 141 169 136 146 171 140 137 184 225 354 377 375 39 4 0 0
605 914 1472 1511 1046 690 203 246 206 590 169 38 388 743 983 977 784 460 298 45 10 5 9 14 20 202 8 60 109 44 60 0 0 101 106 66 352 263 163 118 80 6 10
876 918 963 1494 1254 1150 627 224 143 369 117 23 201 565 634 637 615 405 130 11 7 6 9 66 91 14 71 67 15 7 1 0 0 0 0 0 0 13 1 0 18 55 83
942 932 896 1132 1272 963 550 84 480 130 0 0 11 406 587 625 621 200 42 7 5 7 14 8 41 3 0 8 91 75 56 0 0 0 0 0 0 0 1 3 7 2 8
999 970 849 1141 1185 826 328 430 470 38 0 1 29 371 455 589 531 252 8 7 5 5 8 49 0 0 99 377 287 164 29 0 0 0 0 0 0 0 0 0 0 2 4
1016 989 945 1176 1070 1129 691 748 417 31 2 3 47 56 321 562 526 97 7 7 7 4 31 48 0 0 57 497 90 53 20 0 0 0 0 0 0 0 0 0 0 0 1
997 925 813 1128 1067 883 836 735 723 110 2 5 15 11 3 10 10 5 6 7 7 4 9 10 0 0 0 51 81 37 0 0 0 0 0 0 0 0 0 0 0 0 0
901 834 672 778 1124 1111 778 772 731 413 4 6 12 20 14 15 9 9 4 6 5 2 0 0 0 0 13 0 7 7 0 0 0 0 0 0 25 3 0 0 0 0 0
789 768 646 695 817 744 667 695 783 797 273 7 18 22 26 24 11 7 5 5 32 15 19 23 25 22 8 0 0 0 0 0 0 0 0 0 0 3 0 0 0 0 0
505 679 711 649 606 374 277 344 385 550 437 129 54 13 12 10 13 11 39 65 52 44 18 7 7 13 0 0 0 0 0 0 0 0 0 0 0 0 0 0 0 0 0
311 498 652 635 469 206 82 88 148 539 412 157 43 0 3 1 3 5 0 40 52 27 17 12 1 0 0 0 0 0 0 0 0 0 0 0 0 0 0 0 0 0 0
94 370 635 553 366 122 53 54 71 381 468 176 33 0 0 0 0 0 0 0 14 12 5 0 0 0 0 0 0 0 0 0 0 0 0 0 0 0 0 1 0 0 0
94 544 794 650 392 159 39 112 121 155 520 568 43 13 0 2 4 0 0 0 0 0 0 0 0 0 0 0 0 0 0 0 0 0 0 0 0 0 0 0 0 0 0
114 161 324 561 440 272 108 160 218 214 202 555 190 36 8 0 0 0 0 0 0 0 0 0 0 0 0 0 0 0 0 0 0 0 0 0 0 0 0 0 0 93 0
53 21 26 136 313 345 216 112 260 303 260 279 403 218 48 16 7 0 12 0 0 0 0 0 0 0 0 0 0 0 0 0 0 0 0 0 0 0 0 1 8 142 99
73 28 11 5 254 298 308 159 244 282 277 320 557 369 162 57 46 34 27 16 0 0 0 0 0 0 0 0 0 0 0 0 0 0 0 0 0 4 10 16 17 23 151
5 25 6 25 226 278 214 144 160 96 237 269 366 319 206 81 27 6 26 10 0 0 0 0 0 0 0 0 0 0 0 0 0 0 0 3 6 7 8 20 30 32 66
12 82 120 73 353 410 255 164 146 139 212 190 160 136 107 67 96 115 65 33 0 0 0 0 0 0 0 0 0 0 0 1 2 3 3 10 6 11 16 26 28 62 86
199 231 433 418 456 464 333 177 178 196 173 182 206 153 165 185 160 194 166 99 30 9 5 1 1 2 9 14 17 11 2 4 4 0 0 0 0 0 12 26 38 70 68
513 443 348 449 545 471 405 245 296 276 225 219 202 209 209 252 216 183 220 185 110 41 39 28 35 57 44 42 31 30 15 0 0 0 0 0 0 0 0 20 34 71 70
426 387 471 419 354 320 318 260 425 385 299 300 334 200 284 297 321 277 198 250 188 101 53 43 82 125 89 108 72 43 4 0 0 0 0 0 0 0 0 6 10 59 79
558 468 471 414 331 271 227 60 133 179 270 310 383 400 314 344 345 340 255 291 290 200 132 148 190 165 249 124 121 11 0 0 0 0 0 0 0 0 0 1 10 19 36
328 537 675 511 398 369 338 225 157 248 322 242 326 304 250 282 276 243 270 205 217 236 248 270 281 257 235 110 118 55 8 0 0 0 0 0 0 0 0 1 12 19 25
65 99 538 567 571 454 409 331 134 176 135 164 193 284 164 123 178 173 158 178 181 243 289 270 267 254 224 165 87 124 201 129 48 0 0 0 0 0 0 0 8 15 12
28 33 224 548 557 482 430 379 242 225 250 196 179 210 192 187 112 96 80 135 145 121 83 178 139 141 95 95 94 133 0 0 0 0 0 0 0 0 0 0 4 5 4
6 11 1 289 498 528 492 466 467 358 279 222 192 147 165 146 84 63 112 92 47 7 6 7 18 13 43 70 1 0 0 0 0 0 0 0 0 0 0 1 5 15 12

GFSSE_con_mucape_081.txt.gz
CAPE
499 832 1366 1189 902 481 371 165 110 513 606 277 707 900 1075 1037 917 711 347 73 305 20 5 8 76 359 270 170 135 212 149 130 273 269 302 566 613 183 3 0 2 0 1
626 854 1230 1395 897 750 320 221 465 637 669 873 789 911 1022 1291 773 518 150 5 11 13 12 16 189 278 303 76 9 35 1 135 10 3 2 115 302 65 4 21 151 39 120
819 831 950 1371 1175 661 404 229 672 33 277 592 1062 1195 1046 1004 735 397 64 18 5 12 19 17 8 15 27 50 44 2 1 0 0 0 0 0 0 0 0 0 47 56 11
875 967 870 1223 1191 1049 414 238 519 29 0 425 708 904 954 791 747 98 18 7 10 77 14 5 12 5 29 86 62 37 0 0 0 0 0 0 0 0 1 3 1 2 4
1007 1006 915 1096 1206 982 156 526 314 6 0 158 565 676 922 1000 359 63 9 10 153 79 23 9 3 106 264 339 131 25 0 0 0 0 0 0 0 0 0 0 1 3 2
1068 1092 972 1032 1147 898 693 695 149 0 0 0 402 507 811 849 294 10 9 32 93 94 26 2 38 275 442 295 57 26 0 0 0 0 0 0 0 0 0 0 0 0 1
1123 1090 864 1083 1161 1015 1141 758 326 0 1 2 7 371 538 662 224 11 9 7 6 72 49 0 37 53 155 185 63 0 0 0 0 0 0 1 2 0 0 0 0 0 0
994 1020 788 796 1135 1092 1182 734 528 18 2 13 32 123 462 187 15 9 9 6 7 75 50 17 30 23 22 64 41 0 0 0 0 0 0 5 12 4 0 0 0 0 0
907 905 742 579 734 918 862 644 580 133 5 14 18 17 126 119 45 13 13 8 33 52 45 34 27 15 10 0 0 0 0 0 0 0 0 0 0 4 0 0 0 0 0
459 747 691 570 782 466 587 552 547 309 33 13 20 20 9 7 20 63 69 91 52 36 36 42 35 16 0 0 0 0 0 0 0 0 0 0 0 0 0 0 0 0 0
149 329 341 623 589 272 197 454 457 333 81 11 6 8 9 3 12 7 2 49 92 53 20 14 0 0 0 0 0 0 0 0 0 0 0 0 0 0 0 0 0 0 0
57 48 226 323 379 201 87 171 447 464 146 0 0 0 1 5 7 1 0 5 58 34 20 6 0 0 0 0 0 0 0 0 0 0 0 0 0 0 0 0 0 0 0
25 15 179 262 239 161 65 93 130 573 423 69 5 0 0 5 33 22 36 25 27 0 0 0 0 0 0 0 0 0 0 0 0 0 0 0 0 0 0 0 0 0 0
10 86 110 176 169 167 49 75 87 348 393 135 33 8 7 7 9 0 0 2 0 0 0 0 0 0 0 0 0 0 0 0 0 0 0 0 0 0 0 0 0 82 6
3 32 77 160 203 181 150 81 94 121 410 316 135 33 10 1 0 0 0 0 0 0 0 0 0 0 0 0 0 0 0 0 0 0 0 0 0 0 0 5 2 90 102
21 29 67 67 145 171 201 100 162 153 171 307 250 196 56 28 12 4 7 0 0 0 0 0 0 0 0 0 0 0 0 0 0 0 0 0 0 1 4 8 8 23 56
66 41 1 39 66 274 237 139 186 262 246 167 284 304 280 139 40 34 24 21 3 0 0 0 0 0 0 0 0 0 0 0 0 0 0 0 0 1 0 3 10 22 38
6 0 0 7 4 132 221 165 148 211 268 245 231 317 394 215 75 47 27 33 3 0 0 0 0 0 0 0 0 0 0 0 0 0 0 0 0 0 0 3 7 29 53
20 21 5 2 14 342 237 157 142 135 147 131 172 250 279 223 129 43 96 68 41 0 0 0 0 0 0 0 0 0 2 0 0 0 0 0 0 0 0 0 5 18 43
117 41 19 16 45 393 309 253 280 264 210 166 128 91 112 74 51 93 140 158 101 43 5 0 0 7 24 24 19 27 46 22 0 3 0 0 0 0 0 0 0 7 23
213 217 152 258 219 202 205 181 304 296 358 239 201 164 127 104 130 174 176 182 182 122 61 32 29 49 70 37 65 73 12 0 0 0 0 0 0 0 0 0 0 0 20
165 165 190 238 136 238 128 114 60 105 228 327 284 201 189 139 169 236 243 168 198 240 168 91 67 108 100 85 163 17 16 0 0 0 0 0 0 0 0 0 0 0 13
197 150 163 269 253 187 164 170 96 52 75 89 165 156 147 179 188 128 152 150 146 191 174 147 164 193 198 152 79 72 8 1 0 0 0 0 0 0 0 0 0 0 7
100 210 220 231 299 305 166 262 145 82 67 106 138 92 117 73 118 109 127 137 131 118 87 111 149 142 170 267 105 89 19 36 12 4 0 0 0 0 0 0 0 0 10
28 13 14 294 373 313 292 272 137 98 22 113 109 84 141 95 102 118 108 74 45 79 100 67 52 49 68 113 96 62 49 10 0 0 0 0 0 0 0 0 0 0 0
17 18 5 69 332 399 344 289 254 169 66 73 91 107 99 83 73 79 92 66 44 58 60 7 23 7 1 7 2 1 0 0 0 0 0 0 0 0 0 0 0 0 2

GFSSE_con_mucape_084.txt.gz
CAPE
520 782 1422 1277 828 572 366 186 153 417 536 1097 1024 997 998 1079 1077 959 592 260 465 26 8 138 468 543 507 422 322 178 170 163 364 363 486 607 199 1 0 0 94 38 256
429 834 1500 1435 957 620 416 253 847 792 608 1282 1014 1035 1113 1114 997 573 274 68 16 5 38 193 355 209 8 76 15 139 130 68 7 5 195 136 117 17 22 41 459 348 156
639 782 1112 1240 1246 1017 675 329 516 526 753 1104 1160 1160 1180 1209 747 260 114 90 111 22 52 166 372 237 8 11 10 7 1 0 0 0 0 0 0 0 0 0 6 3 20
716 768 854 1188 1181 1063 607 404 207 204 586 1182 1030 1288 1147 1040 888 156 62 54 382 227 48 18 16 16 10 20 2 0 0 0 0 0 0 0 0 0 1 0 0 0 0
716 691 771 1123 1248 1108 525 741 76 30 380 828 1043 1024 1073 1064 226 95 42 269 313 315 87 14 4 38 78 71 6 0 0 0 0 0 0 0 0 0 0 0 0 1 0
805 806 920 1119 1184 1142 765 713 155 0 62 485 678 784 841 1083 175 30 205 277 299 225 15 77 209 335 519 69 18 0 0 0 0 0 0 0 0 0 0 0 0 0 0
758 803 927 1039 1118 895 1221 761 305 1 0 165 410 712 648 597 53 25 14 109 146 109 51 91 299 157 103 58 1 0 0 0 0 0 2 6 5 1 0 0 0 0 0
783 806 735 709 1020 1105 1220 695 277 58 0 108 345 598 630 541 37 10 10 64 112 36 47 41 40 98 115 54 0 0 0 0 0 0 1 5 6 3 0 0 0 0 0
776 765 735 697 426 950 909 579 214 60 114 161 214 452 499 204 16 5 18 51 89 52 44 32 22 11 15 22 0 0 0 0 0 0 0 0 0 3 0 0 0 0 0
540 871 817 651 435 320 592 410 155 46 67 46 130 66 2 2 16 46 2 5 119 97 60 38 27 13 0 0 0 0 0 0 0 0 0 0 0 0 0 0 0 0 0
182 263 742 685 517 213 476 457 207 56 0 6 2 3 1 9 8 8 5 7 93 72 51 46 32 7 0 0 0 0 0 0 0 0 0 0 0 0 0 0 0 0 0
61 43 169 629 593 251 238 634 514 43 5 3 10 12 11 2 7 3 6 46 102 87 57 18 1 0 0 0 0 0 0 0 0 0 0 0 0 0 0 0 0 0 0
0 20 86 201 460 199 8 680 747 503 57 7 2 8 12 12 12 5 36 47 22 0 0 0 0 0 0 0 0 0 0 0 0 0 0 0 0 0 0 0 13 0 0
14 43 170 151 326 228 101 128 802 739 372 129 1 0 2 5 6 2 3 0 0 0 0 0 0 0 0 0 0 0 0 0 0 0 0 0 0 0 0 0 0 95 49
122 22 84 53 138 293 254 27 241 782 679 347 94 0 0 0 10 0 0 0 0 0 0 0 0 0 0 0 0 0 0 0 0 0 0 0 0 0 0 0 1 18 156
89 66 27 23 42 134 279 167 40 294 761 651 251 102 34 25 2 0 0 0 0 0 0 0 0 0 0 0 0 0 0 0 0 0 0 0 0 0 0 1 10 19 41
58 30 9 50 55 107 324 307 83 68 300 675 595 361 150 132 75 46 28 68 52 16 0 0 0 0 3 0 0 0 0 3 2 1 3 5 3 0 0 0 7 20 27
50 101 94 88 25 72 469 309 220 219 184 222 537 585 373 249 154 136 151 149 101 26 7 1 0 0 0 0 0 0 1 5 35 9 14 11 7 1 0 0 0 14 43
144 153 65 50 12 153 454 343 250 291 368 374 332 384 427 438 299 186 114 119 122 39 21 10 13 0 0 0 0 13 33 45 54 10 12 15 9 0 1 0 0 0 0
113 70 27 8 38 165 396 373 299 193 171 245 279 393 405 455 431 304 100 110 99 57 17 19 4 0 0 6 31 35 82 58 41 62 40 4 1 0 0 0 0 3 0
130 100 82 23 89 345 508 461 360 457 408 345 330 272 246 203 190 196 78 120 168 144 73 28 7 0 7 69 168 93 46 52 34 21 6 0 0 0 0 0 0 0 5
79 179 103 152 179 75 118 241 232 270 318 326 440 474 391 303 231 190 141 151 182 213 192 80 21 55 91 162 148 171 29 16 0 0 0 0 0 0 0 0 0 0 11
37 83 94 135 95 97 148 182 150 127 159 147 223 331 441 353 243 286 261 175 127 135 310 221 182 206 377 200 208 154 40 1 5 0 0 0 0 0 0 0 0 0 0
9 73 70 102 96 89 99 125 139 125 67 105 81 244 271 255 256 175 125 76 105 55 108 104 86 117 257 203 167 179 201 91 23 0 0 0 0 0 0 0 0 0 0
5 160 114 139 167 113 171 194 104 81 68 89 43 88 155 97 141 83 117 76 37 75 56 78 32 60 58 46 33 69 156 169 67 56 0 0 0 0 0 0 0 0 0
10 15 55 55 153 267 179 145 113 24 103 83 51 60 74 99 65 86 103 89 91 100 79 58 35 34 25 35 14 27 58 0 0 6 1 0 0 0 0 0 0 0 0

GFSSE_con_mucape_087.txt.gz
CAPE
782 1002 1647 1244 784 586 374 317 189 446 1371 1407 1069 905 842 949 1054 967 544 277 475 90 102 447 653 608 510 488 196 197 465 364 434 411 451 320 84 20 32 264 436 155 379
572 973 1587 1528 667 588 383 284 525 676 1298 1494 1240 998 957 1126 1127 854 418 128 15 37 380 690 411 525 325 15 206 15 155 73 39 178 0 0 72 58 0 51 371 93 299
566 969 1007 1501 1132 977 637 489 663 661 933 1407 1317 1332 1160 1198 1032 640 252 75 20 244 555 339 154 15 9 10 9 7 1 0 0 0 3 0 0 0 0 0 14 13 11
699 983 920 1439 1408 1052 805 608 687 499 672 1187 1224 1323 1319 1184 726 437 194 75 290 498 499 397 124 7 11 7 4 0 0 0 0 0 0 0 0 0 0 0 0 0 1
759 1048 980 1333 1387 1122 746 495 455 577 835 954 1030 1137 1272 1107 504 297 301 527 393 424 258 124 67 19 51 1 0 0 0 0 0 0 0 0 0 0 0 0 0 0 0
672 729 1124 1186 1271 1165 1198 629 183 339 778 962 1015 953 866 1064 351 235 414 431 259 37 55 36 111 134 94 0 0 0 0 0 0 0 0 0 0 0 0 0 0 0 0
725 760 1096 1160 1264 1166 1157 934 438 128 584 693 838 835 670 817 157 112 359 300 175 106 91 293 364 200 53 0 0 0 0 0 0 0 1 0 0 1 0 0 0 0 0
777 765 843 749 1024 1013 1285 826 475 213 292 515 707 806 633 610 67 93 232 213 160 76 118 301 146 107 64 0 0 0 0 0 0 0 1 0 1 1 0 0 0 0 0
481 537 591 612 619 739 854 566 400 260 268 390 534 665 494 254 91 7 120 273 146 14 75 60 96 118 82 0 0 0 0 0 0 0 0 0 0 1 0 0 0 0 0
248 220 319 582 473 29 507 373 278 240 362 309 262 219 46 32 18 32 25 201 169 67 65 38 22 14 0 0 0 0 0 0 0 0 0 0 0 0 0 0 0 0 0
311 312 194 291 470 142 418 338 100 72 57 59 121 86 30 6 6 5 13 92 144 139 78 37 25 11 3 0 0 0 0 0 0 0 0 0 0 0 0 0 0 0 0
105 26 44 53 257 238 405 368 73 1 1 0 15 180 122 19 7 0 4 26 109 100 82 46 20 0 0 0 0 0 0 0 0 0 0 0 0 0 0 0 0 0 0
242 63 15 8 90 57 477 695 290 8 0 2 0 9 37 11 2 9 10 9 35 15 2 8 0 0 0 0 0 0 0 0 0 0 0 0 0 0 0 0 0 0 0
197 95 10 0 4 2 113 782 516 380 6 6 9 3 20 7 12 5 1 0 0 0 0 0 0 0 0 0 0 0 0 0 0 0 0 0 0 0 0 0 0 40 46
78 102 8 3 2 18 179 194 427 461 260 10 3 6 8 11 36 1 0 0 0 0 0 0 0 0 0 0 0 0 0 0 0 0 0 0 0 0 0 0 0 3 32
65 51 22 10 5 18 143 241 203 391 562 314 60 0 1 2 39 32 0 6 0 0 0 0 0 0 0 0 0 0 0 0 0 1 0 0 0 0 0 0 9 15 23
59 77 44 13 3 13 139 279 185 244 387 670 308 54 0 0 0 0 0 0 0 0 0 0 0 0 0 0 0 0 0 3 2 0 10 17 7 0 0 0 12 36 49
75 164 71 54 41 36 23 134 313 147 264 340 567 286 124 113 76 54 37 66 68 50 20 0 0 0 0 0 0 0 0 4 2 10 15 17 22 16 6 5 3 11 38
77 139 168 125 91 5 20 143 379 248 163 247 489 672 471 259 247 190 199 196 146 99 26 15 10 4 6 1 0 0 30 46 41 7 6 11 21 8 5 3 0 0 0
179 130 135 114 63 8 32 262 327 326 312 375 358 354 454 472 460 411 244 131 138 154 75 41 17 32 15 8 0 6 76 97 80 30 13 8 0 0 0 0 0 3 1
282 187 191 217 13 21 68 264 302 306 305 343 409 461 451 441 442 512 371 140 173 246 185 69 36 19 18 18 61 62 91 93 65 53 24 0 0 0 0 0 0 0 12
169 93 113 45 53 71 100 156 245 446 550 507 502 486 374 338 295 321 361 223 229 267 235 212 133 44 35 60 226 150 158 91 35 7 0 0 0 0 0 0 0 0 0
131 47 94 100 65 62 79 100 81 143 269 351 496 440 419 420 340 427 432 356 279 182 221 311 175 99 149 263 295 225 103 35 70 12 19 0 0 0 0 0 0 0 0
0 6 82 51 113 89 62 91 61 134 171 213 291 321 498 380 343 347 316 391 284 195 93 103 140 93 203 254 216 150 118 133 65 32 17 0 0 0 0 0 0 0 0
48 18 17 15 23 113 70 59 91 86 105 127 68 133 189 242 193 238 310 252 158 120 92 70 68 80 17 115 45 19 16 12 48 74 0 0 0 0 0 0 0 0 0
0 1 0 37 22 58 96 120 83 113 104 63 132 108 75 96 142 136 117 182 167 51 52 56 70 59 35 74 68 45 40 18 0 0 0 2 1 0 1 0 0 0 0

GFSSE_con_mucape_090.txt.gz
CAPE
896 955 1657 1091 812 602 474 321 487 1390 1889 1630 1124 1043 1185 1217 1075 908 424 93 287 265 265 604 600 584 530 396 320 386 372 446 268 130 203 234 128 209 324 288 501 308 202
991 991 1619 1423 815 621 504 432 698 1026 1679 1384 1391 953 1042 1174 1156 851 449 165 180 387 740 684 613 425 188 30 135 190 74 61 4 61 0 4 119 22 7 181 372 168 237
977 802 1332 1508 1229 1051 906 514 758 815 1564 1388 1299 1233 1097 1221 1062 755 327 213 685 810 517 279 139 7 150 257 98 14 0 0 0 41 0 0 0 2 0 0 38 10 10
981 829 872 1411 1291 1059 843 571 689 465 865 1454 1245 1480 1713 1193 994 594 225 318 960 991 712 118 15 13 44 34 2 0 0 0 0 0 0 0 0 0 0 0 4 9 3
1033 752 956 1302 1365 1167 705 743 702 539 689 1194 1103 1184 1244 1103 1098 447 422 598 809 797 558 99 15 9 4 0 0 0 0 0 0 0 0 0 0 0 0 0 0 0 0
971 967 1205 1353 1218 1178 969 811 540 629 520 911 1004 1092 1292 936 699 710 617 365 321 246 332 113 89 65 0 0 0 0 0 0 0 0 0 0 0 1 0 0 0 0 0
838 1011 1061 1229 1077 1283 1165 758 631 504 917 861 904 843 809 822 493 478 344 59 15 100 60 79 116 24 0 0 0 0 0 0 0 0 0 0 0 0 0 0 0 0 0
817 942 771 1058 1216 1040 1126 822 461 450 791 1060 877 764 762 636 449 351 147 8 8 75 216 405 203 39 0 0 0 0 0 0 0 0 0 0 2 1 0 0 0 0 0
828 829 655 443 725 725 1081 765 456 320 419 731 738 610 414 408 387 34 19 118 174 143 428 354 141 80 0 0 0 0 0 0 0 0 0 0 0 0 0 0 0 0 0
623 562 469 338 435 348 770 439 290 182 344 254 435 226 78 8 10 9 69 62 55 169 158 171 159 118 41 0 0 0 0 0 0 0 0 0 0 0 0 0 0 0 0
526 369 154 286 346 54 175 288 167 182 142 145 153 86 61 28 0 4 11 29 66 112 110 63 35 33 6 0 0 0 0 0 0 0 0 0 0 0 0 0 0 0 0
365 220 65 113 291 144 88 136 127 34 0 30 118 88 62 15 3 3 13 23 91 102 90 72 42 22 0 0 0 0 0 0 0 0 0 0 0 0 0 0 0 0 0
299 201 103 136 138 89 52 25 74 6 0 2 5 62 47 35 0 0 4 11 10 8 5 14 4 0 0 0 0 0 0 0 0 0 0 0 0 0 0 0 0 0 0
270 144 91 62 6 1 34 15 36 55 0 0 0 2 52 17 0 0 0 0 4 0 0 0 0 0 0 0 0 0 0 0 0 0 0 0 0 0 0 0 0 21 51
277 260 130 52 8 62 97 59 89 120 0 0 0 0 2 1 0 0 0 0 0 0 0 0 0 0 0 0 0 0 0 0 0 0 0 0 0 0 0 0 0 0 3
222 104 109 57 11 109 33 25 9 138 158 0 0 0 11 0 0 0 0 0 0 0 0 0 0 0 0 0 0 0 0 0 0 0 0 0 0 0 0 0 0 11 21
165 83 93 135 44 21 53 21 64 46 107 88 0 0 4 0 0 0 0 0 0 0 0 0 0 0 0 0 0 0 0 0 0 0 0 0 1 0 0 6 23 28 31
236 113 121 144 27 12 10 77 92 82 90 89 141 0 0 0 0 0 0 0 0 0 0 0 0 0 0 0 0 0 0 0 0 0 4 9 4 6 1 7 43 50 23
298 145 35 123 89 91 90 69 100 165 47 174 129 170 8 17 3 0 0 0 20 39 39 8 0 0 0 0 7 0 0 0 12 13 12 3 0 7 1 0 0 0 0
355 179 136 137 105 83 76 50 113 196 131 174 199 190 257 136 151 116 135 131 131 108 95 33 15 13 7 16 0 0 0 15 41 29 22 22 4 1 0 0 0 0 0
283 187 114 106 81 81 39 49 66 110 193 231 262 265 267 335 387 372 236 138 106 160 154 60 55 26 30 28 3 0 9 20 35 55 15 15 2 0 0 0 0 0 0
300 197 123 115 100 86 33 42 109 114 168 165 365 370 361 280 399 368 353 290 109 174 252 207 142 99 56 26 10 66 47 28 11 43 27 9 0 0 0 0 0 0 0
287 155 166 129 88 87 70 67 93 120 82 164 263 285 277 323 347 324 294 313 242 239 263 293 246 196 101 96 41 125 94 50 48 33 9 0 0 0 0 0 0 0 0
216 33 66 123 88 52 51 36 50 41 62 69 107 246 297 343 322 344 317 298 290 250 232 235 172 160 154 127 105 148 101 55 30 3 4 0 0 0 0 0 0 0 0
1 0 0 31 40 22 21 16 21 11 54 61 50 47 94 201 193 244 253 279 247 192 189 110 115 90 61 78 78 69 100 54 13 0 0 0 0 0 0 0 0 0 0
2 0 0 0 17 20 20 13 73 45 48 28 20 46 69 113 148 145 142 189 208 212 169 140 95 70 73 68 11 20 23 49 46 28 0 0 0 0 0 0 0 0 0

GFSSE_con_mucape_093.txt.gz
CAPE
662 1028 1592 953 728 652 511 902 1754 1857 1915 1693 1240 1203 1255 1163 1265 777 172 136 387 531 704 537 659 537 509 576 490 433 137 98 105 104 158 246 355 298 288 376 498 200 240
747 1114 1591 1283 755 573 687 798 1338 1705 1653 1686 1391 1156 1036 1173 1150 642 197 77 364 545 766 736 620 484 458 309 227 191 67 2 0 40 0 9 134 72 69 101 370 110 263
905 1167 1190 1465 1245 1101 835 652 928 1569 1367 1339 1607 1229 1294 1192 1020 656 333 377 814 793 752 545 418 72 30 10 99 37 0 0 0 27 0 0 0 5 1 0 36 6 72
1010 1166 1127 1516 1380 1089 887 451 597 891 1500 1309 1183 1660 1697 1228 918 815 261 670 1008 795 476 321 60 17 7 4 39 0 0 0 0 0 0 0 0 0 0 6 9 5 10
1011 1089 1180 1506 1479 1148 776 553 392 332 1081 1546 1377 1339 1439 1266 862 565 633 1066 895 614 318 28 21 13 7 0 0 0 0 0 0 0 0 0 0 1 0 0 0 0 0
853 966 1396 1527 1523 1245 1208 924 664 357 530 1239 1358 1082 1449 1060 961 881 782 898 604 252 73 0 8 5 0 0 0 0 0 0 0 0 0 0 0 0 0 0 0 0 0
915 1039 1237 1690 1592 1376 1240 1021 941 766 790 934 1124 961 1147 1035 855 853 592 586 297 343 214 28 12 0 0 0 0 0 0 0 0 0 0 0 0 0 0 1 0 0 0
1140 1119 1169 1408 1398 1431 1170 1019 871 829 1274 1155 1172 1000 981 967 767 614 482 111 10 14 69 83 20 0 0 0 0 0 0 0 0 0 0 0 2 0 0 0 0 0 0
1090 1132 1000 1058 1092 1172 1137 827 552 511 837 1169 854 735 616 572 584 280 103 7 54 231 537 479 65 0 0 0 0 0 0 0 0 0 0 0 1 0 0 0 0 0 0
861 867 753 812 630 542 900 646 377 193 387 527 649 387 174 148 147 7 47 29 8 668 529 407 150 21 0 0 0 0 0 0 0 0 0 0 0 0 0 0 0 0 0
673 737 559 480 367 249 363 427 287 167 225 212 338 234 113 64 3 0 14 22 105 188 223 235 185 115 21 0 0 0 0 0 0 0 0 0 0 0 0 0 0 0 0
143 462 414 199 143 164 156 225 137 123 193 298 308 205 112 32 1 0 17 12 31 85 77 74 42 17 0 0 0 0 0 0 0 0 0 24 0 0 0 0 0 0 0
428 135 128 194 159 153 119 53 27 38 80 299 359 152 132 76 37 2 20 16 9 11 0 7 6 0 0 0 0 0 0 0 0 0 0 0 0 0 0 0 0 0 0
227 210 162 168 169 152 117 28 29 24 13 73 321 235 118 76 29 1 16 20 8 7 0 0 0 0 0 0 0 0 0 0 0 0 0 0 0 0 0 0 0 6 22
177 177 142 97 133 72 0 15 38 27 44 24 183 198 75 106 45 0 2 7 2 1 0 0 0 0 0 0 0 0 0 0 0 0 0 0 0 0 0 0 0 0 0
120 154 95 95 66 102 24 0 0 1 9 55 121 203 143 73 33 20 1 1 0 0 0 0 0 0 0 0 0 0 0 0 0 0 0 0 0 0 0 0 0 2 12
86 104 77 59 78 98 60 0 0 12 98 76 67 178 178 79 82 47 0 0 0 0 0 0 0 0 0 0 0 0 0 0 0 0 0 0 0 0 0 3 16 28 44
100 93 125 156 74 76 72 38 1 14 102 136 133 89 120 104 52 46 9 0 0 0 0 0 0 0 0 0 0 0 0 0 0 0 0 0 2 1 2 2 94 136 115
213 140 182 162 110 81 75 30 88 15 96 124 97 83 113 88 46 16 25 0 5 4 0 0 0 0 0 0 0 16 0 0 16 26 20 9 11 3 0 0 0 0 10
251 157 179 181 137 89 60 63 89 99 109 153 107 78 24 30 82 41 29 18 7 0 0 0 0 0 0 0 0 26 9 0 11 20 22 11 8 8 0 0 0 0 0
269 190 109 136 164 140 71 66 66 78 74 86 121 88 93 91 51 17 34 14 28 57 77 77 32 13 20 17 20 14 3 6 22 17 44 46 4 3 1 0 0 0 0
286 240 228 185 149 171 136 79 22 67 9 59 123 96 139 110 192 245 219 196 179 177 172 153 78 54 50 42 26 24 8 18 15 16 33 32 7 9 0 0 0 0 0
292 250 249 230 161 154 110 94 26 17 11 27 53 67 107 199 134 210 275 300 203 137 207 232 194 120 133 102 79 54 73 58 44 55 36 56 5 6 0 0 0 0 0
191 167 172 219 226 195 146 86 44 29 0 38 68 40 72 113 118 129 133 238 299 235 253 284 293 249 216 139 115 116 73 38 39 40 40 52 41 3 0 0 0 0 0
254 140 114 59 198 191 147 102 49 10 12 45 61 54 63 67 122 154 129 91 137 161 201 203 267 230 160 141 108 85 74 74 79 37 40 17 0 0 0 0 0 0 0
189 73 34 56 34 128 102 59 24 63 39 51 28 64 19 48 48 51 94 101 188 182 154 155 191 143 125 107 88 79 41 0 6 45 19 32 3 1 1 0 0 0 0

GFSSE_con_mucape_096.txt.gz
CAPE
635 1122 1640 1070 932 1315 1648 1852 1924 1863 1828 1362 1296 1291 1265 1298 857 168 172 378 501 408 12 42 296 475 663 543 144 56 78 137 131 123 176 359 318 170 409 375 331 136 264
725 1161 1570 1228 880 961 1501 2048 2045 1946 1895 1796 1243 1118 792 1415 952 289 246 538 663 573 639 624 588 688 589 435 25 2 3 4 0 0 2 41 158 143 140 128 326 257 362
951 1112 1089 1371 1280 1202 1154 1196 1859 1816 1672 1741 1717 1156 901 1270 991 454 136 580 799 846 812 631 511 423 214 126 69 1 1 0 0 0 0 0 0 4 7 4 7 45 64
985 1084 1026 1467 1412 1073 824 731 1435 1695 1702 1646 1724 1729 1538 1260 946 580 393 745 902 811 647 519 159 59 54 41 0 0 0 0 0 0 0 0 0 2 6 4 4 6 5
934 972 1174 1596 1474 1231 779 563 549 1337 1634 1609 1584 1613 1446 1247 883 592 834 1191 968 727 554 355 7 52 16 12 0 0 0 0 0 0 0 0 0 0 0 0 0 0 0
1016 1059 1450 1669 1524 1341 1135 789 327 592 1304 1601 1551 1279 1334 1097 933 1024 1189 1025 700 399 291 31 8 3 0 0 0 0 0 0 0 0 0 0 0 1 1 0 0 0 0
1023 1061 1330 1755 1632 1476 1338 1219 975 583 828 1165 1416 1056 872 1158 895 1004 1001 810 423 280 87 11 6 0 0 0 0 0 0 0 0 0 0 0 0 1 1 0 0 0 0
884 1138 1276 1605 1541 1438 1378 1240 1146 921 960 1173 1267 1364 1230 1243 755 838 752 731 489 355 49 42 1 0 0 0 0 0 0 0 0 0 0 0 0 0 0 0 0 0 0
1019 1077 1253 1214 1206 1183 1201 1069 977 830 1110 1300 1068 1112 924 856 480 721 576 493 79 36 362 197 0 0 0 0 0 0 0 0 0 0 0 0 0 0 0 0 0 0 0
936 881 828 973 1021 984 614 577 388 335 484 789 727 549 389 293 196 492 189 34 63 275 425 398 38 0 0 0 0 0 0 0 0 0 0 0 0 0 0 0 0 0 0
559 699 659 643 667 871 632 306 202 155 197 201 315 260 236 136 42 23 1 16 39 498 671 383 89 34 11 0 0 0 0 0 0 0 0 0 0 0 0 0 0 0 0
168 329 462 438 345 375 453 283 197 131 101 164 246 267 223 99 66 34 0 8 86 312 353 459 236 75 0 0 0 0 0 0 0 0 0 0 0 0 0 0 0 0 0
131 128 146 161 139 123 217 199 154 173 139 179 288 371 256 105 88 36 2 3 20 40 19 64 29 0 0 0 0 0 0 0 0 0 0 0 0 0 0 0 0 0 0
150 107 171 144 71 108 124 158 110 94 108 61 118 132 130 175 134 58 11 3 8 13 6 0 0 0 0 0 0 0 0 0 0 0 0 0 0 0 0 0 0 12 2
56 165 183 129 128 125 107 99 82 49 2 2 6 59 49 100 82 87 15 10 3 3 9 0 0 0 0 0 0 0 0 0 0 0 0 0 0 0 0 0 0 0 7
39 103 166 145 110 130 142 97 56 92 33 19 1 97 79 88 13 58 2 15 4 3 11 0 0 0 0 0 0 0 0 0 0 0 0 0 0 0 0 0 4 11 9
11 120 118 117 127 81 92 56 43 37 2 0 0 61 102 95 50 10 50 66 38 36 43 0 0 0 0 0 0 0 0 0 0 0 0 0 0 0 0 4 52 55 66
58 152 123 82 69 42 34 38 56 1 5 17 9 31 49 113 106 56 5 18 87 100 36 15 0 0 0 0 0 0 0 0 0 0 0 0 0 0 0 0 90 171 166
91 157 145 120 59 56 73 62 50 1 20 36 35 15 3 57 77 123 67 79 76 43 5 0 0 0 0 0 0 0 0 0 0 0 0 0 0 2 1 0 0 3 19
146 166 195 217 121 77 82 115 64 0 18 76 74 63 10 33 84 94 106 97 58 0 5 0 0 0 0 0 0 1 14 3 0 0 0 0 0 2 14 0 0 0 0
239 247 253 217 184 155 111 98 66 84 29 50 120 103 52 13 72 100 129 97 67 49 28 0 0 0 0 0 0 1 21 14 0 3 13 0 4 0 10 0 0 0 0
327 287 233 207 211 209 187 118 107 103 76 63 51 61 83 51 60 87 113 96 78 57 59 13 0 14 14 2 4 37 21 3 0 22 13 21 5 1 1 1 0 0 0
287 322 210 167 199 193 232 198 115 82 73 58 39 40 50 70 67 41 99 130 127 64 20 54 116 110 55 66 76 67 35 44 39 24 38 16 35 15 18 0 0 0 0
197 191 152 160 146 141 176 179 99 87 70 18 14 37 29 66 48 83 118 169 112 105 217 246 227 236 147 131 144 131 100 90 86 63 49 42 57 64 15 13 3 0 0
138 130 93 56 101 168 234 173 126 125 42 32 37 56 64 32 39 48 100 104 138 229 197 209 207 222 207 194 104 90 83 72 63 42 51 60 35 22 34 36 1 1 0
204 106 60 69 54 85 169 200 135 81 45 31 9 55 47 56 3 46 59 39 34 75 94 89 181 191 181 146 86 88 85 68 71 54 28 13 10 0 8 23 11 2 0

GFSSE_con_mucape_099.txt.gz
CAPE
521 1052 1722 1408 1682 1817 2102 1709 1659 1794 1698 1434 877 989 1143 947 532 120 135 45 17 7 7 127 566 547 232 147 102 57 83 86 173 218 274 515 278 158 407 344 318 148 336
622 1217 1659 1447 1584 1864 2213 2053 1977 1986 1810 1677 1100 955 804 962 352 165 476 388 68 89 32 524 650 603 307 17 11 12 12 13 0 0 8 102 258 194 163 292 437 229 349
873 1104 1207 1475 1633 2020 2158 2260 2097 2062 1975 1788 1589 889 1424 1077 467 306 662 659 613 679 713 746 683 562 54 7 5 5 2 1 0 0 0 0 1 14 6 9 14 45 9
982 1077 1040 1502 1510 1343 1679 1872 1918 1721 1747 1796 1699 1362 1360 1110 807 307 606 889 1072 881 788 732 646 209 54 38 6 3 0 0 0 0 0 0 0 9 7 10 8 8 6
948 979 978 1537 1492 1218 989 1569 1591 1678 1592 1706 1683 1670 1474 1241 963 383 691 1248 998 998 791 525 28 80 4 0 0 0 0 0 0 0 0 0 0 0 0 0 0 0 0
942 974 1322 1638 1562 1317 1174 1039 1423 1373 1368 1541 1667 1244 1187 1192 1085 911 1344 895 833 704 439 209 130 42 1 0 0 0 0 0 0 0 0 0 0 0 1 1 1 1 1
944 1021 1366 1750 1687 1427 1222 1044 930 1315 1420 1325 1276 1025 978 1260 1110 1065 1015 741 583 577 259 51 14 35 0 0 0 0 0 0 0 0 0 0 0 3 2 1 0 0 2
969 1124 1335 1613 1619 1541 1326 1245 1009 911 1121 1484 1606 1497 1286 1201 1016 815 807 704 534 170 54 28 28 0 0 0 0 0 0 0 0 0 0 0 1 1 1 1 0 1 0
891 1060 1293 1390 1321 1330 1307 1287 1233 1194 991 1357 1430 1447 1220 843 816 813 691 710 449 226 123 30 2 0 0 0 0 0 0 0 0 0 0 0 2 0 0 0 0 0 0
772 734 716 776 797 910 933 869 786 727 1015 1222 1016 921 712 534 441 426 416 520 532 380 392 122 2 0 0 0 0 0 0 0 0 0 0 0 0 0 0 0 0 0 0
306 455 686 681 689 654 576 481 253 305 448 488 553 525 474 420 179 66 144 122 87 141 324 132 7 0 0 0 0 0 0 0 0 0 0 0 0 0 0 0 0 0 0
141 258 641 621 543 559 406 149 62 80 106 215 287 293 334 320 198 89 18 51 35 90 507 329 81 42 0 0 0 0 0 0 0 0 0 0 0 0 0 0 0 0 0
87 107 185 475 330 431 170 146 98 68 59 109 261 296 315 337 237 107 50 56 14 77 218 213 128 0 0 0 0 0 0 0 0 0 0 0 0 0 0 0 0 0 0
29 69 74 137 157 196 138 121 126 114 102 81 181 333 321 318 198 223 156 53 14 132 95 118 85 0 0 0 0 0 0 0 0 0 0 0 70 0 0 0 2 5 3
14 80 195 132 163 87 95 129 102 124 119 72 119 209 287 294 200 145 164 125 16 6 50 53 26 0 0 0 0 0 0 0 0 0 0 0 0 70 11 0 0 23 34
6 20 131 205 176 119 99 113 99 90 66 32 8 119 144 178 247 194 129 126 49 6 24 54 20 0 0 0 0 0 0 0 0 0 0 0 0 0 2 0 0 0 17
0 0 65 199 208 211 169 143 105 64 30 42 25 18 153 140 195 178 27 122 34 32 31 35 20 0 0 0 0 0 0 0 0 0 0 0 0 0 0 0 40 0 67
0 0 62 208 243 198 180 175 126 60 23 21 14 47 92 98 110 116 26 26 17 50 62 78 58 11 0 0 0 0 0 0 0 0 0 0 0 0 0 0 56 151 133
0 3 92 196 222 194 130 114 105 53 33 18 10 0 92 158 143 113 40 35 3 4 62 94 76 38 0 0 0 0 0 0 0 0 0 0 0 0 0 0 0 0 28
0 34 132 215 184 117 96 72 37 19 13 0 0 10 42 119 118 124 57 24 3 54 91 116 67 50 0 0 0 0 0 0 0 0 0 0 0 13 4 1 0 0 0
0 65 145 211 206 129 107 92 113 61 59 6 5 30 41 67 54 83 90 93 78 66 122 91 109 58 19 28 1 0 0 7 10 16 10 0 0 7 0 0 2 2 0
90 151 198 266 269 202 144 119 93 64 117 33 11 26 92 113 76 76 111 104 169 84 110 66 18 4 25 22 0 0 4 1 20 29 15 14 36 26 35 1 4 0 0
223 306 293 322 327 289 186 123 69 55 56 39 38 63 70 91 95 49 49 75 78 74 103 82 81 77 36 36 0 20 37 29 33 23 19 40 67 57 38 37 1 0 0
181 270 391 317 279 214 149 142 75 36 12 29 44 59 54 52 62 69 40 36 37 86 131 124 111 104 103 32 26 48 76 77 76 57 25 36 105 72 115 92 92 21 6
179 221 246 225 228 188 240 180 100 80 114 30 41 29 46 55 52 39 53 16 37 90 123 133 140 151 87 96 135 75 107 120 95 64 68 47 67 107 104 101 74 37 13
209 137 120 154 118 63 129 95 116 175 112 51 47 17 8 27 21 13 10 40 52 72 99 144 162 149 150 167 155 110 90 94 74 66 61 48 35 2 36 65 49 41 0

GFSSE_con_mucape_102.txt.gz
CAPE
424 1261 2003 1762 1789 2093 1913 1607 1734 1853 1922 1891 1508 1642 1197 1072 621 178 9 12 2 16 391 733 325 151 38 247 40 45 9 261 269 297 389 475 420 291 271 350 313 131 400
535 1273 1883 1628 1879 2164 2004 1895 1963 1899 1814 1616 1423 1380 1007 859 401 187 87 31 14 29 376 579 574 321 84 58 34 9 31 90 8 5 9 90 326 143 91 164 426 157 166
828 1320 1328 1617 1975 2124 1957 1927 1902 1969 1885 1624 993 478 695 719 340 417 404 148 92 137 667 735 611 154 6 9 8 7 9 2 0 0 0 0 0 0 2 11 30 4 4
1057 1213 1070 1780 1946 2128 2013 1867 1957 1700 1920 1806 1556 1120 1559 874 476 592 697 575 1085 914 776 826 464 82 6 7 2 1 1 0 0 0 0 0 0 4 8 8 6 4 5
1077 1086 1078 1669 1761 1957 1810 1827 1824 1620 1484 1536 1679 1330 1444 1185 718 549 746 1348 1038 906 935 904 361 103 31 4 1 0 0 0 0 0 0 0 0 0 1 1 1 1 0
1027 954 1256 1643 1676 1621 1831 1954 1883 1606 1548 1470 1529 1505 1271 1320 1054 725 1326 1274 1097 806 827 492 87 16 3 0 0 0 0 0 0 0 0 0 0 1 1 1 0 2 4
961 922 1301 1791 1722 1502 1397 1661 1821 1768 1608 1449 1395 1199 1014 1196 1182 1257 1101 1085 916 701 550 200 93 19 0 0 0 0 0 0 0 0 0 0 0 3 1 0 0 1 1
859 1069 1350 1601 1690 1540 1374 1235 1269 1665 1717 1649 1502 1431 1307 1198 1216 1140 858 1054 792 569 342 69 62 15 0 0 0 0 0 0 0 0 0 0 2 1 1 1 0 0 0
829 1036 1230 1336 1369 1389 1250 1200 1083 1094 1353 1599 1570 1431 1330 867 887 1026 809 914 698 615 394 176 67 5 0 0 0 39 0 0 0 0 0 0 4 1 1 0 0 0 0
679 805 900 869 972 877 892 931 1017 1013 1012 1231 1290 1049 994 764 594 781 617 499 593 555 390 214 2 0 10 0 0 0 0 0 0 0 0 0 3 1 0 0 0 0 0
99 564 559 570 568 499 596 701 600 406 844 1010 881 824 814 609 507 327 307 341 447 530 413 86 0 0 0 0 0 0 0 0 0 0 0 0 1 1 0 0 0 0 0
16 40 120 468 487 450 490 474 290 267 300 346 355 432 482 497 453 264 232 307 294 337 356 169 7 0 0 0 0 0 0 0 0 0 0 0 0 1 0 0 0 0 0
7 0 19 128 411 413 340 133 64 57 120 139 149 216 282 435 436 323 248 242 16 52 77 169 36 0 0 0 0 0 0 0 0 0 0 0 0 1 0 0 0 0 0
0 0 21 132 195 181 190 134 62 54 20 39 152 184 238 368 349 284 238 111 61 112 117 157 51 5 0 0 0 0 0 0 0 0 0 0 2 3 4 0 0 0 0
0 0 11 220 122 180 146 99 68 51 37 43 134 207 214 219 185 201 169 122 163 143 107 154 93 7 0 0 0 0 0 0 0 0 0 0 0 70 96 22 27 35 34
0 0 0 62 357 154 137 129 36 88 60 79 121 174 156 172 183 183 151 109 181 161 149 184 90 37 3 0 0 0 0 0 0 0 0 0 0 0 55 63 8 53 37
0 0 30 31 243 251 181 160 133 106 110 73 70 45 119 121 164 169 180 136 135 87 113 73 50 42 0 0 0 0 0 0 0 0 0 0 0 0 0 0 77 72 84
1 0 42 42 133 354 266 215 170 175 136 89 52 47 20 98 105 142 166 165 182 120 51 38 55 40 22 0 0 0 0 0 0 0 0 0 0 0 0 0 6 183 215
56 32 30 27 143 260 333 308 252 215 152 103 37 24 47 68 106 104 155 177 140 159 93 38 51 82 36 12 0 0 0 0 0 0 0 0 0 0 0 0 0 0 50
52 50 42 71 163 275 319 239 171 169 160 78 30 14 5 46 93 89 112 162 75 117 91 16 1 32 71 80 70 0 0 0 0 0 0 0 0 0 0 0 0 0 0
0 40 42 125 248 281 255 185 99 54 33 12 6 0 2 2 35 93 174 101 92 23 0 0 29 68 92 151 115 0 12 0 0 0 0 0 0 0 7 21 9 0 0
0 2 36 212 325 338 259 184 138 95 41 27 2 1 12 19 22 44 67 110 93 96 58 28 27 9 19 80 77 31 28 2 0 0 0 8 25 10 22 40 39 26 28
10 115 150 348 422 403 322 211 155 81 70 55 34 20 5 6 60 64 49 93 107 89 38 37 38 38 18 7 86 52 21 0 0 0 8 46 49 36 28 66 64 34 8
140 250 413 467 464 462 415 316 259 90 39 61 51 31 16 28 18 66 68 67 97 72 54 43 35 30 64 5 18 69 53 42 23 22 37 54 80 86 110 123 68 56 40
246 271 379 412 418 389 373 453 337 128 198 47 7 1 9 23 17 17 59 69 51 55 44 62 52 58 46 63 64 80 80 68 102 96 102 104 94 82 154 144 128 116 94
175 191 208 228 241 237 250 318 286 309 210 163 76 24 0 1 2 4 11 29 51 57 45 26 26 13 49 114 98 87 131 84 78 142 116 131 96 77 56 84 66 42 67

GFSSE_con_mucape_105.txt.gz
CAPE
610 1576 2265 2056 1854 1759 1723 1607 1967 2004 1889 1895 1594 1518 1417 1042 599 268 124 51 53 685 781 263 47 233 375 187 91 22 301 259 362 364 425 626 400 232 305 381 366 261 280
616 1525 2205 2167 2254 2308 2119 2099 2021 2060 2018 1783 1672 1611 1338 998 577 139 144 87 83 646 922 410 175 110 93 134 15 94 204 150 99 90 132 173 259 200 136 181 402 176 56
869 1533 1452 2225 2475 2309 2045 1960 1970 1998 1894 1855 1832 1561 1219 839 539 216 130 142 137 542 819 827 446 182 65 7 6 39 85 12 0 0 0 5 7 1 0 3 7 1 1
1194 1542 1160 1969 2444 2270 2107 1904 1899 1942 1881 1620 1040 884 1176 682 552 426 304 202 623 1129 873 960 568 112 5 7 5 6 3 0 0 0 0 0 0 2 2 2 1 2 2
1363 1306 1253 2024 2277 2178 2122 2046 1908 1923 1862 1786 1549 895 1396 970 710 781 801 1017 1108 952 822 802 423 202 46 4 0 1 0 0 0 0 0 0 0 1 2 0 0 0 0
1279 1206 1357 1779 1962 2179 2050 2113 2045 1713 1587 1757 1647 1516 1139 1169 758 1203 1344 1082 662 881 815 442 403 219 220 92 0 0 0 0 0 0 0 0 0 0 0 1 2 2 2
1056 1066 1299 1766 1575 1894 1960 1857 1883 1692 1554 1692 1591 1336 1092 1113 1106 1234 1292 1107 979 836 900 297 85 5 0 0 0 0 0 0 0 0 0 0 2 2 2 2 2 1 1
851 1095 1310 1471 1681 1503 1513 1546 1670 1552 1484 1565 1660 1504 1243 1205 1157 1032 1155 1222 1111 900 590 225 47 0 0 0 0 0 0 0 0 0 0 0 6 3 2 1 1 0 1
577 866 1094 1221 1181 1378 1297 1214 1206 1399 1347 1356 1374 1399 1419 1201 1126 928 913 957 926 725 690 512 90 9 2 0 28 0 0 0 0 0 0 0 3 3 1 0 0 0 0
312 507 833 1121 1157 1100 998 929 897 922 996 1216 1310 1315 1121 896 738 801 719 635 592 490 542 448 248 26 55 13 0 0 0 0 0 0 0 0 0 1 0 0 0 0 0
13 96 380 448 844 838 877 745 675 742 772 753 1003 1032 947 1017 843 573 312 378 443 449 595 486 217 53 55 3 0 0 0 0 0 0 0 0 1 2 0 0 0 0 0
0 35 48 125 358 618 697 778 756 454 727 857 882 804 913 894 763 568 322 339 437 391 445 374 117 30 4 0 0 0 0 0 0 0 0 0 15 3 0 0 0 0 0
0 0 5 38 104 278 648 459 163 165 177 227 225 371 506 553 594 574 479 480 366 300 409 146 33 3 3 0 0 0 0 0 0 0 0 0 5 5 3 0 0 0 0
0 15 0 9 36 356 301 253 127 101 114 178 182 176 295 456 430 452 407 544 305 265 255 231 66 3 0 0 0 0 0 0 0 0 0 0 0 38 8 3 0 0 0
0 7 33 2 23 311 365 211 117 39 26 37 140 185 183 271 205 221 214 202 255 177 243 239 125 10 0 0 0 0 0 0 0 0 0 0 0 0 68 100 40 15 26
0 0 34 23 25 26 402 375 152 87 37 39 53 183 238 194 158 158 154 163 160 131 128 197 164 91 0 0 0 0 0 0 0 0 0 0 0 0 0 127 92 94 138
0 0 0 31 6 108 411 370 188 135 1 73 68 122 183 191 172 137 134 142 140 102 66 111 94 104 38 0 0 0 0 0 0 0 0 0 0 0 0 0 54 71 115
0 0 0 5 22 110 141 346 235 165 49 38 97 101 92 141 160 165 160 160 134 122 151 149 96 130 84 62 5 0 0 0 0 0 0 0 0 0 0 0 4 112 208
0 0 3 12 41 83 160 376 258 212 134 109 64 76 81 70 114 142 144 142 133 126 127 143 63 91 79 48 60 16 0 0 0 0 0 0 0 0 0 0 0 0 58
0 0 17 62 70 110 195 421 307 275 215 186 108 109 95 71 106 100 74 95 129 117 128 113 88 90 67 31 55 85 8 0 0 0 0 0 0 0 0 0 0 0 0
0 0 0 94 94 205 245 306 588 438 338 225 202 99 42 39 38 97 108 173 64 114 84 86 97 92 8 3 11 19 0 15 0 0 0 0 0 0 0 0 8 19 15
0 0 0 39 213 340 363 350 330 264 195 104 54 48 27 37 34 63 127 151 143 72 55 27 22 30 18 11 0 0 0 10 17 5 14 0 0 0 1 18 19 53 62
0 0 0 22 258 266 342 334 309 226 190 191 169 118 59 38 90 36 55 171 158 66 135 23 21 4 2 1 6 0 0 0 15 11 22 40 26 22 6 42 53 66 117
178 177 297 312 507 399 360 425 394 360 337 188 211 141 109 64 46 111 103 97 150 121 110 47 43 15 8 4 2 0 2 0 0 1 16 21 44 64 46 90 85 111 146
235 284 591 674 592 488 424 552 611 565 377 322 259 84 29 30 63 80 136 122 161 163 138 119 49 41 23 5 5 0 0 0 81 99 91 62 58 46 49 104 131 101 123
146 189 385 338 211 423 470 515 479 541 400 318 285 259 141 67 29 12 34 109 144 112 94 59 52 49 41 23 18 10 6 1 23 94 53 67 95 123 113 99 108 164 101

GFSSE_con_mucape_108.txt.gz
CAPE
1263 1703 2094 2253 1780 1526 1526 1754 2139 2182 2115 2091 1831 1573 1381 1101 840 387 128 12 190 298 0 10 1 307 534 279 158 331 370 361 469 443 598 562 365 338 332 328 318 234 40
1250 1616 2245 2350 2162 1931 2153 2189 2427 2222 2067 2118 1900 1604 1380 903 709 285 196 43 230 599 506 175 403 620 482 85 138 276 176 255 204 180 255 256 313 391 237 165 566 47 0
1147 1452 1219 2322 2458 2312 2373 2303 2180 2274 2145 2110 2015 1332 1406 1044 653 337 232 110 553 1215 666 394 393 279 216 6 103 172 111 76 50 0 0 23 42 17 0 0 7 3 1
1240 1524 1327 2307 2227 2312 2229 2139 2084 2116 2140 2020 2008 2011 1534 1120 759 335 278 229 485 1052 1103 1161 896 536 94 5 47 109 48 0 0 0 1 2 0 0 0 0 2 2 1
1433 1557 1425 1914 1837 2079 2135 2096 2007 2066 2016 1689 1568 1430 1738 1030 838 537 409 696 948 779 1000 1015 580 299 65 4 6 30 0 0 0 0 0 0 0 0 1 0 0 0 0
1451 1427 1378 1798 1828 1646 1699 1712 1890 1945 1970 1850 1682 1404 1576 1080 976 1009 1278 1111 1203 793 822 385 115 79 150 7 1 0 0 0 0 0 0 0 0 0 0 0 1 1 2
1311 1341 1213 1470 1437 1574 1757 1627 1510 1640 1450 1510 1480 1330 1151 1167 1231 1177 1008 1051 807 859 667 340 136 71 72 113 0 0 0 0 0 0 0 0 0 2 2 2 2 3 2
825 1198 1088 1127 1277 1165 1376 1391 1455 1630 1475 1502 1447 1436 1346 1174 1261 1016 1163 1412 1040 952 784 482 233 52 3 0 20 0 0 0 0 0 0 0 0 2 3 2 1 1 1
918 1177 923 744 886 1174 1338 1284 1318 1598 1507 1537 1310 1318 1209 1141 1177 1182 1252 1370 1192 1185 699 724 276 14 33 27 64 0 0 0 0 0 0 0 0 5 2 1 0 0 0
17 165 843 903 567 619 565 963 922 1034 1195 1432 1251 1107 1050 1032 966 881 876 966 973 906 905 618 439 72 84 110 177 46 0 0 0 0 0 0 0 5 1 0 0 0 0
0 0 54 406 934 662 534 426 582 600 624 669 870 1064 1123 829 646 699 509 550 562 603 572 600 521 208 112 19 58 0 0 0 0 0 0 0 0 5 2 0 0 0 0
0 0 0 0 199 884 702 631 476 344 303 94 76 232 644 513 463 390 427 288 464 451 395 571 535 202 22 0 0 0 0 0 0 0 0 0 0 5 2 0 0 0 0
0 0 0 0 28 136 989 920 872 802 670 495 350 625 381 332 563 614 580 656 879 277 473 372 371 35 5 0 0 0 0 0 0 0 0 0 2 39 8 1 0 0 0
0 0 15 26 2 7 381 790 1001 773 437 424 385 316 248 278 573 407 403 661 794 660 587 425 268 16 3 0 0 0 0 0 0 0 0 0 0 73 79 15 1 1 0
0 0 0 4 31 19 77 383 733 704 232 114 229 407 322 373 597 525 680 709 904 846 660 733 294 85 40 0 0 0 0 0 0 0 0 0 0 4 110 126 84 8 14
0 0 0 0 8 22 20 143 531 568 328 17 6 66 259 505 707 773 744 698 658 787 475 330 363 193 64 5 0 0 0 0 0 0 0 0 0 0 0 129 282 235 182
0 0 0 0 0 24 25 132 234 454 489 260 16 9 77 226 384 422 584 555 593 706 222 210 262 138 125 13 0 0 0 0 0 0 0 0 0 0 0 0 42 293 246
0 0 0 0 0 0 39 132 226 598 225 96 54 11 50 155 255 320 320 364 362 349 359 351 292 184 169 84 29 0 0 0 0 0 0 0 0 0 0 0 17 128 315
0 0 0 0 0 0 0 118 246 481 343 160 195 40 33 59 94 228 262 218 206 273 282 347 343 292 103 138 77 19 6 0 0 0 0 0 0 0 0 0 0 0 55
0 0 0 0 0 0 0 143 292 245 453 497 339 230 72 67 120 212 230 218 166 157 208 313 261 238 197 210 38 52 45 29 2 0 0 0 0 0 0 0 0 0 0
0 0 0 0 0 0 0 112 413 435 435 373 339 392 200 95 126 219 227 206 112 82 134 105 92 156 110 112 57 22 20 12 19 8 2 0 0 0 0 0 0 0 0
0 0 0 0 0 20 44 276 467 525 422 549 666 514 412 261 253 234 213 237 234 153 215 140 114 71 62 152 76 61 18 0 1 0 2 0 7 41 31 38 44 33 32
102 28 2 0 0 34 112 563 676 668 719 674 590 583 486 352 296 287 218 297 255 197 95 244 203 155 110 99 78 55 8 0 0 0 0 0 43 77 66 83 80 105 102
194 441 559 311 311 99 402 670 574 849 792 606 656 631 600 502 426 333 323 200 227 223 195 309 313 155 138 59 62 20 14 5 4 0 0 14 35 66 69 106 109 139 147
37 467 821 742 689 709 448 360 597 517 519 424 320 339 489 427 359 339 338 329 287 289 215 283 305 251 167 32 27 12 11 5 6 7 0 22 1 36 62 89 142 122 132
99 108 434 502 504 410 91 182 108 163 278 252 236 486 353 468 379 229 153 171 214 296 262 363 237 151 175 34 27 27 22 9 10 17 1 1 8 91 101 76 106 127 144

GFSSE_con_mucape_111.txt.gz
CAPE
1222 1559 2068 2062 1535 1462 1707 1995 2285 2413 2130 2112 1581 1626 1351 1126 1024 544 187 0 216 135 1 0 28 292 536 253 416 488 338 590 601 429 740 589 432 354 236 137 608 16 5
1005 1505 2138 2316 1768 1447 1557 2039 2457 2355 2162 2138 1805 1694 1343 1002 913 333 131 7 23 70 47 5 354 670 462 366 376 278 431 311 245 445 318 334 382 320 215 185 410 4 3
1586 1406 1335 2253 2273 2284 2182 2096 2379 2337 2085 2163 1996 1446 1585 1138 840 383 246 92 359 470 589 276 815 751 304 111 329 235 196 147 90 58 312 146 29 38 0 0 4 3 4
1211 1658 1428 2135 2070 1971 2212 2095 2316 2278 2120 2000 1857 1610 1442 1355 888 457 321 166 545 943 1107 967 974 768 426 85 81 223 67 4 0 0 29 6 2 0 1 1 1 0 0
1512 1373 1512 1942 1896 1788 1823 1726 1485 1777 2123 1915 1959 1846 1423 1316 1082 607 330 414 843 1009 846 886 899 491 149 51 77 44 0 0 0 0 0 0 0 0 0 0 0 0 0
1420 1253 1493 1874 1838 1787 1682 1858 1840 1682 1723 1494 1403 1436 1653 1232 1105 838 1024 994 1084 831 882 945 415 140 214 93 41 4 0 0 0 0 0 0 0 0 0 0 0 1 2
955 1481 1316 1712 1557 1736 1666 1638 1549 1419 1454 1498 1462 1268 1247 1118 1163 1122 1123 1434 1327 760 794 532 199 101 28 30 0 0 0 0 0 0 0 0 0 0 1 2 1 1 1
698 1072 1130 1197 1250 1415 1555 1546 1473 1541 1441 1410 1381 1165 1042 1265 1203 1065 1152 1302 1194 731 709 519 281 107 20 24 12 0 0 0 0 0 0 0 0 0 1 1 0 0 0
9 529 1094 1044 884 1028 1251 1283 1314 1454 1606 1699 1569 1462 1228 1064 1136 1128 1013 1197 1205 1232 1095 835 539 302 27 9 152 45 0 0 0 0 0 2 0 1 0 0 0 0 0
0 8 140 831 979 686 641 976 1028 1308 1303 1492 1378 1213 958 837 813 855 785 780 1204 1142 1029 821 442 227 124 148 162 23 0 0 0 0 0 4 0 2 1 0 0 0 0
0 0 0 4 503 778 702 537 595 587 636 670 802 791 893 677 374 501 458 427 848 875 777 582 423 295 216 63 162 10 0 0 0 0 0 41 0 4 4 0 0 0 0
0 0 0 0 0 166 729 853 648 238 114 45 30 73 362 143 93 65 195 339 600 770 570 606 477 300 52 0 0 0 0 0 0 0 0 37 51 19 8 2 0 0 0
0 0 0 0 0 2 217 914 875 748 890 510 224 86 55 68 312 237 358 535 681 381 764 351 292 119 3 0 0 0 0 0 0 0 0 3 5 71 40 2 1 0 0
0 0 0 0 0 0 46 238 886 823 905 525 330 241 206 250 408 134 259 608 765 757 789 925 693 235 56 0 0 0 0 0 0 0 0 0 0 38 91 54 1 1 1
0 0 0 0 0 0 0 156 520 837 894 722 321 195 178 294 474 326 372 599 587 903 867 880 801 320 93 24 10 0 0 0 0 0 0 0 0 0 33 145 122 26 1
0 0 0 0 0 0 0 0 321 556 635 576 286 148 163 179 293 541 837 924 911 1141 1030 772 573 666 169 42 30 0 0 0 0 0 0 0 0 0 0 13 175 173 137
0 0 0 0 0 0 0 0 1 408 598 534 338 80 41 24 89 251 483 821 811 1028 865 981 676 548 209 53 19 53 0 0 0 0 0 0 0 0 0 0 0 97 346
0 0 0 0 0 0 0 0 0 291 556 855 564 356 136 72 55 133 214 436 411 433 505 512 299 151 168 58 24 13 14 0 0 0 0 0 0 0 0 0 17 38 127
0 0 0 0 0 0 0 0 0 309 525 723 578 172 92 134 106 81 22 80 170 265 288 340 489 481 312 314 210 89 1 1 3 0 0 0 0 0 0 0 0 0 30
0 0 0 0 0 0 0 0 0 284 686 635 421 230 195 150 105 88 113 51 72 196 315 331 340 351 275 209 174 155 153 34 0 2 0 0 0 0 0 0 0 0 0
0 0 0 0 0 0 0 0 38 300 403 660 799 503 391 363 268 245 176 119 213 200 181 224 215 208 197 197 253 88 102 69 17 4 21 0 0 0 0 0 0 0 0
3 15 0 0 0 0 0 0 179 323 379 619 592 586 571 465 342 324 166 198 303 334 199 190 176 197 159 132 67 193 23 4 5 2 19 10 5 0 12 11 0 0 11
0 17 21 45 0 0 0 105 502 724 646 589 630 883 769 579 603 511 392 354 236 320 303 254 154 133 149 186 79 98 30 6 4 12 2 0 1 1 6 7 3 5 27
0 5 46 244 265 146 298 207 707 825 1003 1046 839 704 843 574 485 531 558 485 387 287 259 344 331 288 286 248 195 153 100 47 2 18 1 0 0 0 6 1 5 7 44
0 2 89 371 461 484 492 630 821 716 651 503 426 500 601 566 471 410 378 387 410 343 297 319 313 359 358 289 217 133 90 87 40 23 13 7 24 3 7 20 21 43 59
0 12 21 68 257 497 531 468 327 235 241 3 14 116 188 244 344 391 510 302 297 210 218 245 287 257 287 265 223 135 59 3 2 20 8 8 7 14 8 8 8 31 68

GFSSE_con_mucape_114.txt.gz
CAPE
832 1336 2261 2184 1590 1699 1867 2047 2212 2205 2295 2039 1243 1273 1329 1187 932 468 133 147 203 170 0 2 86 504 285 318 509 369 664 626 371 577 607 627 511 255 275 262 296 4 9
1038 1369 2127 2487 1818 1598 1808 2210 2169 2464 2354 2064 1939 1808 1126 1026 973 252 27 21 272 75 0 0 130 617 624 388 570 526 383 353 444 465 314 234 284 277 190 147 162 4 5
1021 1483 1467 2405 2241 2011 2033 2326 1878 1995 2011 1938 1654 1663 1492 1324 917 281 108 12 58 199 229 33 666 722 401 312 345 120 228 188 261 392 319 11 18 60 27 10 12 3 4
1102 1629 1254 2135 2084 2073 2147 2148 2177 1999 1984 1712 1504 1378 1468 1295 1042 588 304 66 439 754 982 899 909 850 271 229 62 15 103 30 0 1 14 2 0 9 1 0 0 0 2
1098 1161 1477 1853 1851 1956 1709 1607 1661 2025 1857 1790 1482 1558 1488 1075 1203 718 482 466 626 814 877 929 1156 649 280 297 3 2 0 0 0 0 0 0 0 0 0 0 0 1 0
863 1140 1249 1327 1769 1821 1757 1702 1569 1570 1746 1460 1388 1597 1255 1218 1174 973 995 838 829 882 853 1013 708 305 404 346 11 2 0 0 0 0 0 0 0 0 0 0 0 0 2
978 1148 1144 1345 1495 1387 1531 1526 1618 1550 1490 1423 1352 1402 1283 1281 872 1097 1304 1243 1127 1186 770 719 484 192 107 188 52 16 0 0 0 0 0 0 0 0 0 1 0 1 3
300 836 994 1008 1374 1347 1379 1436 1455 1471 1365 1527 1405 1366 1400 1283 1204 1012 929 1115 1429 1227 636 793 491 159 76 60 1 0 0 0 0 0 0 0 0 0 3 1 0 0 1
0 176 611 837 824 878 1139 1280 1356 1376 1442 1389 1604 1441 1261 1060 1093 1030 1240 1096 1072 1314 734 964 599 403 79 113 208 65 0 0 0 0 0 0 0 0 3 0 0 0 0
0 0 0 253 539 667 650 866 1011 1072 1190 1230 1322 1127 920 695 708 976 929 781 1038 1152 1156 902 633 474 451 223 260 41 0 0 0 0 0 0 67 0 1 0 0 0 0
0 0 0 0 0 173 469 697 649 663 837 863 900 847 724 641 458 360 439 357 721 1067 1148 1005 718 410 221 64 104 0 0 0 0 0 0 46 0 0 1 0 0 0 0
0 0 0 0 0 0 57 346 576 552 262 93 230 505 480 524 416 180 408 406 591 777 819 867 559 278 87 0 9 1 0 0 0 0 0 133 56 0 4 0 0 0 0
0 0 0 0 0 0 0 102 480 490 557 317 152 53 31 104 49 24 89 388 340 524 539 442 231 71 39 0 0 0 0 0 0 0 0 96 82 9 41 4 0 0 0
0 0 0 0 0 0 0 0 71 577 503 469 422 275 125 63 99 139 130 409 362 488 486 419 255 147 51 4 0 0 0 0 0 0 0 0 115 35 75 96 9 1 1
0 0 0 0 0 0 0 0 45 259 588 507 478 259 162 156 131 121 93 170 494 527 448 451 347 229 131 32 9 9 2 0 0 0 0 0 2 108 70 144 178 75 3
0 0 0 0 0 0 0 0 0 211 369 572 451 336 246 190 161 201 218 262 312 350 558 515 403 343 165 91 34 33 34 8 0 0 0 0 0 4 78 52 160 335 204
0 0 0 0 0 0 0 0 0 0 333 430 411 395 248 199 190 213 245 242 275 295 451 380 437 403 212 73 39 25 35 40 0 0 0 0 0 0 0 3 0 90 321
0 0 0 0 0 0 0 0 0 0 25 336 357 406 225 95 75 89 240 243 263 250 255 268 351 318 345 190 93 66 18 30 22 19 0 0 0 0 0 13 69 110 146
0 0 0 0 0 0 0 0 0 0 28 256 403 283 351 309 114 82 199 189 162 115 101 87 151 217 125 142 84 70 40 35 18 14 5 0 0 0 0 0 0 5 70
0 0 0 0 0 0 0 0 0 0 13 255 478 384 337 203 170 94 67 64 55 29 25 46 61 77 122 144 135 125 86 52 20 0 0 3 16 0 0 0 0 0 0
0 0 0 0 0 0 0 0 0 0 120 336 410 448 250 276 232 149 155 82 46 34 17 83 80 133 180 200 173 100 86 88 81 10 0 0 0 3 0 0 0 0 0
0 0 0 0 0 0 0 0 0 0 238 209 385 458 385 405 363 303 293 212 137 130 167 138 84 137 152 170 169 142 53 19 58 48 30 16 9 0 1 0 1 0 0
0 0 0 0 0 0 11 0 0 20 340 473 500 598 472 462 420 360 292 226 228 173 296 244 183 154 95 106 198 146 86 12 8 8 26 19 5 4 0 13 13 7 0
0 0 0 2 26 45 90 24 3 72 287 449 538 762 744 713 543 444 229 532 376 256 214 217 216 183 116 120 181 179 85 56 44 12 0 0 0 3 6 3 0 0 0
0 0 0 2 3 8 136 149 181 216 175 171 203 402 499 415 237 395 270 416 334 248 179 152 200 169 175 120 135 102 149 115 102 43 1 0 0 0 0 1 6 13 10
1 0 0 0 3 0 98 26 70 114 122 162 134 121 137 65 92 135 233 423 371 184 157 146 156 144 160 128 131 163 127 105 71 45 14 0 0 0 6 3 6 23 25

GFSSE_con_mucape_117.txt.gz
CAPE
572 1055 1929 2056 1876 1974 1952 2133 2145 1942 1921 1867 997 1276 1320 1133 813 509 89 162 197 89 0 31 350 449 171 318 471 702 519 281 473 560 697 629 229 436 278 75 9 0 25
926 1219 1901 2185 1819 1781 1911 2077 1860 2186 2118 1923 1679 1616 1364 1255 817 254 4 235 204 49 0 60 325 606 372 623 591 428 476 537 399 507 273 218 327 344 142 26 32 1 2
880 1320 1599 2249 2129 2016 2117 2047 1717 1951 1844 1637 1527 1500 1253 1191 853 256 50 21 288 105 19 44 507 674 423 491 376 189 248 279 204 217 66 6 27 154 44 9 2 2 2
1154 1469 1316 2124 1985 2185 2232 2236 1858 1835 1713 1773 1663 1544 1380 1134 1132 570 275 56 211 325 679 461 884 927 318 312 25 68 88 41 5 33 15 0 6 23 3 0 0 2 4
1006 1161 1182 1537 1496 1517 1549 1758 2031 1943 1843 1784 1673 1453 1455 1271 1133 880 621 365 476 805 1066 1040 908 625 358 294 8 0 0 0 0 0 0 0 0 0 0 0 1 2 0
596 1055 1147 1181 1295 1337 1405 1381 1370 1491 1506 1508 1590 1467 1484 1079 1044 1090 1021 883 596 697 941 1277 729 406 540 383 60 0 0 0 0 0 0 0 0 0 6 1 0 2 3
722 1004 1014 1173 1249 1323 1222 1230 1313 1376 1392 1348 1309 1390 1350 1118 1141 1070 1248 1135 1014 1057 1044 894 624 365 182 210 22 34 0 0 0 0 0 0 0 0 0 2 3 4 4
265 607 805 833 1090 1159 1241 1257 1243 1355 1395 1425 1409 1432 1443 1311 1413 1209 1294 1218 1413 1200 1153 710 811 418 138 90 74 27 0 0 0 0 0 0 0 0 2 1 0 1 4
0 104 443 672 658 697 903 1059 1228 1334 1203 1252 1469 1455 1258 1190 1226 1178 1357 1294 1254 1475 1176 820 948 647 188 145 216 0 0 0 0 0 0 0 54 0 1 0 0 1 1
0 0 0 36 129 770 509 726 833 1000 1010 1148 1138 1112 908 767 633 1004 1013 1015 1253 1163 1139 993 1018 631 452 363 370 140 0 0 0 0 0 0 165 0 1 0 0 0 0
0 0 0 0 0 0 105 436 518 695 753 854 847 862 781 653 512 429 477 495 712 1043 1088 1185 939 667 384 206 118 101 0 0 0 0 0 9 106 9 0 0 0 1 0
0 0 0 0 0 0 0 0 187 528 481 505 587 650 615 565 485 341 322 291 342 731 783 1210 1002 572 124 9 14 1 0 0 0 0 0 67 227 68 6 0 0 0 0
0 0 0 0 0 0 0 0 0 26 377 563 292 112 158 403 375 307 358 262 338 407 497 601 634 304 115 26 0 0 0 0 0 0 0 79 470 62 34 2 0 2 1
0 0 0 0 0 0 0 0 0 0 54 277 422 394 323 180 164 206 49 57 204 396 449 376 349 252 150 81 30 0 0 0 0 0 0 0 339 239 35 73 9 1 2
0 0 0 0 0 0 0 0 0 0 1 102 275 388 331 282 218 148 187 201 322 388 397 418 308 250 179 148 90 24 4 0 0 0 0 0 28 296 358 159 181 88 13
0 0 0 0 0 0 0 0 0 0 0 26 107 282 411 347 212 222 298 178 241 381 471 404 377 306 290 222 106 26 24 21 17 0 0 0 0 83 327 560 281 318 257
0 0 0 0 0 0 0 0 0 0 0 0 74 211 404 421 382 263 289 239 304 453 555 437 328 368 339 263 174 115 43 15 31 58 16 0 0 2 65 335 332 551 752
0 0 0 0 0 0 0 0 0 0 0 0 11 207 254 245 347 277 287 346 312 350 342 316 349 331 334 280 185 100 68 44 28 39 8 12 0 0 0 44 146 284 484
0 0 0 0 0 0 0 0 0 0 0 0 10 120 240 329 281 246 172 346 346 345 304 248 247 243 172 161 186 100 17 29 21 21 48 7 1 0 0 0 3 40 114
0 0 0 0 0 0 0 0 0 0 0 0 0 104 312 293 336 303 170 253 313 317 276 212 129 79 74 37 43 55 37 19 44 19 14 4 0 0 0 0 0 0 4
0 0 0 0 0 0 0 0 0 0 0 0 0 160 230 250 269 385 302 202 249 239 170 89 73 47 30 16 34 45 32 47 42 42 41 37 0 0 0 0 0 7 0
0 0 0 0 0 0 6 0 0 0 0 5 49 41 66 173 258 378 375 239 202 216 138 98 91 119 138 151 38 35 2 55 52 69 85 64 51 42 8 1 3 0 1
0 0 0 0 0 0 0 0 0 5 0 53 35 6 12 147 217 386 447 347 231 164 125 139 154 167 116 141 148 55 56 12 11 51 94 77 60 43 10 15 1 0 1
0 0 0 0 0 0 0 0 0 0 0 3 12 93 139 175 158 122 234 352 230 244 183 249 235 181 146 108 125 94 66 53 0 0 11 62 74 51 35 11 8 10 6
0 0 0 0 0 0 0 0 0 0 4 0 10 55 120 185 260 314 184 58 52 178 124 144 197 257 242 204 143 101 73 78 54 63 44 15 20 1 3 0 0 0 7
0 0 0 0 0 0 0 0 0 0 0 5 23 28 70 77 94 135 203 51 63 90 126 129 98 119 134 134 198 87 93 83 68 54 67 27 18 3 3 0 0 0 2